GFSWCAN_prec_cthk_000.txt.gz
RH
31 36 38 47 53 51 50 51 44 34 47 58 77 87 96 98 98 97 96 94 90 82 77 85 85 85 85 79 96 96 98 98 96 97 94 95 85 82 78 74 71 73 79 79 78 84 82 65 58 58 59 55 56 55
32 40 47 51 55 49 42 44 51 32 42 58 69 80 92 94 97 98 97 90 84 78 78 89 85 91 85 80 95 97 98 98 94 96 88 88 88 88 79 86 74 76 68 74 74 73 67 66 64 63 60 59 59 59
36 38 41 49 52 53 44 49 51 42 38 50 65 78 91 95 91 90 88 83 79 79 83 84 83 93 87 89 95 97 97 97 97 89 87 88 86 84 90 86 85 79 76 74 73 66 67 66 65 62 63 64 63 61
36 40 44 48 50 52 47 38 45 45 45 47 63 76 85 89 92 94 89 83 81 83 85 82 82 90 88 85 92 96 98 98 98 95 90 85 84 79 82 79 84 80 80 76 75 71 68 67 65 64 63 67 67 68
30 32 37 44 48 50 48 46 46 40 45 47 57 66 81 89 94 95 94 89 84 85 84 80 78 87 90 84 94 98 98 98 98 99 97 91 87 82 80 76 76 74 74 76 76 68 67 64 64 64 62 66 67 68
26 26 28 37 48 49 48 49 48 39 41 48 57 65 78 88 95 97 99 91 89 90 85 79 83 86 88 83 95 98 98 98 98 98 96 93 88 87 85 79 72 69 68 69 71 69 65 62 65 64 65 68 69 69
24 24 27 31 36 36 36 44 46 41 28 44 52 63 72 85 97 97 95 90 90 89 86 77 72 79 91 85 92 98 96 98 98 98 98 92 91 89 86 84 73 72 69 73 70 72 71 67 67 70 71 74 74 68
23 19 23 25 27 37 46 50 41 23 31 44 45 52 64 80 94 97 97 94 88 90 89 83 73 77 87 82 86 96 96 97 97 97 95 93 90 89 85 74 73 70 67 74 68 68 69 70 68 68 71 68 62 60
20 17 19 21 23 22 27 24 24 28 36 47 48 54 70 84 92 92 95 96 91 91 86 80 70 71 82 89 83 93 98 99 97 96 95 90 88 85 69 66 62 56 59 69 71 65 59 58 64 64 62 60 61 62
20 18 17 16 15 18 21 26 25 31 37 55 58 72 85 92 96 96 99 98 96 90 85 79 66 68 76 88 88 87 94 99 98 97 92 88 80 71 61 55 51 55 54 54 54 57 59 61 61 62 63 62 59 55
22 20 18 17 15 14 20 25 28 34 46 65 72 86 92 97 99 98 98 95 92 88 79 75 65 65 73 82 90 89 88 89 90 89 91 84 77 62 52 53 53 51 51 52 52 54 55 57 59 59 59 60 60 58
25 22 20 18 17 13 16 27 38 44 56 72 82 92 95 99 99 99 96 96 86 81 75 70 67 64 72 75 82 87 90 86 78 80 81 77 66 60 56 54 56 55 55 55 54 55 57 59 61 64 62 59 56 53
25 23 21 19 18 15 15 26 44 53 55 75 96 98 98 98 98 97 95 84 77 72 69 70 73 67 68 76 84 85 81 81 77 78 73 63 60 59 59 58 60 61 61 62 62 62 63 66 66 64 59 59 61 58
26 23 21 19 18 16 12 24 46 57 58 89 98 98 98 97 89 76 71 71 68 69 71 74 77 74 72 78 84 83 80 73 72 70 59 52 51 51 54 57 59 61 64 66 67 67 67 69 69 67 67 67 60 48
27 24 20 19 17 15 10 17 53 61 72 96 98 98 98 96 85 79 74 70 70 74 77 79 80 80 81 84 79 79 78 72 62 51 47 43 44 48 49 52 55 56 60 64 69 72 73 72 71 69 66 58 49 46
29 25 22 19 15 12 8 24 58 64 78 97 97 98 97 93 89 84 76 75 79 82 83 86 88 87 85 81 79 75 74 67 56 53 46 42 40 41 43 48 53 58 64 64 67 70 71 71 69 66 59 51 45 44
30 28 24 20 14 11 9 40 62 67 80 95 97 98 97 93 92 87 82 85 88 85 85 87 87 83 82 82 76 68 65 58 55 53 50 49 46 42 43 45 50 55 59 60 65 66 64 66 63 57 47 45 48 48
33 29 27 21 15 10 12 44 58 67 74 90 94 97 98 97 96 95 90 91 91 87 85 83 83 86 78 73 67 60 63 63 61 59 56 54 52 50 50 53 56 56 57 59 61 63 64 60 52 45 45 47 48 49
36 32 28 22 17 16 20 41 56 62 66 79 90 92 92 96 98 98 94 94 95 91 89 87 83 78 75 71 69 70 68 66 62 61 63 61 57 58 61 64 67 67 65 66 67 66 61 54 49 48 50 52 53 54
38 32 28 23 18 24 27 41 49 59 64 67 81 89 87 90 97 98 98 95 94 94 94 84 75 75 75 75 73 70 70 70 65 65 67 66 66 70 71 72 73 71 69 69 67 65 61 56 54 54 54 54 54 55
39 34 30 25 22 26 32 40 43 53 59 66 72 85 89 90 96 97 99 99 94 90 86 83 82 79 78 77 77 78 77 75 72 71 71 70 74 77 76 75 73 71 72 72 69 65 60 57 56 56 57 58 61 62
44 38 35 29 30 32 36 43 35 45 58 66 74 83 92 93 97 98 98 98 96 92 90 89 90 86 82 82 83 84 84 83 82 78 78 75 75 77 78 78 76 74 73 73 71 66 64 61 61 62 63 66 67 67
46 42 39 33 32 28 34 28 36 44 55 64 76 84 93 96 97 97 98 97 97 97 94 92 91 89 87 88 88 90 92 89 85 82 82 84 85 84 83 84 79 80 79 77 73 69 67 65 66 69 71 72 72 73
50 46 39 35 32 31 28 29 36 44 51 62 76 89 93 96 97 97 96 94 96 95 93 93 92 90 90 91 90 92 95 96 94 96 95 91 87 89 87 86 86 82 80 77 72 69 70 72 75 76 77 77 74 69
55 46 40 37 34 34 34 35 38 47 55 58 71 90 96 96 97 97 96 95 94 93 92 90 94 96 96 95 93 94 95 97 97 97 98 96 95 93 91 89 89 85 78 73 74 78 80 80 83 86 79 72 68 64
57 46 41 38 38 37 38 39 41 44 54 63 70 86 97 98 97 95 94 95 96 97 97 97 97 98 96 94 93 93 94 95 97 96 97 97 97 95 94 92 87 83 83 86 87 87 88 87 80 74 70 67 64 62
59 47 45 43 41 41 40 37 37 43 54 64 71 76 96 97 96 95 96 96 97 97 97 97 97 97 98 97 96 96 97 97 97 98 97 98 98 96 88 84 90 93 96 95 93 88 79 75 71 70 68 65 61 57
56 50 48 46 47 46 43 40 43 48 56 61 68 78 89 98 97 95 96 96 96 97 97 97 97 97 97 97 97 97 97 97 97 97 96 93 93 96 97 97 97 95 93 90 83 78 73 72 70 68 63 59 55 51
55 52 49 52 53 50 47 41 44 46 48 54 64 74 84 94 95 95 95 97 97 97 97 97 97 97 97 98 97 97 98 98 96 96 97 97 97 97 97 96 92 89 84 79 78 75 72 70 66 60 56 53 51 49
58 57 57 58 57 52 49 45 47 48 48 49 59 70 80 88 95 95 96 97 97 97 98 98 98 98 97 98 97 98 98 98 98 98 97 97 97 97 94 89 84 81 78 75 72 70 66 62 58 55 52 51 49 46
60 59 62 64 63 58 54 52 52 51 50 50 59 71 83 87 92 95 97 98 98 98 98 98 98 98 98 98 98 98 97 95 94 92 88 85 84 83 81 79 78 76 73 71 67 63 59 57 55 53 51 48 44 39
63 65 65 65 64 62 60 59 59 58 56 54 58 74 87 90 94 96 98 98 98 98 98 98 98 97 97 97 95 91 88 86 84 83 82 81 80 79 78 76 73 71 68 65 61 59 58 56 54 50 47 42 36 33
68 69 71 69 65 69 69 68 66 64 61 58 57 70 88 93 98 97 98 98 98 98 98 98 98 98 98 96 92 90 89 87 85 84 82 81 79 77 74 73 71 68 65 62 60 58 55 52 49 44 40 35 32 29

GFSWCAN_prec_cthk_003.txt.gz
RH
34 35 36 39 42 40 40 47 42 40 41 31 48 73 85 90 94 94 97 96 92 89 91 94 86 84 89 91 88 89 97 97 98 97 90 85 79 80 73 71 69 70 70 77 79 83 80 68 65 68 63 59 59 64
33 32 32 34 40 43 40 45 34 35 38 30 41 66 75 87 94 96 96 99 99 95 91 90 86 86 88 90 79 94 97 98 96 94 87 86 79 83 76 79 73 74 66 71 70 72 67 69 66 63 61 59 61 62
32 30 28 27 34 37 37 43 39 37 38 31 40 57 75 85 95 95 97 97 94 93 88 87 82 88 90 90 86 94 97 96 98 94 93 90 78 79 80 82 79 75 74 72 70 67 71 70 68 63 62 62 63 65
31 28 26 25 28 33 38 44 43 44 43 34 38 48 69 82 89 92 97 96 87 92 85 79 79 86 86 88 84 90 97 98 98 99 95 93 80 79 82 80 81 81 79 77 75 72 71 69 68 64 66 67 67 67
30 28 24 22 22 22 25 31 37 41 40 37 31 43 63 77 84 90 91 89 83 87 84 85 83 81 85 90 88 94 98 98 98 99 98 91 84 84 81 78 76 75 78 78 79 72 69 67 67 64 64 66 69 69
30 27 20 18 17 19 25 36 41 46 40 29 25 39 60 73 85 89 93 90 86 83 88 88 84 82 78 84 87 96 98 98 99 98 96 92 89 88 86 79 70 66 69 73 73 72 72 69 67 65 64 67 67 69
28 26 20 17 15 14 16 21 19 18 19 24 30 38 54 68 84 86 84 85 88 86 86 84 79 70 77 88 89 97 98 99 99 98 98 94 96 94 86 81 74 68 68 67 69 68 70 69 68 66 65 69 70 72
28 23 20 18 16 13 13 19 22 22 22 20 29 36 49 64 78 85 88 95 90 95 88 88 80 71 74 88 86 93 95 97 97 98 98 97 95 92 88 77 72 73 72 72 69 73 69 72 71 68 67 72 74 76
28 24 21 20 17 16 13 18 20 24 27 26 42 51 57 70 86 95 94 98 97 94 90 83 81 74 70 83 84 90 96 98 98 97 98 97 94 90 78 73 72 69 67 71 71 73 68 71 73 72 68 70 68 63
29 26 23 21 18 18 15 19 20 37 37 45 60 60 70 81 94 99 98 97 99 95 86 82 82 79 74 80 86 88 93 99 98 97 97 96 88 76 71 65 63 60 58 68 76 77 75 67 64 66 67 65 63 63
33 26 23 21 20 18 16 16 20 38 46 58 80 75 81 87 98 99 99 96 93 89 80 77 80 81 77 77 87 85 94 90 92 91 95 90 84 72 64 58 56 55 57 57 57 57 59 60 62 64 64 64 62 59
31 26 23 22 19 17 16 16 21 35 56 60 77 76 82 93 99 98 97 94 88 79 73 74 77 73 73 72 79 86 90 89 80 82 85 81 71 64 58 56 54 54 55 55 55 55 56 58 60 62 62 60 61 60
29 26 24 22 19 17 15 12 20 34 56 62 78 87 90 95 98 97 87 82 78 71 72 75 78 77 73 71 76 80 82 83 80 81 75 67 63 64 61 56 56 58 58 57 57 58 58 60 62 64 64 63 61 57
30 27 25 23 21 16 13 7 14 47 55 70 88 93 95 96 98 91 80 80 74 73 78 76 83 83 80 75 75 78 78 79 77 72 61 53 51 55 58 62 61 60 61 62 61 64 64 63 65 67 67 65 62 60
32 29 27 24 21 15 10 5 24 51 58 77 95 97 98 98 91 86 83 84 85 85 82 82 83 82 84 86 77 78 81 75 68 58 52 46 44 48 53 56 59 62 62 64 66 68 69 69 69 70 68 68 65 57
35 32 30 26 22 15 10 6 32 51 57 75 95 97 97 94 91 89 88 87 86 86 83 84 87 88 89 84 83 75 72 66 58 56 48 45 45 46 48 52 55 58 60 62 63 67 69 71 72 71 70 68 60 49
37 35 32 28 23 17 11 17 34 48 57 68 91 97 97 97 98 93 92 89 91 92 88 84 87 82 84 85 77 70 64 55 57 55 54 51 50 48 46 47 51 55 58 61 63 66 69 69 69 68 67 61 53 47
41 37 34 29 25 19 16 27 36 45 55 60 78 87 93 93 96 97 95 94 95 92 89 86 83 82 76 74 69 62 61 62 58 58 58 56 54 53 51 50 51 54 58 59 60 62 65 63 62 63 59 51 47 49
42 40 36 32 28 24 24 27 35 39 43 52 64 76 81 85 89 94 96 98 98 99 95 88 85 76 73 71 71 68 65 60 59 61 62 61 57 55 53 55 59 62 62 61 62 66 63 63 62 56 48 46 48 49
44 40 38 34 30 27 30 33 33 34 38 41 45 64 75 79 86 89 94 98 98 99 98 90 76 75 74 74 73 73 69 65 65 65 65 62 61 59 56 63 67 68 68 67 67 68 71 66 59 53 51 52 53 54
46 43 40 37 34 34 34 35 35 33 31 32 37 45 58 74 85 91 94 98 98 98 95 88 85 83 80 78 78 76 76 74 71 68 67 66 64 65 64 71 75 74 73 72 72 74 68 62 59 56 54 55 57 59
51 48 44 40 39 41 38 41 36 26 28 29 35 44 47 59 79 88 95 97 98 98 96 91 94 93 89 86 83 80 79 79 78 76 73 71 68 69 69 73 76 76 75 74 75 71 68 62 59 58 58 60 63 65
56 51 46 44 43 40 37 37 34 34 35 36 39 45 51 60 72 87 96 96 97 97 96 93 95 96 94 92 90 86 84 82 84 84 82 81 78 77 79 79 80 79 76 77 74 73 69 66 64 62 64 67 69 71
58 54 49 45 42 39 36 34 34 36 37 41 47 45 49 59 71 83 94 96 96 97 97 95 94 97 96 94 92 91 90 90 92 94 90 86 85 86 84 83 84 83 80 80 78 75 71 70 67 66 69 74 75 73
65 57 52 48 47 42 38 38 39 37 40 41 43 45 57 65 73 83 86 92 96 96 96 97 98 97 98 98 97 93 90 89 94 97 96 92 87 89 89 89 86 84 82 81 80 76 73 71 73 78 81 79 78 73
68 57 54 47 44 40 39 38 39 39 36 38 46 55 62 69 72 81 91 96 97 96 96 96 97 97 95 94 93 95 95 93 93 95 98 97 96 94 90 87 84 88 88 86 81 75 75 82 85 85 84 79 73 67
70 61 54 50 44 40 39 39 40 41 40 44 49 57 63 71 74 82 94 95 96 97 98 98 97 96 96 97 97 97 96 94 95 96 97 97 97 97 93 93 93 92 90 83 83 90 90 90 88 83 76 71 68 64
68 59 56 51 46 43 41 43 44 43 44 48 49 53 61 71 72 77 86 92 95 96 97 95 96 95 96 97 98 97 96 96 96 96 97 97 97 97 98 97 94 89 90 96 97 96 93 86 79 75 72 68 65 62
67 61 52 49 46 45 45 44 44 43 41 43 47 48 49 50 61 74 83 92 95 96 97 98 96 97 96 96 97 97 97 97 98 97 97 97 97 97 96 95 97 97 97 96 95 90 84 80 78 73 68 65 59 54
62 55 53 50 47 46 45 48 49 48 45 46 48 47 47 51 60 72 83 94 96 97 97 98 97 97 97 97 97 97 97 97 97 97 96 96 96 97 97 97 97 97 96 91 87 84 80 77 73 66 59 56 53 51
56 54 53 51 50 50 53 53 53 52 49 51 51 51 53 61 68 78 93 97 97 98 98 97 98 97 97 97 97 98 98 98 98 98 98 98 98 98 98 97 96 91 88 85 82 79 73 67 61 58 56 54 51 46
55 53 53 54 54 54 54 56 56 57 55 55 56 55 60 74 81 88 97 97 98 98 97 98 98 98 98 98 98 98 98 98 97 97 98 98 97 95 92 89 87 84 81 77 71 67 62 59 58 57 53 49 42 37
59 57 58 58 57 58 58 59 63 64 60 58 56 57 62 80 88 95 97 97 98 98 98 98 98 98 98 98 98 97 96 95 95 94 92 89 87 85 84 82 80 75 71 67 62 61 61 59 56 51 45 40 36 31

GFSWCAN_prec_cthk_006.txt.gz
RH
28 27 32 37 35 37 35 33 35 32 31 34 32 49 70 81 92 94 98 98 98 95 93 92 92 93 86 79 87 96 89 93 97 96 97 96 83 74 77 73 74 76 79 82 81 83 73 66 70 74 65 61 67 72
29 28 28 30 34 29 32 36 35 36 30 33 32 44 63 77 89 91 95 97 96 97 92 88 93 89 88 89 94 91 88 96 96 97 95 96 89 82 78 78 73 76 70 72 75 71 68 65 64 61 57 58 59 64
31 30 28 28 27 23 22 22 28 29 33 34 33 44 51 70 83 91 92 92 92 88 90 88 86 87 90 89 89 91 89 96 97 98 97 91 92 85 85 78 77 74 74 76 71 66 69 70 67 62 61 60 61 61
32 31 29 27 26 23 18 22 29 33 37 35 34 35 47 61 75 87 89 94 95 96 92 87 84 86 85 88 87 89 88 97 98 99 98 93 89 82 84 84 81 79 78 75 73 70 70 72 72 66 64 64 64 65
33 33 29 23 21 20 19 19 19 17 19 23 26 35 44 56 74 84 88 92 93 93 89 85 84 82 86 89 88 87 92 97 98 98 95 93 89 89 83 82 78 76 76 79 77 73 72 72 71 69 69 69 70 70
34 33 30 23 21 18 16 15 19 19 18 18 20 30 42 50 74 87 91 91 89 88 88 86 85 82 79 79 83 87 98 98 98 97 97 95 89 83 83 81 72 71 71 74 76 74 74 73 72 71 70 71 70 71
36 31 34 31 24 20 18 16 16 17 20 21 19 24 38 46 70 84 87 87 88 85 83 87 80 80 81 84 86 91 97 97 98 97 97 95 94 91 87 80 76 72 71 69 73 72 74 76 75 73 70 70 71 73
37 36 34 32 31 23 20 19 18 17 22 30 26 22 33 46 65 80 86 88 84 84 84 87 82 75 76 78 86 90 95 95 98 98 99 98 96 92 89 79 73 70 68 67 70 71 71 70 71 73 73 71 71 74
39 37 34 33 30 28 24 23 21 17 24 35 37 36 47 57 77 88 94 93 89 90 86 77 77 79 77 77 81 90 93 97 98 97 97 97 95 93 80 76 72 71 70 69 68 69 71 73 74 77 76 71 71 77
40 37 36 30 28 29 28 24 17 21 30 42 46 45 59 69 90 96 99 94 91 91 88 84 77 77 80 80 77 85 91 95 97 97 96 93 87 80 76 73 72 66 63 73 75 76 77 73 74 78 77 72 71 69
42 33 33 29 26 27 26 20 16 21 35 48 51 57 70 86 97 97 99 94 89 87 81 80 78 78 81 79 79 77 90 91 91 90 95 91 84 77 72 71 65 62 60 60 74 75 74 72 68 64 67 68 66 64
42 32 30 27 24 24 20 15 11 22 47 52 56 73 91 96 99 99 97 91 85 81 78 79 81 79 80 81 80 80 83 87 84 85 86 83 68 68 68 67 61 56 58 58 58 58 59 60 62 64 66 67 68 66
40 33 31 27 25 23 20 13 8 25 49 53 69 84 97 98 98 98 91 86 83 77 77 81 84 82 82 80 78 75 77 80 79 83 78 69 63 60 65 63 62 59 57 58 58 59 59 61 63 63 63 64 63 64
39 35 32 28 25 23 19 12 7 34 48 60 77 86 97 98 98 97 93 88 86 85 86 84 85 85 80 81 81 77 74 74 76 75 64 55 51 56 61 65 62 62 62 61 62 61 60 64 67 67 67 68 68 67
41 37 33 30 27 23 18 12 10 35 44 65 84 94 97 97 98 92 86 85 84 82 84 88 89 87 87 84 78 75 72 73 68 61 52 45 45 46 53 60 63 65 66 65 65 66 67 69 71 71 73 75 73 69
43 39 36 32 28 24 21 17 25 32 42 57 77 89 90 91 91 87 88 89 87 88 90 90 92 91 87 84 84 77 73 65 55 53 48 47 45 46 46 50 55 60 64 67 69 72 72 74 75 76 78 76 72 67
47 43 40 34 29 26 24 29 29 35 44 46 69 84 86 87 88 86 88 93 94 92 94 92 87 83 83 83 78 70 67 53 52 54 52 49 52 52 51 49 51 54 59 63 67 68 71 72 72 75 75 73 70 65
51 46 42 36 31 29 28 34 33 34 37 40 47 66 78 78 81 82 86 92 95 97 97 92 85 83 76 72 70 66 65 61 61 59 55 51 52 55 57 54 52 52 55 60 64 64 65 67 69 69 68 68 64 54
57 50 45 39 35 32 30 33 37 32 32 32 32 37 57 68 68 73 84 92 94 96 97 98 92 78 72 69 68 66 65 64 63 61 58 55 55 57 58 58 57 58 59 61 61 62 67 67 66 64 62 58 49 47
59 53 47 43 39 34 33 37 39 36 33 33 27 28 27 41 65 71 80 90 97 98 98 96 87 77 75 73 73 71 70 67 65 63 61 59 58 58 61 60 59 63 66 67 66 64 68 68 66 63 57 50 47 49
61 54 50 46 43 38 38 40 43 40 35 31 25 27 25 26 31 61 79 86 96 98 98 95 94 90 87 81 78 76 73 72 69 67 65 64 63 64 63 63 63 69 72 71 70 72 72 72 70 66 60 55 55 57
64 58 54 49 46 45 46 49 47 40 36 33 32 32 31 30 34 41 61 82 91 95 97 98 98 97 96 91 87 82 78 77 76 74 72 70 70 72 71 69 68 73 76 76 77 77 76 77 70 64 60 58 58 60
67 60 57 53 49 47 47 49 48 43 40 37 34 34 35 36 35 39 50 61 87 92 96 97 97 98 98 98 98 94 89 85 82 80 80 78 78 79 77 75 75 77 79 82 79 79 82 74 68 64 61 61 62 65
69 66 59 52 49 47 45 47 44 43 41 38 37 35 31 37 40 45 50 53 63 86 96 97 97 97 97 97 98 98 97 91 87 84 84 83 85 86 83 83 83 84 85 84 82 82 78 74 70 68 65 65 68 71
74 67 60 54 51 50 48 48 47 43 39 40 37 33 38 47 51 51 50 53 61 70 86 96 97 96 97 97 97 97 97 95 90 86 86 87 89 91 91 91 91 91 90 85 84 81 79 77 72 70 69 72 75 74
78 65 61 53 52 50 46 43 43 40 38 36 37 39 42 48 50 49 52 57 65 66 72 86 96 96 96 97 98 97 97 97 95 90 89 89 93 94 93 94 94 94 91 84 85 85 81 77 74 75 81 81 82 79
78 72 63 58 53 50 50 45 41 39 38 41 43 46 48 54 54 55 62 60 60 66 72 76 89 95 96 96 97 97 97 97 95 92 91 91 93 97 96 97 97 94 89 87 89 86 82 79 82 86 86 85 80 71
79 72 69 64 60 56 50 43 40 38 39 42 46 42 44 47 43 38 37 42 54 63 72 83 86 92 96 96 97 97 97 97 96 94 90 89 90 93 95 96 97 94 96 97 94 89 85 90 93 93 86 78 70 64
78 74 69 66 63 57 47 39 36 34 39 42 43 41 39 38 38 40 42 45 51 61 75 87 90 95 95 97 96 97 97 96 91 89 87 87 90 94 96 97 98 97 97 93 94 97 98 97 92 85 77 71 67 63
80 76 69 64 57 49 40 38 37 40 43 44 43 39 40 41 42 48 53 56 57 68 80 90 91 95 97 97 96 96 97 96 96 96 96 96 96 97 97 98 97 97 97 97 96 96 95 89 81 76 73 69 67 60
70 69 65 59 53 48 42 41 43 45 47 47 44 43 46 46 46 60 64 67 72 82 92 93 95 96 97 97 97 97 97 97 97 98 97 97 96 97 97 97 98 98 98 98 97 93 87 82 77 74 69 63 56 51
65 61 58 56 53 50 46 46 47 46 48 48 47 48 50 50 55 68 72 80 94 97 98 97 98 98 97 97 97 97 97 97 98 98 97 98 98 98 98 98 98 98 95 92 89 86 82 77 71 66 60 56 51 45
63 60 60 59 55 49 49 49 50 49 51 52 51 52 53 53 59 71 80 94 97 98 98 98 98 98 98 98 98 98 98 98 98 98 98 98 98 98 97 97 97 95 92 87 82 77 71 68 63 59 55 49 42 37

GFSWCAN_prec_cthk_009.txt.gz
RH
37 36 34 30 28 21 18 21 21 22 23 26 35 43 51 59 78 95 95 97 98 95 93 86 83 82 86 85 81 87 89 86 89 95 96 97 92 84 74 70 75 74 80 80 80 84 80 75 78 80 72 72 73 75
33 37 36 32 25 17 17 16 21 18 24 30 32 44 45 52 73 86 94 94 96 95 93 87 82 83 86 79 78 87 88 86 92 95 97 98 91 82 77 76 72 76 68 70 71 68 66 70 70 68 65 65 67 74
35 39 37 34 26 18 18 19 18 10 14 20 29 31 39 50 68 80 91 93 95 95 89 89 85 86 85 85 88 89 88 90 95 97 98 97 96 82 83 76 74 72 71 73 70 64 65 68 69 65 63 62 62 67
39 43 38 33 29 20 20 19 18 13 16 14 16 23 33 49 59 76 80 87 94 97 95 84 82 81 82 86 86 87 87 94 97 98 97 97 94 82 84 77 78 78 78 73 71 68 66 66 69 65 65 65 66 68
42 44 40 32 34 22 21 20 24 16 17 16 17 17 24 49 58 69 79 91 93 93 88 88 84 82 83 83 86 86 86 95 97 98 97 96 93 89 84 81 80 74 72 74 74 69 69 68 70 67 68 68 67 68
45 45 41 39 36 30 28 23 27 23 20 18 20 29 31 47 62 74 95 94 95 94 91 84 84 84 82 81 87 89 87 96 97 96 96 93 91 90 88 80 74 69 69 70 73 74 70 72 72 70 70 70 68 69
48 46 42 39 37 33 29 28 27 23 21 20 26 34 27 46 65 77 91 92 93 91 90 85 82 83 84 82 84 85 91 95 97 98 97 96 97 93 86 80 74 72 71 72 72 74 75 74 74 72 72 72 70 69
49 47 43 39 37 33 29 28 26 22 21 19 33 35 28 43 61 75 85 95 95 94 88 88 82 81 80 80 80 86 90 94 95 97 98 97 94 91 87 82 75 74 71 70 70 70 73 75 77 77 77 75 72 72
49 48 44 37 38 33 30 27 24 21 19 26 40 43 37 55 69 84 96 98 98 93 85 80 83 80 78 78 79 88 87 92 94 98 97 95 94 91 80 80 77 74 71 70 70 70 70 73 76 78 78 78 76 75
51 48 43 34 37 32 29 23 19 19 26 42 48 44 48 66 81 94 99 99 98 93 87 80 79 80 77 80 81 79 83 89 91 92 94 93 86 77 77 79 77 74 73 73 76 77 74 76 78 78 77 78 74 72
51 49 42 34 31 30 26 20 17 20 33 50 49 51 51 74 92 98 99 98 94 90 83 83 81 79 79 80 84 81 81 85 86 86 88 89 84 75 75 76 77 71 67 66 79 81 80 80 79 78 82 73 71 70
51 51 41 34 32 28 24 20 16 17 45 52 53 55 63 89 98 98 99 96 92 87 82 85 86 82 80 79 81 85 81 81 79 79 85 82 71 68 74 75 74 68 65 64 69 78 78 78 73 69 67 67 69 70
51 52 41 35 33 28 25 20 13 14 44 54 61 67 88 98 98 98 95 94 89 83 80 86 89 86 85 84 84 82 80 76 74 75 73 65 62 63 65 71 74 68 63 64 63 62 63 65 65 65 65 64 66 68
53 53 41 37 33 29 25 21 15 23 41 56 72 78 95 97 97 95 92 89 89 88 84 85 88 89 85 86 85 82 79 74 72 71 64 55 50 53 62 68 71 70 64 62 62 63 63 65 68 70 69 70 70 69
56 53 43 39 34 30 26 22 26 28 38 54 72 80 91 93 95 95 89 87 88 90 88 86 89 89 88 85 84 83 79 72 66 61 55 47 43 46 52 60 67 69 68 68 65 65 66 67 68 70 71 71 71 72
62 55 46 42 37 31 28 26 33 31 37 46 61 76 80 82 83 82 84 87 85 85 86 89 91 89 84 81 85 79 76 70 56 52 46 45 45 46 47 52 56 62 66 68 70 71 71 72 74 75 75 77 79 75
63 57 51 47 40 33 31 32 35 37 37 41 50 59 73 73 75 76 78 86 88 88 86 88 86 82 80 81 77 74 69 64 61 54 52 50 50 51 52 52 52 54 58 62 65 68 71 73 74 74 75 77 76 72
66 60 56 50 43 37 35 39 37 39 38 34 39 46 51 62 68 67 70 78 87 92 91 90 86 83 78 77 70 65 64 64 63 62 57 54 55 52 53 55 57 56 57 60 64 68 70 71 72 71 72 78 71 68
70 64 59 54 48 41 36 38 39 38 39 35 30 31 26 32 40 53 62 68 79 88 93 93 92 84 78 77 73 66 66 65 66 65 61 58 57 56 55 56 59 61 62 63 64 63 64 66 66 66 71 67 65 60
73 70 64 58 51 44 39 41 40 41 40 42 35 31 27 23 18 21 37 53 69 80 88 92 89 87 87 84 80 78 74 73 68 65 64 61 59 58 57 58 59 64 66 66 68 65 65 65 70 75 70 67 60 52
75 71 65 61 54 48 45 44 45 45 44 40 36 34 32 29 25 26 28 30 42 62 77 88 89 92 89 89 92 88 83 80 77 72 68 67 66 66 64 61 63 67 70 72 73 71 70 77 79 71 70 63 57 55
77 73 69 62 56 53 52 53 52 48 43 42 42 41 37 33 30 31 33 32 37 39 51 70 85 92 93 94 96 97 91 86 87 81 74 70 67 66 68 69 67 69 74 77 78 76 76 81 79 76 69 66 63 58
80 75 71 63 60 55 52 54 52 50 46 45 43 40 38 35 33 31 33 37 37 42 50 56 69 91 94 95 96 97 98 94 91 89 83 76 73 73 73 74 75 76 79 80 82 80 82 83 79 76 73 66 62 61
85 78 72 67 60 53 51 52 51 49 48 46 43 41 34 33 34 37 39 35 37 41 42 44 47 56 81 93 94 96 97 98 98 96 90 85 82 82 80 80 83 83 84 86 84 83 83 81 81 77 70 66 64 65
85 81 75 65 59 56 54 54 53 50 47 48 45 36 36 39 43 40 35 32 39 45 43 44 46 47 55 80 92 95 97 97 98 98 96 91 90 86 85 84 87 88 89 88 86 85 81 85 83 73 69 70 70 72
87 79 72 62 59 57 53 51 52 50 50 45 39 38 41 43 44 40 39 39 48 44 42 42 46 52 56 62 82 95 95 97 97 97 98 98 94 90 87 85 87 91 92 91 90 86 86 86 79 77 76 76 77 79
88 81 72 66 62 58 57 55 53 52 49 41 39 42 44 47 45 39 40 35 31 28 30 37 44 53 58 62 76 87 96 95 97 97 97 97 96 94 91 87 88 94 95 94 92 90 89 85 85 83 82 81 84 84
84 78 77 72 69 64 59 58 56 51 43 38 41 42 41 42 37 27 25 28 32 34 37 38 41 53 60 68 77 91 96 96 95 97 97 97 94 93 92 92 94 97 98 97 93 93 92 90 86 83 86 91 90 86
84 80 75 76 74 71 62 56 51 41 37 38 39 38 37 33 28 26 30 34 40 47 48 49 49 51 64 71 78 88 94 96 94 97 97 97 97 98 95 96 96 97 97 96 97 97 93 92 90 95 97 91 83 74
81 79 78 79 73 65 56 51 45 40 38 36 37 38 37 33 29 31 34 40 52 57 57 58 58 58 70 77 83 92 96 97 97 96 97 97 98 98 97 98 98 97 97 97 97 96 96 96 97 96 90 83 75 70
80 81 75 71 67 61 52 49 48 44 41 38 39 40 38 36 33 34 37 50 59 66 72 72 72 74 79 84 90 94 97 97 97 97 97 97 97 98 97 98 97 97 97 97 96 96 97 97 96 88 82 75 73 67
78 72 70 68 62 56 53 53 50 46 42 40 38 39 40 41 41 39 43 57 68 77 82 83 87 90 91 92 91 96 97 97 97 97 97 98 97 98 98 98 97 97 98 98 98 98 97 92 86 82 77 74 65 59
72 72 69 63 57 55 58 57 52 47 43 42 40 42 45 44 44 43 52 64 77 87 93 95 96 96 96 97 97 98 98 97 97 98 97 97 98 98 97 97 98 98 98 98 96 92 87 83 80 77 70 63 58 52

GFSWCAN_prec_cthk_012.txt.gz
RH
47 44 44 42 34 31 24 22 25 19 16 12 21 26 31 40 55 69 83 87 87 85 83 77 79 82 84 86 82 84 91 90 87 90 90 89 84 76 78 67 69 72 80 81 78 78 80 74 77 77 75 73 74 80
49 41 46 43 36 36 26 23 25 17 15 12 14 15 24 36 52 64 81 86 89 90 88 81 81 78 82 80 81 80 84 88 89 94 94 92 86 78 78 70 69 75 70 69 69 65 63 69 72 72 72 73 75 75
49 43 47 44 40 38 32 30 28 24 19 15 17 15 15 35 47 63 72 84 86 88 89 90 86 83 82 82 79 81 92 90 91 92 94 93 91 87 81 73 74 71 72 74 69 65 68 67 69 68 67 68 69 77
51 44 46 46 43 39 38 34 30 28 27 23 19 17 16 20 46 61 70 81 86 90 92 83 83 87 86 85 85 91 93 90 91 95 95 93 92 86 80 81 76 75 76 73 69 66 67 66 69 70 68 69 72 76
55 48 48 49 45 39 38 35 34 30 27 23 20 22 21 25 36 57 68 81 88 90 89 86 85 82 82 83 89 90 91 91 91 95 94 93 90 90 84 82 74 73 70 67 67 67 67 66 70 72 70 71 72 73
57 50 52 52 45 39 38 35 32 30 25 23 24 24 30 31 33 63 89 91 88 91 92 90 87 86 86 87 89 90 94 91 90 93 93 89 90 93 88 78 68 66 68 65 68 69 71 70 71 73 71 72 70 71
62 50 55 54 48 39 39 35 31 28 23 24 26 27 35 31 37 77 94 90 93 94 93 87 87 83 87 86 87 90 88 90 89 90 92 93 95 95 90 79 71 70 68 68 69 72 75 74 75 75 73 72 72 72
69 52 55 56 50 40 39 35 31 26 19 25 35 42 39 30 41 75 83 93 95 94 92 91 83 80 85 88 87 90 91 90 89 94 94 96 97 93 86 76 74 72 70 69 72 74 73 76 77 79 77 77 77 76
73 55 54 55 50 38 33 34 30 21 23 40 46 45 42 33 56 82 92 98 97 94 92 88 86 83 84 86 83 86 84 86 87 93 97 97 94 90 80 77 77 76 74 72 70 72 72 72 76 79 80 80 79 79
74 58 54 54 46 38 32 34 27 22 32 38 41 43 46 45 78 92 98 98 98 96 91 87 80 82 79 80 78 77 81 84 87 88 93 94 92 82 76 80 80 78 77 75 73 73 73 74 74 77 79 78 79 79
78 62 56 57 44 37 33 33 22 16 37 42 44 50 47 73 97 98 98 98 97 93 87 85 79 80 78 80 80 80 81 82 84 86 90 89 84 77 73 73 75 74 70 71 76 78 77 76 75 77 79 80 83 77
73 64 57 58 45 38 33 26 21 16 39 46 42 46 76 98 98 98 98 97 91 89 88 82 81 80 81 80 78 81 83 81 81 80 83 81 71 70 71 76 78 75 71 70 74 82 83 82 82 80 81 81 72 70
77 65 58 59 46 39 33 26 20 17 41 44 48 71 96 95 94 95 95 92 90 88 85 83 85 85 85 84 84 80 81 78 75 77 72 64 63 62 64 69 78 73 68 66 67 74 79 82 81 76 72 69 66 66
79 66 61 58 47 41 35 27 22 26 40 48 52 82 87 86 86 90 86 84 87 90 88 86 84 84 85 87 88 87 80 78 77 73 65 54 51 52 57 67 75 78 68 65 64 65 67 69 69 67 67 68 69 69
86 70 64 55 48 43 36 29 27 28 36 49 56 73 80 81 84 84 84 84 87 87 89 89 86 84 88 88 83 84 84 79 70 64 57 48 47 47 52 61 70 76 73 67 65 66 66 67 69 70 70 71 70 72
87 75 62 54 50 45 39 33 33 35 39 42 52 63 72 75 78 75 77 84 86 90 89 89 90 87 87 83 84 82 83 78 70 64 54 46 47 48 50 53 58 64 72 74 72 70 70 70 70 70 71 74 75 75
89 76 64 60 54 49 42 39 39 39 45 41 43 49 61 66 67 70 69 76 83 87 89 91 90 89 84 84 81 77 78 74 71 65 58 56 53 50 50 52 54 57 58 61 68 72 73 75 75 75 75 75 77 79
88 79 71 64 58 52 47 45 42 41 44 41 38 39 40 45 56 62 63 66 72 84 88 91 89 88 85 82 76 74 73 75 72 69 67 64 60 57 56 54 55 57 59 60 60 64 70 72 75 75 74 73 74 77
90 83 74 68 62 55 50 47 43 42 45 42 41 35 28 24 23 27 42 57 64 72 84 91 92 85 83 83 83 81 79 77 76 70 67 65 64 63 60 57 56 56 59 62 64 64 67 69 73 72 70 70 76 73
96 88 80 73 65 57 52 49 45 47 45 44 42 38 35 31 26 23 21 22 30 50 65 74 78 80 83 85 88 88 85 81 78 74 70 66 63 62 63 62 61 61 62 63 67 69 71 69 69 68 67 74 75 68
93 86 81 73 67 60 57 55 52 50 50 47 45 40 39 38 36 34 32 32 31 31 39 40 49 60 76 83 84 87 86 80 81 79 77 74 68 66 66 67 68 67 66 66 67 74 73 71 73 71 74 81 75 68
92 84 78 74 70 66 66 63 59 56 51 50 46 44 42 40 39 36 36 35 34 30 31 33 38 39 41 49 65 79 85 88 86 87 87 82 77 73 71 71 70 70 71 71 72 75 76 75 74 78 86 75 71 69
89 85 80 76 73 70 67 65 62 58 52 51 49 47 45 42 40 35 33 33 31 27 31 32 32 33 32 33 36 48 69 78 87 95 94 88 85 80 76 77 74 72 71 74 78 80 79 76 83 92 81 77 72 67
91 85 80 77 73 70 67 65 64 60 56 53 50 46 42 41 41 40 37 31 28 29 30 30 27 24 24 28 31 37 48 60 78 90 97 98 95 88 84 84 82 79 77 78 81 84 82 81 90 83 82 77 72 66
93 88 84 77 72 70 68 65 63 61 56 55 52 45 44 43 43 41 37 28 25 26 31 33 30 29 29 28 31 36 42 51 65 88 96 98 98 98 94 91 90 87 84 84 85 87 88 84 90 86 81 77 70 68
95 88 80 74 72 69 64 61 62 60 59 56 51 48 49 47 45 39 33 26 29 32 28 24 21 20 22 28 30 37 44 49 55 74 94 97 97 98 98 98 95 91 90 90 91 92 91 89 92 83 83 77 73 72
93 87 80 75 70 68 66 62 59 58 57 50 50 53 49 47 43 32 27 30 25 21 20 22 25 28 29 28 30 38 44 52 57 67 90 97 97 97 97 98 98 97 94 93 95 94 92 92 87 90 83 78 77 77
88 83 84 82 79 71 66 63 60 57 53 49 51 50 43 38 29 25 26 24 22 21 24 27 32 39 41 42 39 38 46 55 60 67 85 96 97 97 97 98 97 98 95 93 95 97 96 93 96 88 83 83 81 82
89 88 86 84 80 74 66 63 61 53 49 47 44 38 33 27 23 25 25 25 23 25 28 33 48 52 51 49 46 44 53 61 63 72 86 95 97 97 97 98 97 97 98 96 96 98 97 97 91 91 92 88 87 94
91 84 81 80 76 72 66 62 56 52 47 43 39 35 30 27 26 27 27 26 27 29 36 50 59 63 64 60 53 52 58 65 72 80 85 91 97 97 97 97 97 97 97 97 96 97 97 95 97 96 91 95 97 88
88 84 82 79 76 71 66 61 56 50 46 44 40 37 33 29 24 26 27 28 30 40 54 63 71 73 72 68 65 64 67 73 79 89 94 95 97 97 97 97 97 97 97 97 97 97 97 97 96 96 97 95 87 82
85 82 81 76 72 69 66 61 54 49 48 46 41 37 35 32 30 28 28 30 41 55 66 71 76 79 79 78 75 76 78 81 88 95 97 97 97 97 97 97 97 97 97 97 97 97 97 97 97 97 93 87 82 75
83 83 79 73 72 67 62 56 53 51 49 45 40 39 37 36 35 32 32 37 52 65 73 77 83 85 86 88 87 91 91 89 91 96 97 97 97 97 97 97 97 97 97 98 98 98 98 98 97 91 87 83 75 67

GFSWCAN_prec_cthk_015.txt.gz
RH
64 61 54 48 48 44 41 37 35 34 22 18 15 9 16 21 37 50 62 78 79 78 74 73 72 73 76 75 79 84 87 89 87 84 81 80 81 78 76 72 72 69 74 79 81 89 84 70 72 78 76 75 76 78
68 64 57 50 47 45 42 41 38 37 32 20 19 21 18 16 24 47 58 69 79 84 79 76 75 76 81 80 86 84 87 86 89 88 92 90 91 80 77 80 71 70 63 70 69 69 67 69 70 70 72 70 72 79
71 67 54 55 51 47 45 43 41 39 34 28 23 21 22 18 18 38 62 66 79 84 81 81 79 78 79 81 83 84 82 87 90 89 94 94 92 90 88 78 73 69 64 67 71 65 69 70 68 68 69 68 70 75
75 69 62 57 52 49 47 45 43 40 35 28 24 27 29 25 22 28 75 73 81 88 88 84 82 82 81 82 80 81 80 91 92 91 95 95 94 90 84 81 77 76 72 72 67 66 65 68 68 68 69 70 73 80
80 76 66 59 54 52 47 44 45 40 34 27 23 28 36 33 27 28 62 81 88 91 88 90 86 85 85 87 85 82 87 94 92 93 94 95 93 91 83 78 71 68 69 70 66 67 67 67 68 69 70 71 72 73
83 81 73 60 56 53 47 46 46 39 32 26 21 32 37 38 42 31 75 96 97 96 92 91 87 89 88 84 82 86 90 92 94 92 90 89 93 91 89 78 66 67 66 66 66 66 68 71 71 70 73 72 71 70
95 89 78 64 60 54 48 49 45 38 29 25 28 36 45 51 44 33 82 98 99 98 97 94 89 86 88 86 86 89 89 95 92 91 89 91 92 93 87 79 74 70 70 70 68 69 71 75 76 75 78 75 74 74
94 94 82 63 61 56 49 49 44 35 27 33 40 45 50 47 36 35 91 97 98 98 97 95 88 86 84 89 88 86 90 91 93 91 90 93 95 92 87 73 72 72 70 68 69 70 73 76 80 80 80 78 78 79
95 96 90 67 57 55 51 51 42 27 23 35 37 43 49 39 32 58 92 98 98 97 95 92 88 86 83 86 89 90 90 89 89 88 89 92 92 91 79 79 78 76 74 72 71 72 74 77 79 82 82 82 83 82
96 93 95 73 58 57 50 47 35 22 31 39 45 49 44 29 46 88 97 98 98 95 96 92 85 83 80 83 84 83 84 84 82 80 87 89 88 79 77 75 77 80 80 79 77 77 75 77 78 79 81 82 82 82
95 94 95 71 61 57 50 47 31 19 33 37 40 38 38 69 97 98 98 98 97 94 91 91 84 83 78 80 80 78 80 82 83 80 83 80 82 76 75 73 73 78 81 77 80 79 78 77 77 76 79 82 83 82
97 95 92 72 63 57 51 42 30 19 32 42 50 68 85 98 98 98 98 97 94 94 90 87 82 79 82 79 80 82 83 82 81 75 81 74 68 70 70 69 76 78 78 75 73 81 84 85 84 81 81 84 84 80
97 95 88 75 65 58 49 42 30 20 38 44 66 81 84 85 88 87 85 86 87 87 88 84 83 79 80 80 82 81 81 79 73 77 73 65 61 58 62 64 75 82 77 73 72 79 87 87 85 83 85 85 84 72
98 96 90 72 67 60 50 43 31 29 33 44 67 80 79 75 73 75 78 80 83 86 86 84 84 82 81 83 85 89 81 78 78 78 73 65 58 54 54 63 75 85 82 76 69 73 79 85 88 86 79 76 73 70
97 97 91 80 68 58 52 45 35 34 30 49 60 77 75 73 73 76 76 80 82 86 87 85 84 82 85 86 84 84 83 80 74 73 73 64 55 57 55 60 72 81 84 79 72 72 72 74 76 77 76 76 73 71
97 95 94 85 64 58 54 48 41 39 38 41 52 67 73 77 73 70 76 80 80 84 89 89 91 89 89 84 82 82 81 77 75 73 68 61 58 58 59 58 61 68 79 82 77 76 74 73 74 75 75 71 70 73
96 95 95 80 67 61 58 52 49 47 45 42 42 52 64 70 70 68 67 71 79 85 87 90 92 92 88 85 80 76 79 76 76 75 71 67 62 59 56 58 60 62 64 66 71 76 78 77 77 77 76 75 75 77
95 97 93 83 73 67 62 57 55 49 48 46 41 41 46 50 62 65 66 66 69 80 82 83 84 87 85 82 79 76 75 78 75 75 75 71 70 67 62 59 59 60 61 63 65 67 67 70 73 76 78 78 79 78
98 97 96 86 77 69 64 61 57 53 49 50 45 41 33 30 28 33 42 53 61 67 80 85 86 80 78 79 80 80 79 78 77 75 73 73 69 66 67 66 65 61 62 64 67 67 69 70 69 71 75 76 75 75
98 98 97 89 81 71 67 64 58 56 52 51 46 43 38 34 32 27 24 25 28 32 49 61 69 75 79 80 82 80 78 78 75 72 73 73 74 69 65 63 64 65 67 67 67 68 71 74 75 73 72 72 70 70
97 98 97 93 85 76 70 67 66 62 56 52 52 48 43 40 39 39 39 39 41 37 34 31 31 31 37 45 51 58 64 70 70 70 69 70 73 76 73 68 65 66 67 71 73 73 73 75 76 77 74 73 71 78
98 98 97 93 82 76 74 73 73 68 63 59 54 50 46 42 42 42 43 42 40 32 30 28 29 29 26 25 26 27 27 29 36 48 59 68 71 75 77 75 72 70 71 71 75 78 76 77 76 74 77 75 79 85
98 97 96 89 83 79 75 76 76 72 68 61 57 52 49 47 48 46 43 38 32 28 27 29 29 27 25 22 21 20 21 23 25 29 33 45 62 76 81 83 78 77 77 76 75 77 78 80 80 78 77 81 90 83
97 97 92 87 83 77 74 77 77 75 68 61 57 52 51 50 48 46 44 37 30 27 28 29 29 28 27 25 23 22 23 23 22 24 29 34 38 57 81 88 91 86 82 82 80 80 79 80 81 81 82 94 91 84
97 96 94 88 81 80 77 76 76 73 68 65 60 54 51 50 48 49 48 35 30 27 26 28 29 26 19 15 15 16 17 19 22 23 26 31 37 41 59 83 93 96 94 85 87 86 85 83 82 82 86 97 88 83
97 95 89 82 78 76 72 72 73 71 68 66 61 57 56 53 53 48 36 29 25 26 26 25 23 19 17 17 17 19 23 25 24 21 24 32 36 44 51 69 95 97 98 96 92 91 89 87 88 86 95 93 88 83
96 93 85 78 74 72 71 69 68 68 68 63 58 58 55 55 50 34 26 25 26 26 25 23 21 19 18 18 21 27 31 32 32 29 26 31 37 44 50 58 85 97 97 98 98 96 93 91 93 97 97 94 89 83
90 87 85 81 79 75 74 72 70 69 63 59 57 58 55 48 37 27 26 25 24 23 23 22 21 21 20 22 30 37 40 42 39 37 32 32 41 48 56 68 91 97 97 97 98 98 96 95 96 98 97 93 90 84
88 85 84 87 86 84 77 73 70 63 59 57 56 51 47 37 29 26 25 25 24 23 22 22 22 23 27 38 46 51 54 53 49 42 38 40 48 56 64 78 95 97 97 97 97 98 98 97 97 98 96 94 90 87
89 87 88 90 87 81 74 71 68 62 58 54 50 45 39 33 29 27 26 24 23 22 22 22 25 36 46 52 56 60 59 56 54 47 43 49 59 67 74 82 96 97 97 97 97 97 97 96 94 96 96 94 91 87
92 92 92 87 81 78 76 74 69 62 59 54 49 44 40 36 29 25 23 23 22 21 23 32 43 51 56 63 66 67 69 64 58 54 54 60 66 74 85 91 97 97 97 97 96 97 96 98 98 97 97 95 91 96
93 93 89 86 84 82 78 71 67 65 62 55 47 44 41 38 34 26 22 23 23 24 33 44 53 58 64 68 72 77 77 68 67 66 69 76 81 84 93 92 97 97 97 97 97 97 97 97 97 97 97 97 97 96
92 91 90 86 84 80 71 67 66 62 55 50 47 45 43 40 35 27 25 24 25 32 43 54 57 63 69 74 76 81 83 83 83 76 83 86 89 97 96 96 97 97 97 97 97 97 97 97 97 97 97 97 94 87

GFSWCAN_prec_cthk_018.txt.gz
RH
81 75 78 72 61 53 50 48 46 43 40 37 33 32 29 22 15 15 38 60 70 71 72 74 74 70 67 67 69 77 81 85 85 84 80 77 77 74 75 73 82 80 82 82 86 87 83 69 73 76 73 72 73 76
88 79 81 77 64 58 54 50 48 45 42 40 35 32 32 31 20 18 20 48 63 77 74 78 77 73 73 74 73 77 85 84 85 84 85 84 85 82 78 81 75 77 71 71 72 72 65 66 69 69 67 69 69 75
88 80 80 79 71 61 56 54 48 46 45 43 36 38 39 35 33 21 20 29 66 81 83 85 79 74 74 77 79 85 82 84 82 87 89 92 90 85 86 79 79 74 71 73 69 68 68 67 68 67 66 67 68 74
91 90 88 82 76 66 58 59 51 47 47 43 37 38 39 36 37 33 22 26 66 93 92 92 85 80 76 79 81 82 82 83 84 93 92 91 92 86 85 83 80 79 78 74 72 67 65 66 66 67 66 67 72 76
97 91 88 87 84 68 61 64 55 48 48 41 39 42 39 36 38 35 27 27 52 96 97 95 85 83 84 84 84 84 82 80 87 92 90 91 90 90 84 81 75 71 73 76 76 67 66 64 66 69 68 69 73 76
97 95 97 96 86 73 62 63 57 50 48 41 41 50 45 40 36 36 44 32 74 96 98 98 93 89 87 88 89 89 87 82 89 92 89 88 89 90 87 82 72 69 68 67 67 65 66 64 65 71 72 72 75 74
96 96 97 95 93 76 65 68 57 53 48 39 46 48 43 49 54 53 42 58 95 98 98 99 97 94 96 92 92 90 88 90 87 90 89 89 90 92 87 85 72 68 71 70 70 69 69 68 69 75 75 76 77 77
95 97 95 94 96 80 69 69 55 52 44 39 46 44 47 47 46 39 37 93 98 98 99 97 94 93 94 95 94 89 87 89 89 89 91 91 91 92 87 79 78 75 71 70 70 71 73 72 72 78 80 81 79 80
93 91 94 94 97 83 69 65 54 50 34 39 40 45 40 37 35 48 91 97 98 98 98 95 93 92 88 90 89 91 90 90 89 91 88 87 90 96 87 87 88 87 84 80 75 73 71 73 75 79 81 83 81 82
89 90 91 93 97 85 68 62 54 39 37 37 36 42 34 45 69 94 97 98 98 98 98 97 90 89 86 86 85 91 90 90 88 83 86 89 88 89 91 90 89 87 87 84 82 79 76 76 76 77 81 83 84 88
90 90 91 94 97 78 68 62 47 37 36 40 38 36 43 66 91 98 98 98 96 96 95 95 91 87 83 84 86 85 88 88 85 84 83 90 87 90 86 82 76 78 79 84 83 84 83 80 80 80 80 82 85 84
93 92 93 95 97 82 69 59 49 39 34 49 59 69 72 81 90 93 93 91 90 92 91 92 87 87 85 83 82 83 85 84 83 81 82 83 83 78 67 68 72 81 85 82 80 79 81 84 85 84 83 83 83 89
91 92 93 95 97 80 69 60 49 40 33 55 62 73 77 77 81 82 83 85 88 88 91 87 89 86 83 82 83 81 82 80 76 81 78 77 75 65 63 66 75 82 90 87 80 80 81 90 93 91 87 85 89 90
95 93 94 96 97 81 69 61 51 43 33 49 66 70 78 73 74 76 78 82 85 90 90 88 85 84 80 81 81 81 82 81 80 81 80 78 66 65 65 65 74 85 89 86 84 78 81 91 94 91 87 93 90 85
95 96 97 97 97 94 73 60 53 50 40 45 62 69 71 72 74 76 77 80 81 83 84 85 85 82 82 83 79 82 82 79 76 79 82 73 67 65 65 63 64 80 89 89 81 80 82 83 88 92 91 87 83 81
97 97 96 97 97 93 71 63 56 55 53 41 52 62 67 73 71 70 76 80 80 82 85 87 90 88 87 82 80 78 77 76 80 78 76 72 68 68 68 66 65 63 72 84 87 83 82 81 80 81 83 83 82 77
96 96 97 97 94 89 75 66 64 63 59 49 41 48 59 71 75 69 70 77 80 83 85 89 90 90 88 86 80 78 76 79 76 77 78 77 76 70 67 64 65 66 66 66 71 78 80 81 82 83 83 83 81 79
95 96 97 97 97 89 75 66 68 68 65 53 47 40 47 56 61 65 65 66 72 81 83 85 85 88 87 83 78 79 78 76 77 78 75 73 74 75 74 69 65 64 64 65 66 68 71 72 74 78 81 82 81 81
96 97 97 98 96 88 76 76 75 74 70 61 52 47 46 47 46 45 48 56 62 65 75 81 84 80 78 76 77 77 77 77 75 75 74 73 72 69 69 71 70 68 67 65 64 66 69 71 74 75 76 76 78 80
98 98 98 97 96 87 78 77 75 74 72 66 56 51 44 38 33 28 24 23 25 27 36 49 58 67 72 77 77 75 71 70 68 68 68 69 67 67 67 67 66 67 67 67 69 70 71 71 72 75 77 79 76 75
97 98 98 98 97 92 83 80 78 78 74 70 66 55 47 42 41 39 39 38 40 36 33 30 31 28 26 31 32 32 32 34 36 39 43 46 52 58 60 64 67 69 67 67 66 69 74 76 77 78 76 80 80 77
97 98 98 97 97 93 88 84 83 82 80 75 69 63 55 52 48 45 43 44 43 39 36 34 31 30 29 26 22 20 17 16 15 16 16 19 21 25 34 47 58 64 69 69 67 69 73 75 77 80 79 79 83 78
98 98 98 98 97 92 88 85 85 84 85 80 75 69 62 57 53 49 48 47 42 37 34 30 28 27 26 24 23 21 20 21 21 21 20 20 20 21 24 25 31 47 61 71 72 70 74 76 77 80 83 81 79 80
97 98 97 97 95 90 82 84 85 87 85 81 74 67 63 60 57 55 53 47 41 35 32 30 29 28 26 25 23 19 16 15 15 15 16 17 17 18 22 23 26 31 42 62 76 81 79 78 81 79 78 83 83 86
98 97 96 94 91 88 82 83 86 86 83 80 75 66 64 60 58 57 55 48 45 36 28 25 25 25 25 23 18 16 16 16 16 16 17 21 21 18 16 19 23 28 36 50 71 83 87 85 86 86 82 81 83 88
96 96 94 92 85 83 81 83 85 83 80 77 73 67 64 62 64 59 53 42 32 25 23 22 22 23 23 22 20 18 18 18 19 20 21 25 26 25 24 23 24 27 36 43 58 79 88 94 96 91 88 87 84 90
94 91 91 85 83 79 78 77 76 76 75 73 72 69 66 68 65 53 39 33 28 25 24 24 24 24 22 21 21 21 21 21 24 28 30 32 33 33 30 25 21 27 36 45 53 72 86 96 98 98 93 91 91 95
87 88 89 88 84 79 78 77 74 72 71 67 67 70 68 62 53 43 39 32 26 25 26 27 25 23 22 22 21 21 23 31 36 37 38 38 40 41 36 30 28 32 39 48 53 68 93 97 97 98 98 96 97 97
85 85 87 92 89 85 81 77 74 68 69 67 71 69 63 55 48 41 34 29 27 27 25 24 23 23 21 21 25 33 39 43 44 45 47 47 46 47 43 36 37 41 48 55 56 70 92 97 97 97 98 98 98 98
88 86 89 90 88 85 83 79 77 72 68 66 65 59 54 48 42 36 33 31 29 26 25 23 22 22 25 31 36 41 49 52 52 55 57 56 55 49 43 42 46 53 57 61 64 76 92 96 96 97 97 97 97 97
88 89 89 87 89 88 87 82 76 73 72 68 61 56 52 46 38 34 32 29 26 24 23 23 25 31 36 41 43 45 48 55 56 60 65 64 57 49 47 51 58 64 67 70 76 87 91 95 97 97 97 98 98 96
93 92 92 92 92 91 87 81 79 78 74 66 61 55 49 44 39 34 29 26 25 25 24 26 33 39 42 46 50 53 56 60 68 75 75 72 64 58 57 64 70 74 76 81 88 92 97 97 97 97 97 97 97 94
94 92 91 93 93 89 85 83 81 73 65 60 55 51 47 44 42 34 29 27 27 27 29 34 38 42 47 50 53 58 64 70 76 81 84 77 66 68 74 75 81 82 92 97 97 97 97 97 97 97 97 97 97 97

GFSWCAN_prec_cthk_021.txt.gz
RH
88 95 94 90 79 72 70 63 68 51 47 47 46 45 43 43 41 25 20 23 38 56 61 66 70 72 71 68 71 73 74 77 81 81 77 73 71 70 70 72 83 85 89 89 86 89 83 69 72 76 70 68 69 70
96 95 96 88 86 82 76 67 71 57 53 53 50 45 46 41 38 36 25 27 30 36 47 67 70 74 72 77 78 76 78 79 80 82 78 78 77 77 76 79 75 81 79 82 75 71 66 67 68 69 68 66 67 69
96 97 95 93 95 90 82 74 69 65 57 54 52 49 52 49 43 39 34 29 35 30 30 62 70 79 78 77 80 81 79 83 83 79 84 86 85 78 79 79 76 76 77 78 76 66 70 69 70 70 66 65 65 70
97 97 96 97 97 93 84 76 67 71 64 57 54 50 53 50 50 49 41 36 34 38 40 72 85 84 82 78 81 81 84 87 86 85 90 91 88 84 79 79 79 77 80 82 77 73 71 71 69 66 67 67 68 72
97 97 97 97 97 97 94 83 68 76 67 58 55 51 55 59 53 44 43 36 32 41 59 86 98 97 86 78 80 84 86 88 89 86 91 89 86 85 81 80 80 72 73 77 78 77 76 74 70 68 69 70 70 73
97 97 97 98 98 97 97 83 70 74 63 56 54 59 55 51 53 54 51 38 37 40 76 97 99 98 90 83 84 86 90 91 88 87 91 90 86 87 84 85 76 70 75 75 73 72 70 69 68 70 73 72 73 76
97 97 97 97 97 95 93 86 72 72 59 57 52 55 51 47 49 57 52 53 54 92 97 98 99 99 92 93 94 95 95 94 90 85 88 90 89 88 85 84 76 78 76 75 76 74 74 74 73 73 74 76 76 79
97 97 97 97 95 93 93 82 69 62 59 49 54 44 42 45 39 46 45 65 90 97 97 98 99 97 93 96 96 96 97 95 93 92 90 92 89 89 89 89 89 89 85 82 80 79 78 76 75 75 74 81 82 84
97 97 97 93 91 91 93 82 69 59 49 47 40 40 39 41 53 68 84 92 96 98 98 98 95 97 96 97 98 97 95 94 92 95 91 90 89 93 92 94 93 90 87 84 82 82 79 77 76 75 76 81 83 88
97 98 97 93 90 89 89 77 69 56 43 50 44 48 57 71 82 92 97 98 98 98 98 99 97 96 95 96 96 95 96 98 97 94 89 90 87 89 88 87 86 82 80 79 82 82 81 79 77 76 77 80 84 91
96 96 95 93 88 89 89 76 68 55 40 49 57 54 67 72 83 89 92 94 96 98 98 98 95 94 94 94 94 94 94 95 95 90 86 85 87 85 85 76 72 77 79 81 83 83 87 87 85 83 82 82 82 88
97 94 95 94 92 89 87 80 68 57 41 48 56 60 80 81 82 83 86 88 92 94 94 95 94 92 90 88 88 88 90 91 90 86 87 83 84 80 71 71 70 78 85 89 86 83 84 84 86 87 87 85 83 86
96 94 95 94 94 93 91 78 71 59 45 50 64 64 80 81 80 80 80 81 84 88 90 92 92 90 88 87 86 86 84 84 79 83 81 84 80 71 70 71 76 84 91 94 91 90 89 89 88 91 91 91 86 87
91 91 90 93 96 95 94 86 68 61 55 48 66 71 76 76 73 74 78 79 82 84 86 87 89 90 87 86 85 80 79 81 83 86 84 86 75 75 75 71 74 89 93 95 94 93 88 91 95 97 96 92 89 93
78 86 92 95 97 96 95 90 71 63 61 50 57 70 77 76 74 74 73 77 81 83 86 87 87 86 86 85 81 81 83 81 77 81 86 85 78 77 76 75 73 75 89 92 95 88 86 90 96 97 97 95 95 97
69 78 95 97 97 97 97 88 76 71 66 64 52 56 70 77 78 75 75 79 81 82 84 88 88 88 86 82 83 78 76 75 80 80 80 79 78 77 75 73 73 74 73 77 87 90 88 88 88 90 93 95 95 93
63 66 89 97 96 96 97 91 80 80 77 72 60 46 46 71 79 74 75 77 79 83 86 87 87 84 86 86 81 77 80 82 82 81 78 77 78 79 79 77 74 70 70 72 73 73 78 85 86 87 88 89 89 89
59 68 75 88 97 97 95 89 81 79 81 79 68 55 43 43 61 72 73 76 77 80 83 84 85 86 85 82 81 84 86 84 82 81 77 76 76 73 72 73 74 73 71 68 69 70 71 73 75 78 80 83 84 86
60 70 71 82 94 95 87 83 82 78 77 84 77 65 54 46 47 53 58 61 64 72 79 80 82 74 73 73 74 76 78 77 77 75 73 70 71 67 65 64 67 66 67 70 69 68 68 70 72 73 76 78 81 81
66 70 71 81 94 94 87 84 82 84 80 81 84 77 66 57 52 47 43 44 46 46 48 53 58 61 63 65 67 67 68 68 66 61 57 55 53 53 53 55 57 59 62 64 65 65 68 71 73 72 72 74 75 78
67 70 75 88 97 95 89 85 81 82 83 82 85 83 73 62 49 43 39 35 36 34 31 27 28 30 36 39 35 28 23 20 19 22 25 28 27 28 29 31 34 38 46 53 61 63 66 66 69 72 75 75 76 76
73 78 82 92 96 94 92 90 86 83 85 86 83 81 72 64 56 50 49 49 44 39 37 37 36 36 35 33 31 26 23 21 19 18 18 16 14 13 13 15 16 18 23 34 47 58 63 66 66 69 73 73 75 76
87 88 87 95 97 96 89 87 86 88 92 87 86 85 79 75 71 66 59 53 47 40 38 40 38 34 31 28 25 24 22 21 19 17 16 16 17 17 17 16 17 17 17 19 27 35 53 64 67 69 72 76 77 75
95 93 91 97 96 92 86 84 85 90 91 93 89 86 83 78 73 67 62 56 48 44 43 41 39 37 33 29 25 25 22 18 18 17 17 17 16 16 18 18 17 16 16 19 24 30 37 47 61 71 76 75 77 80
98 97 95 93 90 87 84 84 87 90 92 90 91 83 78 75 72 68 63 55 48 47 45 42 36 32 30 26 24 23 21 19 19 17 16 18 18 18 18 19 20 20 19 18 21 27 34 43 52 63 72 78 82 85
97 93 90 85 85 84 82 83 85 89 91 92 87 80 77 76 73 65 59 51 47 44 36 30 28 25 22 21 21 20 22 21 20 19 17 19 20 24 24 24 22 21 25 24 22 26 32 39 47 58 69 78 85 90
93 87 86 84 82 81 81 79 84 90 91 88 80 80 77 75 69 60 51 46 42 40 39 34 27 24 22 22 22 23 23 22 21 20 21 25 28 31 32 30 27 27 29 27 23 24 31 38 44 53 68 78 84 95
84 82 84 85 83 82 86 88 86 85 81 74 72 75 74 67 62 53 48 47 45 43 37 28 26 25 25 23 23 23 22 22 25 29 30 31 34 37 38 36 34 35 35 34 30 27 32 38 45 54 64 79 87 96
82 82 83 87 86 90 88 83 80 73 71 71 73 74 71 65 61 54 51 47 43 37 32 29 26 24 23 24 23 23 26 33 35 35 35 33 35 41 46 43 43 44 44 42 37 34 39 45 49 53 63 82 91 97
84 83 84 85 91 94 88 84 83 81 78 74 73 71 66 62 57 52 48 44 38 34 31 27 25 24 23 23 24 31 38 40 40 39 38 38 42 47 51 51 53 55 52 44 40 43 49 54 54 54 62 77 94 97
83 84 83 84 89 90 90 87 86 84 82 78 73 67 66 61 55 51 46 42 36 31 27 25 25 24 25 29 32 34 36 40 41 43 45 49 54 61 64 65 67 57 45 45 51 57 61 60 59 63 74 88 97 97
84 86 88 90 92 91 92 90 89 87 84 77 74 71 65 59 52 44 37 34 30 26 26 25 26 30 32 35 37 38 38 40 44 48 52 62 70 75 75 74 66 52 54 65 68 69 69 69 69 79 85 96 97 97
90 90 91 93 95 95 93 92 90 85 81 78 73 65 60 54 49 41 36 32 29 28 27 27 30 33 36 38 39 41 44 48 52 59 70 79 84 83 78 68 60 66 70 74 77 76 75 76 86 94 98 97 97 97

GFSWCAN_prec_cthk_024.txt.gz
RH
66 77 84 88 97 96 92 85 79 73 63 61 54 56 55 60 60 56 45 37 33 34 27 49 61 65 64 62 67 65 67 70 74 79 78 75 72 70 70 69 74 79 85 92 94 87 88 74 78 79 72 70 68 69
79 84 91 92 96 96 96 93 84 77 78 70 60 58 56 57 54 53 53 51 47 42 25 26 49 61 67 72 73 74 69 70 70 77 78 79 78 77 76 76 72 82 78 84 82 75 66 69 69 68 71 68 67 67
89 96 97 97 97 97 97 96 92 80 80 76 68 60 59 54 58 58 55 53 50 44 30 25 20 57 68 73 81 82 74 75 77 75 80 85 82 78 81 77 76 75 78 82 84 71 70 70 70 70 70 67 68 68
98 97 96 97 97 97 97 97 93 85 77 78 73 61 58 55 62 68 63 53 56 48 41 22 32 55 73 82 85 86 84 80 81 80 82 88 88 86 84 81 84 79 78 79 82 76 73 73 70 69 67 67 68 71
98 97 98 97 97 97 97 97 93 86 78 81 67 60 62 68 62 56 55 53 51 54 42 33 28 51 83 91 93 92 88 86 88 88 87 90 91 90 88 84 85 75 72 74 73 73 74 74 75 71 68 68 69 71
97 97 98 97 97 97 97 97 97 86 75 71 62 58 63 55 52 49 50 55 48 43 47 43 61 74 98 99 97 94 92 89 92 89 88 87 92 88 89 87 79 74 74 71 73 74 71 71 74 71 67 71 73 72
97 97 97 97 97 97 97 96 94 81 72 64 57 60 49 47 44 43 47 49 56 59 75 96 96 98 99 98 96 89 91 96 94 92 88 89 89 89 88 85 81 82 84 83 79 77 77 76 74 73 72 73 76 74
97 97 97 97 97 97 97 95 92 80 67 56 53 45 42 36 34 43 54 69 85 96 98 97 97 99 99 97 97 95 97 97 97 94 93 91 89 88 85 80 85 86 85 85 85 83 80 79 77 77 75 76 75 78
97 97 97 97 97 97 93 92 83 72 58 47 56 49 49 59 69 76 82 88 93 96 96 97 99 99 97 95 98 97 99 99 96 95 94 90 87 88 82 81 82 85 83 80 82 84 84 81 80 80 77 76 76 79
96 97 97 97 97 97 96 95 83 65 52 48 62 59 62 71 70 76 86 93 96 97 98 98 98 94 94 94 96 97 97 98 98 97 95 94 87 84 83 81 80 79 82 77 79 77 80 82 82 81 79 77 77 79
96 95 96 97 95 95 95 94 88 62 49 48 64 66 66 69 71 76 78 88 94 96 98 97 98 97 97 96 98 97 98 98 97 96 96 93 87 82 84 81 73 71 76 82 89 86 83 84 85 84 82 80 79 81
97 98 96 96 96 95 93 95 89 68 54 48 58 67 71 77 77 76 79 83 90 94 97 99 98 98 98 96 94 95 94 96 96 96 94 87 85 84 74 70 71 78 78 87 90 90 86 84 87 87 86 88 86 85
97 97 98 98 96 95 95 95 89 72 56 53 65 70 75 81 80 80 82 85 89 91 94 96 97 97 95 92 89 90 91 90 88 92 86 83 83 75 74 72 72 84 90 94 93 93 90 89 89 87 88 90 91 90
75 83 93 97 95 94 94 94 93 74 63 62 67 74 72 81 75 77 81 81 84 87 91 94 97 96 94 93 93 89 86 83 85 84 80 82 79 75 76 76 73 83 93 96 98 96 93 94 93 93 96 94 93 92
58 61 71 86 95 93 92 92 92 80 70 67 69 76 73 73 78 76 76 79 83 86 90 92 95 95 95 93 89 87 85 83 79 76 83 85 78 80 79 77 75 75 77 83 91 94 90 91 93 97 98 98 97 96
55 56 62 66 81 95 98 97 93 84 82 75 75 70 67 74 78 77 79 79 81 83 88 92 95 94 93 88 87 83 79 73 74 75 78 79 77 80 79 77 75 73 75 75 77 85 88 89 92 95 97 98 98 97
58 57 63 63 66 80 97 97 92 88 84 84 83 76 65 49 69 83 81 83 85 86 87 89 89 85 88 87 85 81 79 78 77 77 76 76 76 75 74 74 75 75 74 73 73 73 74 77 82 86 88 93 96 97
57 63 66 65 62 65 83 96 91 90 84 84 89 86 73 57 45 64 82 87 86 87 87 87 86 86 84 80 82 83 85 85 84 82 79 77 74 73 69 67 67 67 68 71 72 72 70 71 73 76 81 83 85 89
51 62 68 69 66 65 73 77 87 88 80 84 88 92 82 72 55 46 59 71 81 85 88 86 84 78 76 76 78 78 79 81 81 80 76 71 67 62 57 56 56 57 59 61 60 63 68 69 69 71 73 76 78 80
50 56 66 69 68 67 70 73 76 82 87 85 87 89 93 88 68 59 56 51 54 60 70 74 72 73 74 72 70 70 70 68 66 63 56 49 46 44 41 38 37 37 37 40 46 52 57 61 62 65 69 73 76 78
58 61 65 69 71 73 71 72 78 78 80 83 86 85 86 85 75 64 64 59 50 42 39 33 32 32 32 30 32 34 37 33 22 17 16 16 17 17 18 19 20 20 22 25 29 35 42 50 57 62 64 66 72 76
61 62 64 70 75 77 72 77 84 82 82 85 86 84 85 84 81 72 62 57 48 36 31 27 26 29 35 36 36 34 29 26 25 23 20 18 15 14 14 14 13 12 12 13 17 21 25 34 44 53 61 65 67 72
64 67 69 69 77 80 73 79 86 85 86 87 87 89 88 86 83 77 68 64 58 50 42 38 35 36 40 39 36 31 27 25 22 19 17 16 16 16 17 17 18 18 18 17 17 15 17 23 29 37 50 63 68 70
65 72 73 75 81 80 71 77 84 85 86 91 91 86 87 87 86 83 77 72 64 50 48 44 44 44 43 41 37 31 31 29 25 20 19 18 17 16 16 16 16 18 20 19 19 18 16 20 27 32 39 48 61 70
76 82 83 76 76 77 76 80 83 85 87 90 97 96 89 86 84 80 75 70 61 57 53 51 49 46 43 37 36 34 32 28 25 22 20 20 19 18 17 17 19 22 24 24 24 22 21 21 24 29 33 42 53 63
81 83 76 67 69 74 74 80 83 85 88 94 97 90 83 83 84 75 69 65 59 55 51 46 41 38 36 33 30 27 26 25 24 22 20 20 19 19 21 23 23 23 29 30 28 27 25 24 24 28 34 36 46 56
81 83 68 62 69 72 78 78 78 83 92 97 94 91 87 88 78 68 62 60 55 49 45 44 44 43 36 30 27 24 23 24 24 22 19 18 20 24 29 31 29 29 31 32 32 31 30 29 27 27 31 38 43 53
81 69 65 76 77 79 81 81 81 87 95 92 84 83 83 73 68 64 62 56 53 51 49 48 45 40 33 29 27 26 25 24 22 20 20 25 30 34 36 35 34 34 34 35 35 35 35 35 33 31 30 37 43 50
71 69 75 82 83 83 82 84 87 88 84 83 82 79 76 70 69 68 64 59 56 53 49 46 39 34 31 29 26 24 23 23 22 24 30 31 32 35 37 36 36 37 39 40 41 42 43 43 43 38 35 39 45 52
75 79 78 83 87 87 87 84 81 83 83 84 79 73 71 71 71 65 58 55 51 47 44 40 37 33 30 26 24 24 23 26 31 34 34 33 34 36 39 40 42 44 48 50 52 54 54 54 52 45 39 42 48 56
81 81 83 86 89 89 87 87 88 90 89 83 80 79 77 73 68 63 60 54 50 46 43 40 34 29 26 24 24 25 29 33 35 37 38 39 40 41 43 48 54 59 64 65 66 66 63 57 49 45 49 54 57 59
86 86 86 89 92 90 90 91 90 89 88 85 84 82 77 71 68 60 50 45 42 39 35 31 28 26 25 26 29 32 33 35 37 39 42 43 45 51 61 69 74 76 77 78 71 59 52 53 57 62 65 64 61 64
91 91 91 91 92 93 95 95 94 89 87 86 83 79 74 71 63 55 46 41 38 34 30 27 26 26 28 32 34 36 38 39 41 43 44 49 58 73 76 76 75 74 70 60 58 67 71 72 69 68 68 66 66 75

GFSWCAN_prec_cthk_027.txt.gz
RH
75 76 73 69 74 85 91 91 95 93 90 89 82 69 67 68 66 67 59 55 52 47 37 35 45 55 60 64 61 61 68 70 74 76 76 74 73 71 74 72 77 77 77 81 88 93 84 74 82 87 80 74 72 68
81 79 82 81 85 90 96 92 95 96 95 90 89 81 73 69 69 72 70 70 68 68 54 45 36 37 52 60 70 70 67 68 66 72 77 79 78 76 73 75 72 76 71 82 81 81 70 73 78 76 72 71 68 67
82 84 87 87 93 95 97 97 97 97 93 87 90 84 76 66 63 63 66 69 68 66 59 57 45 34 38 50 65 71 73 75 74 72 77 80 78 77 80 78 76 75 74 78 83 79 79 75 74 72 70 68 67 67
88 87 92 94 95 96 97 97 97 97 97 93 92 89 82 66 63 69 73 66 61 57 54 37 32 36 43 58 67 71 81 83 83 80 79 80 79 79 80 76 77 77 77 76 78 78 79 77 72 70 70 69 66 66
88 92 93 93 97 97 97 97 97 97 97 94 88 86 69 64 67 59 53 48 50 54 49 39 31 19 20 42 69 82 84 93 89 87 85 83 81 82 84 82 81 73 70 71 72 73 75 74 75 74 71 70 68 69
87 89 95 97 97 97 97 97 97 97 96 85 80 69 55 56 52 48 41 45 51 60 62 48 27 22 27 38 75 91 93 97 93 91 91 86 81 83 86 87 78 71 70 73 74 76 73 74 74 72 72 72 68 69
92 94 96 97 97 97 97 97 97 97 96 80 68 50 52 47 46 51 51 61 72 85 86 86 83 59 38 82 98 99 98 98 91 93 93 90 87 86 87 85 79 77 76 78 77 79 77 73 75 74 73 73 70 71
97 97 97 97 97 97 97 97 97 96 88 69 43 55 55 54 49 56 68 69 82 88 90 97 76 81 86 98 96 99 97 94 95 98 96 91 89 88 85 81 76 76 77 78 78 80 77 77 76 78 76 75 73 74
97 97 97 97 95 97 97 97 97 97 83 54 47 60 66 64 68 70 74 83 85 90 97 97 97 97 96 93 95 95 93 93 94 96 94 92 90 84 78 75 73 73 76 79 77 72 75 80 78 79 79 78 77 76
97 97 97 97 96 95 96 97 97 96 72 44 55 69 71 71 76 81 86 88 89 90 94 97 95 99 97 95 97 95 94 98 98 93 94 90 86 81 79 78 76 75 70 66 73 72 73 76 80 82 82 81 79 78
97 95 96 97 96 95 92 96 97 94 70 51 54 71 72 71 75 82 84 87 89 92 94 97 98 98 97 95 95 94 95 99 97 97 96 92 87 82 82 81 79 71 68 71 74 84 88 86 81 85 87 85 82 79
97 97 98 98 97 96 92 94 96 94 80 59 50 58 72 77 79 79 78 84 89 93 94 98 98 94 98 97 97 98 98 98 96 93 95 88 85 81 80 77 72 71 80 87 90 90 89 91 87 86 87 85 84 84
83 92 96 98 98 97 97 97 95 95 83 68 64 63 80 84 81 80 78 82 89 91 94 97 99 99 98 96 97 97 93 96 94 96 87 83 85 82 74 74 73 82 90 90 91 93 93 93 91 90 88 87 87 86
50 58 73 89 96 96 97 97 96 96 81 76 74 72 75 84 86 83 82 85 86 92 94 96 98 98 97 96 93 89 90 88 86 81 76 76 79 77 75 76 76 77 83 87 95 97 97 99 98 96 95 91 89 89
45 52 53 63 73 82 93 97 97 95 86 78 79 77 79 76 87 84 81 82 85 87 91 94 95 98 96 94 92 90 89 84 77 76 76 80 79 78 79 79 79 77 78 80 87 94 95 94 95 95 95 96 96 98
41 52 55 58 61 67 75 86 90 91 90 86 82 76 73 78 81 81 81 81 84 88 91 94 96 96 96 93 93 89 82 76 74 75 75 79 79 79 80 79 78 78 77 77 78 78 81 87 90 92 96 98 98 98
39 48 59 62 62 62 61 68 78 88 88 82 85 84 85 81 71 72 76 87 88 88 91 92 92 91 94 92 89 84 82 79 77 75 75 73 72 72 72 71 71 73 74 75 76 75 76 75 76 83 87 92 97 98
38 50 61 63 65 64 65 62 68 72 87 86 88 87 90 91 79 62 64 84 90 88 91 90 87 88 85 84 85 81 82 82 79 79 78 78 76 75 73 65 61 60 61 62 62 66 69 70 73 75 77 83 85 89
52 55 61 60 66 71 66 59 59 66 71 80 81 85 91 94 95 81 55 64 86 92 90 89 87 79 77 77 81 80 80 79 80 82 83 81 76 72 64 58 54 48 44 44 46 48 51 55 59 64 70 73 77 82
62 60 62 65 64 67 68 60 56 56 66 74 81 88 90 90 92 93 76 55 59 74 87 85 77 75 77 76 74 73 71 71 71 70 68 64 56 48 43 39 36 34 32 31 30 32 35 39 44 50 58 62 64 68
64 63 66 71 71 69 68 62 58 54 61 69 77 83 88 91 90 91 82 68 64 52 44 42 54 65 66 63 60 56 55 53 48 43 34 29 27 23 18 16 14 14 13 14 15 17 21 24 29 36 43 52 60 63
58 58 66 79 77 73 66 62 61 58 64 71 80 83 84 87 88 87 89 86 74 59 48 33 27 25 20 18 22 26 29 27 25 25 26 24 21 19 17 15 13 13 14 14 15 14 12 12 15 20 28 37 47 58
57 62 68 76 79 74 65 59 59 62 72 74 84 85 85 86 88 89 86 80 71 61 50 47 40 32 30 32 35 37 37 33 30 29 26 21 18 18 18 17 17 16 15 15 17 18 18 17 16 16 21 25 33 41
56 63 67 74 74 72 63 60 57 59 68 83 87 84 82 86 88 85 81 74 71 70 67 62 54 48 48 45 42 40 39 36 32 28 26 24 23 22 20 18 17 16 16 17 18 18 18 19 19 19 20 24 30 36
71 79 80 74 70 68 62 58 55 59 74 83 89 91 91 89 88 83 77 71 69 68 66 61 56 56 52 49 46 43 39 35 33 32 31 28 26 23 21 20 18 18 20 23 23 22 22 22 22 22 22 23 27 34
70 74 78 76 68 62 59 55 55 59 81 86 89 92 91 89 86 77 70 66 67 66 63 58 56 57 54 47 43 40 39 37 34 31 28 28 27 25 22 20 20 21 24 25 26 27 27 27 26 26 25 27 26 29
59 58 70 71 67 59 54 52 52 63 81 86 90 96 95 93 84 72 65 66 64 61 58 55 53 52 51 49 45 40 35 31 30 30 28 27 25 22 21 23 25 27 27 28 29 30 31 30 30 31 30 29 30 29
48 49 50 55 67 65 60 58 59 70 80 87 92 91 91 87 74 66 69 68 65 60 58 58 59 58 55 48 43 38 34 32 31 30 27 24 21 22 27 29 29 29 29 30 30 31 32 33 34 34 34 33 32 33
52 46 48 54 62 64 59 53 57 69 79 88 92 89 87 79 75 73 71 69 67 66 64 61 59 53 48 44 40 35 32 30 29 26 23 23 26 28 30 31 32 32 33 33 34 35 36 39 39 40 40 39 38 39
48 46 48 47 62 62 54 51 65 77 81 84 86 85 84 81 78 71 69 69 68 64 61 56 50 47 43 40 38 34 30 27 26 28 29 29 29 30 32 33 35 36 37 37 39 42 46 47 48 48 49 48 48 46
72 55 50 55 61 64 64 72 80 81 82 84 84 86 87 85 82 81 78 76 71 66 58 51 46 44 43 40 33 28 27 29 30 30 30 30 32 34 37 39 41 42 44 50 56 60 62 62 63 63 63 61 60 56
76 76 75 70 75 82 85 87 87 85 85 86 87 86 86 84 80 77 74 69 62 53 47 44 44 42 35 30 28 28 29 30 31 32 34 36 38 39 41 44 47 54 62 66 66 68 73 75 74 72 71 69 65 60
98 95 94 94 93 93 92 94 95 94 90 89 87 86 85 82 78 73 68 62 56 46 42 38 35 31 28 29 29 30 31 32 35 38 40 41 41 43 49 57 69 76 73 71 65 63 61 61 62 61 60 62 65 65

GFSWCAN_prec_cthk_030.txt.gz
RH
75 69 71 76 77 78 80 80 83 89 96 92 94 97 92 93 82 67 65 64 62 59 52 50 49 49 58 63 68 64 66 67 69 74 76 74 73 71 72 69 73 72 77 76 72 78 85 68 81 89 86 81 81 74
77 77 81 82 82 82 86 87 96 97 98 96 97 97 97 96 85 78 82 81 79 80 72 67 61 55 45 58 66 68 67 60 63 69 71 76 78 76 73 77 71 75 67 73 68 67 67 74 79 84 84 84 80 71
80 86 84 86 84 84 91 95 97 97 98 97 95 96 97 96 94 79 75 75 77 76 70 64 57 58 55 50 59 72 72 72 66 66 73 76 76 77 80 77 74 70 70 70 70 69 73 77 79 77 82 79 75 70
94 92 89 88 86 91 95 95 97 97 97 98 97 96 97 96 85 74 77 70 60 53 51 34 29 25 36 53 51 64 77 77 78 76 74 75 74 73 77 76 78 75 75 72 69 71 73 77 80 80 76 74 73 71
96 95 92 92 91 94 96 96 97 97 98 97 97 90 95 85 69 61 52 46 50 54 55 53 53 40 31 32 52 59 79 81 81 86 80 78 77 76 78 78 78 74 71 71 70 68 72 74 75 80 78 75 74 72
96 95 94 95 96 97 97 97 97 97 97 97 94 89 75 57 50 47 43 51 56 65 70 71 62 62 34 28 32 47 77 94 91 86 82 77 75 75 77 74 75 75 74 71 70 70 68 70 74 75 74 72 71 72
98 96 91 98 98 97 97 97 97 97 97 97 94 72 47 52 55 55 56 58 66 69 76 71 78 74 44 30 34 43 79 97 92 91 83 81 80 77 76 73 78 78 76 73 70 69 72 75 75 73 75 75 73 75
95 98 94 98 98 98 97 97 97 97 97 96 76 43 60 62 62 65 66 75 78 77 76 81 78 70 49 48 52 87 97 97 98 98 88 85 84 80 74 73 77 78 77 74 72 73 73 71 70 71 74 78 78 78
95 96 96 98 98 98 98 97 97 97 97 93 56 51 69 73 75 78 81 84 88 87 82 83 91 93 97 88 92 98 98 90 97 94 89 86 85 77 72 77 77 75 72 70 68 68 66 65 67 70 73 74 78 80
91 95 96 96 98 98 95 96 97 97 96 84 54 63 74 75 78 79 86 88 89 91 89 88 88 93 96 97 96 87 86 90 84 85 88 86 78 77 77 77 75 73 72 70 66 60 63 68 69 70 76 78 81 84
98 98 98 97 98 97 95 97 96 96 95 80 57 54 71 75 74 81 82 88 91 91 92 93 96 90 95 90 94 94 94 94 90 89 93 87 81 83 81 81 79 76 74 69 72 74 72 78 82 83 76 83 86 88
75 92 99 98 98 98 97 96 96 96 96 93 73 59 54 72 80 82 80 84 92 96 94 96 98 98 97 94 92 91 94 93 92 92 94 85 82 86 84 79 75 74 75 83 83 82 82 85 87 89 87 86 90 90
45 57 72 90 98 97 96 95 94 94 95 90 85 81 72 77 85 80 78 82 86 95 96 96 97 99 98 96 97 98 96 96 93 95 90 84 86 84 82 79 75 77 85 84 86 90 93 93 93 95 94 92 89 88
42 49 51 57 62 71 81 90 92 93 90 84 81 82 85 83 88 88 84 86 87 90 97 98 98 99 99 98 97 96 95 93 92 88 81 81 84 88 83 79 76 76 78 84 90 97 98 99 98 99 99 98 96 92
44 47 53 56 60 62 63 69 76 83 89 85 84 84 85 85 85 88 90 84 85 88 93 98 98 98 98 98 95 95 93 90 85 79 80 81 81 82 78 80 79 81 80 80 83 86 90 92 94 95 96 94 93 90
37 41 53 59 61 63 63 61 59 63 71 83 86 85 81 81 78 79 78 82 87 89 91 94 97 98 98 97 95 92 87 83 76 78 78 80 82 81 81 81 80 80 79 80 81 81 81 82 82 83 87 90 92 94
33 42 49 56 60 67 65 61 57 51 55 62 78 86 86 86 87 86 82 78 85 94 94 95 94 93 95 96 92 89 87 83 81 78 76 79 78 76 78 76 74 72 71 71 72 72 73 73 75 79 80 82 89 93
38 43 51 56 62 66 67 64 58 54 55 58 65 78 88 90 93 96 95 78 82 92 95 94 90 91 89 90 90 86 84 83 78 78 77 80 79 78 77 72 69 65 60 56 54 54 56 57 57 63 68 74 76 82
31 46 60 65 66 72 73 66 57 51 48 53 59 65 77 84 90 94 95 93 79 84 95 94 91 83 79 80 83 83 82 81 80 80 83 83 82 80 77 72 64 58 52 46 42 38 37 37 39 42 48 54 63 71
40 41 48 64 75 71 73 70 57 49 45 48 58 64 71 80 87 95 97 97 95 71 76 87 78 77 81 82 82 81 80 78 76 76 75 74 71 65 58 52 47 42 36 32 29 26 24 23 25 28 32 37 44 54
48 53 52 59 77 84 76 73 61 51 45 46 48 57 63 72 80 87 95 97 95 90 64 43 57 78 86 84 80 73 69 70 68 64 58 52 44 37 35 32 26 25 22 17 14 12 12 12 11 11 16 25 30 36
58 62 60 64 75 77 71 72 67 54 49 46 48 60 62 66 77 82 86 91 87 80 80 59 43 37 43 56 63 62 56 55 48 42 35 27 26 24 22 20 19 18 17 15 14 15 15 15 15 16 14 13 17 24
68 71 75 72 66 70 72 73 71 62 58 50 49 57 61 64 72 78 82 81 78 77 78 77 57 40 33 28 23 21 25 27 27 27 27 27 25 22 22 22 21 20 18 17 17 17 18 18 19 18 17 17 18 21
68 71 76 79 70 68 67 69 66 62 59 58 57 57 57 62 72 77 77 74 73 74 73 74 70 64 60 53 45 40 38 38 37 34 34 32 29 27 26 25 25 24 23 21 20 20 20 20 20 21 21 20 19 20
76 78 75 68 67 69 71 69 66 61 57 56 58 58 65 72 76 76 75 74 71 68 71 71 72 70 69 60 56 51 51 49 45 40 38 35 32 30 28 28 27 26 24 24 25 24 24 24 24 23 24 24 23 22
83 72 68 57 58 58 60 63 66 63 58 57 56 58 68 74 77 74 72 70 70 70 68 67 68 67 64 60 59 58 55 50 47 42 38 36 34 33 31 29 27 24 25 27 29 28 27 27 27 27 26 26 26 25
73 60 57 55 52 51 50 49 53 62 62 56 55 63 75 85 77 75 71 64 65 64 62 61 61 58 57 58 58 57 53 50 47 42 38 36 34 32 31 30 27 26 28 29 28 27 27 27 27 27 28 28 28 29
64 56 52 51 54 53 54 51 52 56 59 59 58 65 78 85 80 72 76 72 73 70 65 62 62 63 66 66 64 60 57 52 48 44 40 36 32 30 29 28 29 31 31 29 28 28 28 29 29 30 31 31 31 33
54 48 48 53 54 54 48 45 45 45 50 59 63 58 68 75 77 78 82 82 74 73 70 69 68 67 65 63 61 58 54 49 42 37 32 29 27 28 31 33 33 32 32 31 31 31 32 33 35 36 38 38 39 39
54 55 57 58 56 49 40 40 36 40 47 55 54 54 68 76 81 82 84 84 81 73 70 70 69 68 63 59 55 51 44 41 37 32 30 30 32 32 32 33 32 33 33 33 34 36 39 40 42 44 47 48 49 48
60 62 66 69 68 56 48 46 40 35 39 44 54 61 75 79 78 81 85 86 87 85 81 78 74 66 59 52 46 43 44 38 33 31 32 32 32 33 34 34 35 36 39 41 42 44 47 51 54 57 58 59 60 60
77 86 90 86 79 73 59 50 43 42 50 56 60 73 78 78 76 79 78 81 79 78 75 71 61 53 48 48 48 43 34 32 32 33 32 32 34 36 37 37 40 45 47 49 51 58 63 63 64 67 69 69 71 74
82 89 95 97 88 76 65 60 65 65 64 68 79 83 82 81 79 76 77 77 75 73 70 61 52 45 41 37 34 33 33 33 31 32 34 36 38 41 45 47 49 53 60 68 77 77 74 69 59 55 58 61 64 68

GFSWCAN_prec_cthk_033.txt.gz
RH
65 73 78 76 82 82 84 83 81 85 90 97 98 97 95 97 97 95 87 81 72 68 64 63 60 56 52 62 71 70 73 71 69 69 68 68 69 68 71 71 70 70 75 73 70 75 69 57 73 86 89 85 85 81
72 80 84 89 88 87 83 86 89 92 94 98 97 98 97 95 96 94 94 87 87 87 76 72 76 78 73 62 65 74 76 72 71 71 67 65 69 70 69 75 72 74 66 70 66 65 59 61 75 79 84 86 85 82
61 73 86 91 94 89 87 86 92 95 96 97 97 97 97 97 96 95 89 83 87 88 82 76 58 58 58 63 62 67 81 85 77 72 69 67 67 68 72 72 72 71 69 70 69 62 66 69 71 80 80 84 85 83
68 77 85 87 91 95 90 91 95 97 97 97 97 97 97 97 97 95 84 80 81 74 63 40 38 37 33 29 32 42 66 94 90 86 75 71 66 64 69 67 70 71 74 72 72 69 70 71 74 78 82 81 80 79
73 82 89 92 95 95 95 97 97 97 98 97 98 97 97 93 83 76 69 62 58 56 55 52 49 44 45 49 49 43 38 73 92 93 87 75 68 68 70 69 67 69 72 74 73 70 71 70 70 74 76 80 80 75
66 77 95 96 93 90 95 97 97 97 97 98 97 97 90 70 71 66 61 60 58 62 64 60 52 57 55 57 57 52 48 57 94 99 98 83 67 67 71 69 62 62 66 68 71 71 70 67 69 69 75 75 75 74
61 72 86 94 96 89 90 96 97 97 97 97 97 96 62 65 69 70 66 68 71 73 70 65 64 63 52 45 38 41 49 60 96 98 90 96 83 73 70 68 65 64 67 71 72 71 69 68 70 71 70 72 74 76
63 71 79 86 91 92 89 95 97 97 98 97 97 79 52 73 75 75 81 80 82 83 73 73 73 75 74 59 47 45 56 79 98 98 95 91 84 78 74 66 67 67 66 69 72 72 70 70 69 67 64 66 71 74
53 72 78 87 93 93 89 92 95 97 97 97 94 67 68 79 78 82 84 88 86 90 83 82 81 95 90 74 70 76 83 95 98 98 97 93 87 79 72 72 73 73 75 74 72 68 66 64 62 64 64 64 69 70
45 68 81 84 90 89 85 89 93 95 96 96 86 75 73 78 82 81 87 90 91 92 92 91 90 92 98 95 90 98 95 98 99 97 91 90 83 76 75 77 75 74 74 72 71 67 63 68 66 67 69 66 70 74
38 47 62 78 84 85 90 90 91 92 94 96 93 78 67 59 70 84 87 91 94 95 95 96 96 95 93 99 98 99 96 94 94 97 89 83 79 78 77 77 77 77 75 73 71 74 75 73 71 72 76 79 73 75
32 37 43 52 71 80 85 87 88 89 90 93 95 93 88 69 82 87 89 88 89 96 98 96 97 96 98 95 93 90 93 91 92 90 88 85 82 82 80 81 78 76 75 78 79 79 81 80 79 79 78 83 83 83
23 31 40 45 45 49 61 70 76 81 84 86 82 87 91 89 90 93 92 92 87 88 98 98 97 97 98 97 95 93 90 90 90 88 83 83 82 80 81 80 78 78 80 83 83 86 90 92 92 91 91 95 96 95
25 27 34 46 49 49 50 53 54 58 67 79 77 81 90 95 98 96 95 93 88 86 89 96 98 98 97 98 95 96 97 95 93 91 84 79 78 82 85 83 81 81 79 81 83 88 94 97 98 97 97 99 98 97
25 25 33 38 43 50 53 56 54 48 45 52 74 85 84 89 88 87 86 87 82 79 84 92 97 98 98 98 96 97 96 94 89 81 77 79 80 81 83 83 82 80 80 81 82 84 85 87 88 88 91 94 94 94
27 33 32 34 38 45 50 50 54 52 45 50 57 65 82 91 89 86 85 88 84 82 90 92 97 98 98 98 98 95 93 91 83 82 79 79 80 83 81 81 80 81 81 79 79 79 78 77 77 78 82 84 89 92
30 33 36 40 41 46 47 52 50 50 49 49 50 55 61 70 85 88 92 93 94 84 94 98 97 97 96 98 96 93 92 90 86 81 79 79 81 79 82 82 82 80 77 73 72 69 66 66 67 67 68 71 76 81
30 31 39 43 47 51 53 54 56 54 54 47 47 51 58 59 63 78 87 94 95 94 89 97 96 95 94 94 95 93 92 91 86 82 81 82 83 82 81 78 76 73 69 64 59 55 51 47 44 43 46 50 55 63
43 38 41 48 54 53 53 48 51 54 52 52 44 44 52 57 59 64 78 89 94 97 93 89 94 92 87 86 88 90 91 89 87 84 84 87 87 86 85 81 76 66 58 53 50 45 41 36 32 29 29 31 34 40
62 53 56 56 58 61 57 51 45 45 48 50 49 43 42 50 56 58 65 77 90 94 94 88 76 70 89 92 91 89 87 85 83 80 79 78 78 75 71 66 58 53 50 47 42 37 30 25 20 17 16 16 19 26
74 75 68 63 63 69 62 59 52 47 51 54 51 44 38 42 51 54 56 64 77 83 83 81 81 73 57 74 87 87 82 77 74 75 75 72 67 60 50 42 37 34 32 27 23 20 17 16 14 13 13 13 13 15
80 74 74 75 76 71 61 58 58 50 50 57 57 53 44 42 45 52 53 59 67 70 75 76 79 79 68 55 55 69 72 71 74 69 67 62 56 43 36 32 28 24 24 23 21 19 18 18 19 19 19 19 18 17
82 76 85 83 79 70 61 57 59 56 57 57 61 57 49 45 43 48 52 52 57 64 73 76 78 80 76 59 43 38 41 48 49 45 44 41 36 33 28 22 21 21 22 24 22 21 20 20 20 20 20 20 19 19
85 87 88 82 74 67 60 58 58 59 62 64 65 59 50 44 47 49 49 55 58 66 70 74 77 78 79 72 52 44 41 34 33 33 33 28 27 29 30 30 30 29 27 25 24 23 25 26 26 26 26 26 25 23
92 84 81 77 76 67 62 59 57 61 64 67 67 62 58 55 54 50 52 59 67 68 71 70 70 76 78 75 73 69 65 59 52 47 43 40 38 36 35 34 33 31 29 28 28 27 27 27 27 26 26 27 28 28
92 80 79 76 69 62 62 62 59 54 55 58 64 66 65 61 54 51 57 59 66 70 68 71 74 72 73 73 70 68 65 64 64 61 52 49 48 45 41 38 36 34 35 34 31 29 29 29 29 29 30 30 28 27
89 77 74 68 68 72 72 65 57 53 52 50 51 62 67 61 53 48 51 62 72 76 75 64 65 67 67 66 66 66 65 63 61 59 56 52 49 46 43 42 40 39 36 32 29 29 29 28 29 30 30 29 29 29
75 67 65 70 77 77 78 71 62 57 53 50 50 53 58 57 51 48 46 61 77 84 81 76 67 67 69 69 67 66 67 66 64 62 59 57 53 50 46 42 39 34 31 32 33 32 32 32 32 32 31 30 30 33
74 74 74 75 76 76 69 63 56 48 46 48 47 41 37 35 37 34 40 61 78 84 91 82 73 71 72 71 69 68 66 64 62 61 57 52 47 41 36 33 33 35 35 34 34 35 35 34 33 33 33 33 34 36
71 72 75 70 68 60 46 48 43 43 44 43 39 35 31 30 36 36 36 58 76 83 87 92 91 80 77 76 72 70 67 63 57 51 48 46 38 34 33 35 35 35 36 35 34 35 36 36 36 38 39 40 43 45
67 74 72 66 59 46 47 50 52 53 53 48 40 37 32 32 29 25 31 59 74 77 82 84 86 88 87 83 78 71 60 54 50 48 45 37 35 35 36 36 36 35 34 35 37 39 41 42 45 47 50 53 55 56
73 70 69 69 59 57 71 75 74 70 65 59 48 40 34 35 34 32 38 65 72 76 81 81 81 80 76 70 60 53 50 49 47 39 35 35 36 36 35 35 39 40 42 44 48 54 60 63 67 69 67 67 66 66
83 81 76 75 72 74 78 90 90 77 64 52 41 39 41 46 41 40 60 69 74 77 78 79 79 76 69 59 49 45 42 38 36 36 35 33 33 36 39 41 43 47 53 61 67 71 73 77 77 79 78 77 71 62

GFSWCAN_prec_cthk_036.txt.gz
RH
44 45 49 54 64 70 72 76 79 77 78 89 93 93 95 96 96 95 96 95 91 91 72 66 59 60 53 54 67 70 73 71 71 71 65 61 58 60 61 60 64 64 67 74 70 70 61 48 63 72 80 83 86 87
44 46 50 58 64 68 71 78 82 80 78 89 93 94 95 96 97 96 95 91 87 87 86 82 76 73 70 66 65 74 83 78 76 74 69 63 59 59 61 65 63 63 56 58 58 57 52 56 57 66 77 85 88 88
43 44 50 58 66 73 77 83 86 81 83 92 93 95 96 96 97 97 97 95 92 86 79 85 82 76 76 79 84 81 77 92 92 88 80 73 66 58 57 60 65 62 60 60 61 55 57 61 66 67 72 80 84 86
46 43 50 59 68 78 84 87 86 87 94 96 94 95 96 97 96 93 93 92 85 83 79 66 59 52 47 44 39 38 48 70 90 99 95 87 73 62 60 56 62 63 65 63 60 59 64 64 66 69 70 76 80 80
49 47 50 61 68 82 92 86 81 86 95 97 96 95 97 98 80 84 76 71 76 84 70 68 59 49 47 47 49 46 45 45 54 77 98 97 86 72 61 60 58 62 63 65 64 65 65 66 67 67 68 71 75 79
48 47 50 60 69 79 91 88 79 82 92 96 96 96 97 83 71 80 81 80 77 71 70 62 53 51 54 55 56 57 55 64 58 64 86 98 94 80 69 61 50 56 60 62 66 71 70 69 66 64 63 66 72 73
44 41 50 59 67 74 80 86 83 81 89 94 94 94 89 65 81 90 87 82 80 76 71 64 62 61 66 64 57 55 57 69 70 70 78 97 98 91 80 59 52 58 60 62 67 73 74 70 68 67 65 65 66 69
39 38 45 58 66 75 85 87 80 79 87 92 94 94 73 70 86 91 88 84 86 82 74 75 75 75 75 75 53 49 53 52 75 79 81 94 98 95 82 62 61 64 64 63 65 69 71 71 68 66 65 63 61 61
35 34 42 47 59 68 80 82 75 76 80 86 93 90 75 81 87 88 87 89 92 91 87 88 85 82 86 89 79 73 55 55 70 84 90 96 96 94 77 68 66 65 66 66 68 68 67 66 66 63 60 58 60 62
31 37 39 39 46 56 72 79 76 74 75 78 84 87 80 75 72 74 89 94 95 94 94 96 94 89 95 94 94 94 85 89 98 92 98 97 96 88 84 75 72 72 72 71 70 68 67 69 70 69 67 63 63 62
30 33 36 42 43 44 49 56 62 67 70 73 79 83 88 91 71 85 94 94 98 97 95 97 98 97 96 96 94 97 97 98 99 98 98 97 91 85 81 76 75 76 76 76 73 74 74 73 72 71 70 69 69 72
27 30 32 38 43 43 45 46 44 45 53 64 73 75 81 85 92 96 96 95 97 96 97 97 97 98 98 98 97 96 98 94 96 95 94 90 83 83 79 78 78 77 77 77 81 79 76 76 78 79 77 75 74 74
25 28 32 34 39 40 41 44 44 41 39 37 47 67 81 92 97 97 96 96 96 94 90 94 96 98 98 99 99 98 98 96 94 93 88 85 86 84 82 81 80 79 79 84 85 85 84 86 90 88 86 85 86 89
28 28 33 34 33 35 36 39 42 41 39 39 39 57 87 95 92 93 93 92 90 85 78 81 94 98 98 99 98 98 96 98 98 93 86 81 80 81 82 84 81 80 83 85 86 86 89 91 94 94 97 96 95 95
32 34 34 36 35 32 33 35 35 38 41 44 47 45 50 74 86 89 89 90 91 92 85 81 90 98 99 98 99 98 98 97 92 85 81 79 78 78 81 83 85 85 83 82 81 84 82 83 83 82 84 86 89 92
34 40 38 38 39 35 35 36 36 35 36 43 47 46 45 51 58 71 81 88 90 90 88 92 92 95 98 99 98 97 94 91 88 85 82 79 81 82 83 82 82 81 78 77 80 79 76 75 74 73 72 74 76 78
41 41 41 39 41 40 40 41 38 36 33 35 41 43 49 45 48 49 58 74 85 91 95 94 97 97 96 98 96 93 92 93 92 89 86 83 80 82 81 83 82 81 82 83 79 75 71 67 63 60 56 54 55 59
46 45 46 42 48 48 44 43 43 40 37 32 36 44 50 49 43 45 49 53 74 87 94 97 95 95 96 95 94 98 96 95 91 88 87 88 86 82 84 82 81 79 77 73 67 63 58 55 50 42 38 36 36 37
46 52 58 57 58 57 52 49 48 45 38 36 36 41 48 51 42 41 45 50 57 75 85 92 95 90 85 86 90 91 94 95 92 90 88 89 91 90 88 86 83 78 71 62 57 54 51 46 41 36 29 23 21 22
51 56 63 69 74 67 62 58 54 49 42 36 35 38 46 50 46 40 41 45 51 58 70 78 79 80 84 86 89 90 95 95 93 89 86 84 85 86 84 78 72 65 57 53 50 46 40 34 27 25 21 18 15 14
59 67 74 76 79 82 76 69 64 59 50 41 37 41 40 51 50 43 38 42 48 54 51 56 63 72 75 77 78 69 78 88 89 87 86 84 82 79 74 65 55 46 41 37 34 32 28 23 19 18 17 17 16 16
72 78 81 78 79 82 77 71 71 66 54 46 42 41 40 47 55 52 45 42 43 45 45 45 58 70 77 80 81 74 61 70 78 78 80 80 78 74 66 56 45 39 36 33 28 22 21 21 22 21 22 22 21 20
78 81 82 80 83 81 74 70 70 71 63 55 48 44 43 47 54 56 53 42 41 43 46 48 56 66 78 80 81 79 74 60 57 64 70 73 67 56 47 41 39 37 34 30 22 22 21 23 24 24 25 24 24 24
87 88 88 84 79 83 79 73 72 71 65 61 60 51 48 55 54 58 52 51 45 46 45 52 66 78 76 82 84 80 72 58 47 48 52 46 42 40 38 34 31 29 26 26 29 29 27 24 24 26 28 29 29 27
85 91 88 86 81 83 84 77 78 73 68 65 59 53 51 59 62 60 57 52 50 50 52 64 71 72 83 78 80 84 80 72 63 55 55 48 43 36 33 32 33 34 35 34 32 30 29 28 29 31 32 32 30 29
89 88 87 74 78 83 83 83 82 78 74 69 63 54 52 53 59 56 55 53 51 45 50 68 72 67 73 76 79 82 80 75 71 69 68 67 62 54 47 44 42 41 40 37 35 36 36 35 36 37 36 33 30 28
95 83 78 80 88 91 92 88 84 82 77 75 64 61 59 57 47 38 49 52 46 35 37 65 85 74 68 76 78 77 75 74 72 70 69 67 64 62 59 56 52 48 45 45 46 43 40 39 40 39 35 33 31 30
79 75 82 88 91 89 89 88 87 82 74 69 68 66 58 48 40 42 37 36 35 30 31 48 79 87 83 73 75 80 74 72 72 71 71 70 68 66 64 62 59 55 51 44 41 39 40 39 37 34 33 33 32 33
78 74 81 87 90 90 86 82 74 70 69 68 65 56 50 41 35 33 28 25 29 30 30 34 61 79 86 90 80 73 76 74 72 72 71 68 62 60 58 54 47 42 40 39 40 40 39 37 36 36 35 35 35 35
76 83 88 88 90 83 71 75 62 60 59 56 53 48 41 34 32 31 28 26 24 24 23 24 46 71 81 84 86 89 84 82 80 76 73 67 60 53 51 48 43 42 42 41 40 39 38 37 37 37 38 38 38 38
86 88 88 84 77 65 65 66 63 59 55 52 50 48 40 38 30 28 28 24 22 20 21 22 49 71 77 82 84 85 85 84 79 71 61 55 52 52 49 43 41 39 39 38 36 36 38 40 42 44 47 50 54 56
73 72 74 76 67 64 67 67 66 62 57 54 51 52 51 50 40 32 27 24 19 21 23 36 60 72 79 82 82 80 75 70 64 56 51 51 48 42 39 39 37 35 36 39 41 43 45 47 55 61 64 67 68 65
75 77 76 78 74 68 69 78 74 68 60 55 53 56 55 51 42 31 23 21 26 32 40 56 69 75 80 82 80 75 66 55 48 46 42 40 38 35 33 35 38 41 43 45 47 49 58 66 73 76 75 69 70 71

GFSWCAN_prec_cthk_039.txt.gz
RH
32 35 37 38 43 47 47 51 57 63 71 71 77 80 86 85 88 90 90 88 92 92 88 84 65 58 46 39 52 62 66 70 71 70 73 62 58 56 56 55 58 63 68 67 63 64 59 43 55 62 63 70 76 81
33 35 37 41 43 47 49 56 62 66 76 78 80 84 92 92 90 93 91 92 93 93 89 83 79 70 71 64 62 61 74 75 80 78 68 64 54 54 52 57 53 58 53 59 57 55 50 49 52 58 64 70 78 83
33 35 36 41 46 48 50 58 68 71 76 76 85 85 89 90 93 93 93 93 91 89 83 84 85 84 83 81 82 82 74 85 96 95 94 87 76 61 57 51 55 55 54 54 55 51 52 54 57 56 59 64 74 82
34 34 37 39 44 46 49 54 69 76 77 74 85 88 91 92 96 93 90 88 83 86 85 78 75 81 80 72 67 64 63 73 79 90 97 96 93 78 67 59 54 54 57 55 54 53 56 55 57 62 64 65 67 74
36 38 40 42 45 47 48 53 64 76 74 74 84 88 90 93 91 79 79 81 89 94 85 82 74 65 62 61 59 56 54 53 54 56 72 86 89 91 85 73 58 52 52 56 56 57 56 56 60 63 65 66 66 67
36 38 40 43 47 46 48 53 57 71 75 73 84 91 93 90 78 82 92 85 92 86 82 70 59 58 58 62 55 49 50 51 57 56 54 65 77 90 87 76 66 50 50 55 58 63 65 64 65 67 66 64 62 63
33 35 38 42 43 44 46 52 64 73 73 74 83 96 97 80 71 89 95 96 92 80 76 72 70 67 66 62 55 52 47 49 56 61 59 58 78 93 88 73 73 61 50 54 58 62 66 68 69 67 65 63 62 61
30 34 36 40 42 40 42 49 54 63 68 73 79 88 94 77 82 90 95 93 94 87 81 82 81 75 76 70 70 64 57 55 53 62 63 65 69 94 96 73 76 68 57 57 59 61 65 70 70 68 65 63 62 62
29 36 39 39 38 33 32 35 42 46 53 63 67 81 89 84 82 82 84 90 96 94 93 91 87 81 83 82 78 84 78 70 63 72 67 81 81 93 96 90 81 73 61 62 63 64 64 64 66 64 65 63 62 60
28 34 41 39 35 30 27 33 36 40 42 44 57 71 79 82 90 82 87 97 98 97 97 94 92 91 89 87 84 86 94 95 85 69 87 96 92 83 92 93 86 79 69 67 68 65 63 63 65 67 65 65 66 65
29 32 37 35 33 27 27 29 32 37 37 37 46 62 72 77 83 95 97 97 98 98 98 97 96 94 96 93 92 92 96 97 97 86 87 93 88 86 94 90 88 82 76 75 72 69 70 71 71 70 70 70 68 67
28 29 33 30 31 27 25 26 29 30 34 40 42 47 70 84 94 98 97 98 98 98 95 92 84 91 97 97 96 97 99 99 98 96 98 96 93 93 91 89 84 79 78 78 77 79 79 78 77 75 75 75 75 75
30 28 30 25 26 27 25 26 27 28 30 34 41 46 56 76 92 94 95 94 94 93 91 87 85 94 97 98 99 99 99 99 96 97 91 88 88 86 84 82 81 81 82 81 84 87 86 83 81 82 82 84 86 86
30 31 34 29 31 30 29 28 28 29 31 33 36 40 45 50 57 77 87 90 90 90 92 94 87 91 97 98 98 99 98 97 98 96 89 86 85 86 86 86 85 82 80 84 89 89 88 85 83 81 80 82 85 90
31 34 33 33 34 38 35 31 30 31 34 34 34 34 36 45 46 44 56 71 81 86 90 89 90 89 95 98 98 98 98 96 94 95 89 86 83 82 82 85 84 84 88 89 88 87 83 80 79 78 75 75 78 81
34 36 37 37 39 40 40 37 34 34 36 33 34 31 30 38 46 49 43 47 61 74 86 93 94 93 94 98 98 99 98 92 92 93 91 89 85 85 85 86 85 84 82 79 78 80 77 74 74 73 68 65 60 60
35 36 39 41 38 38 42 40 43 41 37 35 34 31 34 35 38 45 47 42 44 57 78 90 97 98 95 97 98 97 98 98 98 96 92 91 90 87 83 82 84 83 81 82 87 88 78 74 71 67 60 56 54 49
38 39 43 46 46 47 49 47 44 44 44 41 38 37 35 34 36 39 45 49 44 49 58 78 85 90 94 95 91 98 97 97 99 95 91 90 93 91 87 87 87 88 88 85 80 75 70 66 61 58 54 49 42 33
47 46 47 49 48 52 57 60 57 54 46 49 45 40 38 36 35 38 42 48 49 48 51 56 73 80 79 82 87 87 91 95 94 96 93 92 93 94 93 91 88 88 84 77 70 64 60 56 53 48 42 34 27 24
51 55 58 59 56 56 59 65 66 62 56 50 47 47 43 35 34 35 38 47 51 45 48 48 46 52 64 68 74 84 93 89 89 93 93 89 88 91 94 95 90 82 74 65 58 55 51 48 42 37 30 26 21 19
62 63 65 65 65 65 65 72 72 71 65 64 57 53 50 39 35 37 39 44 56 47 43 40 41 39 45 59 66 72 78 81 81 89 92 93 92 91 88 86 83 76 66 55 49 45 42 36 31 28 25 22 20 19
69 73 75 74 74 76 74 72 72 69 67 63 62 61 59 48 41 38 38 43 53 55 51 43 39 37 39 47 58 69 75 79 79 74 78 85 87 86 86 86 81 71 57 50 45 41 37 34 30 24 21 23 24 23
80 83 89 88 84 79 75 73 76 71 72 71 70 72 66 57 46 38 44 44 53 58 57 48 44 44 42 54 64 67 73 78 82 80 65 63 73 81 84 84 73 59 48 43 40 38 35 32 28 21 22 25 26 27
95 94 93 94 90 89 83 78 75 77 80 81 80 77 73 66 48 46 45 46 57 59 58 50 46 41 43 59 74 74 79 83 84 82 74 62 54 62 68 60 50 45 42 38 35 34 33 30 25 23 25 27 28 29
98 95 97 94 86 82 71 70 74 77 77 83 88 86 80 71 56 47 43 42 59 61 56 48 44 46 44 61 75 80 86 89 89 82 72 64 58 58 55 48 43 41 37 34 32 30 29 29 30 30 28 28 30 32
83 83 83 71 68 68 68 75 80 80 84 91 91 88 84 76 62 46 38 39 49 53 55 48 37 36 50 65 74 81 81 80 81 80 77 74 69 64 60 56 50 43 40 39 37 36 36 35 34 33 32 34 37 38
81 74 73 72 78 80 86 89 91 92 93 94 92 92 91 84 64 46 38 42 42 42 42 43 39 31 32 50 79 80 79 83 81 81 80 80 78 75 73 70 68 65 63 59 54 51 48 46 44 44 45 46 44 43
74 69 75 79 88 91 95 97 98 96 96 95 94 92 86 68 55 50 52 51 49 42 36 30 30 28 26 31 52 75 89 85 84 83 75 73 73 73 72 70 69 68 67 65 61 56 51 48 47 46 45 45 43 43
69 69 78 87 92 95 95 94 90 83 82 84 84 74 68 58 50 47 45 42 36 32 27 24 21 25 24 23 32 52 72 86 90 84 78 80 79 76 74 73 71 66 62 58 52 44 43 44 44 44 45 44 43 42
72 82 91 93 95 93 78 84 71 70 72 71 67 60 52 44 40 40 36 35 36 34 29 26 22 22 23 23 24 38 63 79 84 86 87 87 85 83 79 73 65 58 55 53 49 46 47 46 45 45 44 43 41 39
87 92 89 84 72 63 68 73 69 68 69 68 64 61 51 48 37 34 31 28 27 25 26 24 22 20 21 21 24 41 65 78 82 83 84 83 79 74 67 58 53 53 52 47 46 46 46 45 43 41 41 42 43 43
85 79 76 72 63 65 68 68 70 68 64 64 63 59 55 52 42 31 25 27 29 29 26 25 21 17 19 23 32 55 71 78 80 81 78 75 67 58 52 50 49 47 46 45 42 41 42 43 44 45 45 47 50 55
75 76 79 81 76 72 77 87 83 77 68 63 56 54 51 48 43 36 46 58 49 34 27 24 20 19 22 31 51 68 75 78 79 76 67 55 49 48 47 45 41 38 39 42 43 45 47 48 50 54 58 64 68 71

GFSWCAN_prec_cthk_042.txt.gz
RH
28 31 33 32 33 33 36 36 41 45 55 63 64 68 75 74 79 82 84 90 92 89 86 90 89 72 43 36 38 57 63 68 68 73 74 72 60 58 57 55 60 63 70 70 66 69 64 50 51 60 61 64 68 73
29 32 33 34 34 34 36 36 41 49 59 65 66 69 71 75 77 80 83 82 89 92 84 84 85 86 76 55 46 41 54 61 72 73 73 71 67 57 53 60 54 59 52 58 57 58 51 51 53 58 60 64 71 77
30 32 32 33 34 35 36 36 42 51 58 64 65 68 72 77 79 85 87 85 82 86 77 77 85 84 82 77 70 71 63 67 88 91 90 89 89 81 71 58 57 54 52 54 53 51 54 52 54 57 59 62 67 73
31 33 33 34 32 33 35 38 45 55 58 62 64 68 77 81 83 85 81 83 90 94 87 79 86 89 91 93 88 92 92 95 90 88 91 94 96 89 83 80 70 59 55 51 51 50 53 53 52 55 60 61 63 65
34 35 36 36 32 35 36 39 43 49 54 59 58 66 78 83 81 77 83 91 93 96 96 90 86 79 77 75 72 68 66 64 62 62 67 72 78 85 83 83 76 74 60 58 54 49 51 53 54 53 58 62 64 65
33 34 35 34 32 32 35 37 41 42 49 54 55 64 76 82 72 70 92 90 93 91 91 88 80 78 75 74 67 60 54 53 52 53 49 45 50 74 85 82 68 75 74 62 56 54 56 57 61 63 62 63 64 63
32 32 33 32 30 33 33 33 35 34 37 42 49 59 71 80 69 80 93 93 90 87 84 83 84 82 75 71 68 64 60 55 57 56 52 44 44 63 79 75 73 71 76 76 63 58 60 60 64 66 64 64 63 60
30 29 30 29 27 29 32 31 31 31 32 31 35 47 62 71 74 81 86 89 90 90 86 87 88 83 83 80 75 73 72 67 65 64 52 47 49 50 66 67 87 82 77 80 71 61 57 60 63 66 68 66 63 61
30 29 29 28 25 26 28 28 30 30 26 27 31 36 52 59 71 89 84 87 96 97 97 95 95 89 86 84 81 80 78 77 69 75 66 63 76 63 43 70 91 95 83 79 78 68 62 62 63 64 66 66 64 63
29 28 28 27 23 25 25 26 28 26 22 24 31 41 53 59 63 78 94 97 96 96 97 97 95 92 89 89 86 85 83 83 86 78 84 82 79 64 68 79 85 96 91 84 79 72 66 65 65 64 62 61 61 60
28 29 28 25 23 25 25 26 26 25 22 24 28 34 39 63 80 90 95 96 97 97 96 95 94 93 90 94 92 92 91 90 91 96 93 98 91 86 79 84 91 95 95 91 86 77 73 70 69 67 66 66 64 64
28 28 26 24 23 24 25 26 24 25 22 21 20 24 36 47 60 74 85 92 96 97 97 97 95 90 94 96 96 95 96 97 98 97 97 99 99 98 93 90 93 96 96 94 88 82 79 77 75 72 71 71 70 69
30 31 28 26 25 25 27 27 26 25 21 21 23 27 30 33 44 49 61 69 79 84 88 90 93 89 93 98 97 98 98 98 98 98 97 98 93 94 96 96 95 95 96 94 91 88 85 81 76 73 71 70 71 75
33 33 33 32 31 31 32 30 31 27 24 24 27 27 29 36 37 39 48 52 54 62 73 83 89 88 91 96 98 98 98 98 98 98 98 94 91 92 94 94 93 92 93 94 92 93 90 87 81 75 72 70 70 73
38 37 36 36 36 38 39 33 34 29 27 27 28 30 29 29 29 30 31 36 43 44 54 65 87 91 91 95 98 98 98 98 98 98 98 97 92 88 87 89 92 92 92 91 93 93 89 82 75 73 70 68 65 60
39 40 38 39 40 42 41 39 37 32 31 31 31 33 29 31 32 32 32 30 35 42 40 55 74 93 97 98 98 98 98 98 99 99 98 97 98 94 89 87 89 87 87 91 88 83 81 75 74 73 70 66 64 61
38 39 40 40 42 45 47 48 41 39 37 35 36 35 38 36 35 34 34 33 32 39 49 50 59 78 88 97 98 99 99 97 98 96 96 94 94 96 93 87 86 81 81 83 88 92 96 85 74 70 67 63 59 55
45 42 44 47 47 47 50 51 51 49 46 47 45 43 39 41 41 39 37 36 34 36 50 53 51 54 70 84 82 85 88 91 93 96 97 96 94 96 94 89 86 98 98 98 93 87 80 75 70 66 62 58 53 48
50 49 52 55 52 53 52 57 59 61 57 56 58 58 52 48 45 44 43 40 39 38 41 55 52 49 48 46 65 72 76 80 90 93 92 95 94 95 98 97 94 93 98 93 83 76 69 66 63 59 54 49 43 37
55 57 58 59 58 59 59 60 61 61 63 64 63 62 59 57 53 48 45 46 43 41 42 44 46 38 38 39 42 49 63 68 74 76 84 90 97 95 92 95 98 97 89 84 75 65 60 56 52 48 45 40 33 29
62 64 66 66 68 69 64 64 65 70 68 68 66 62 59 60 60 58 52 50 49 44 37 33 37 44 41 39 39 36 38 53 65 73 79 82 85 94 97 94 92 91 89 84 74 63 59 55 51 46 41 35 31 28
69 74 74 79 80 71 71 73 75 75 76 71 68 63 60 62 62 61 57 56 49 40 39 37 41 52 54 44 38 40 47 54 59 67 77 83 82 80 85 92 92 92 92 86 71 59 55 52 48 43 37 35 33 29
78 82 83 87 84 79 77 78 82 81 82 77 72 72 69 65 65 64 63 54 49 41 43 46 52 54 48 44 44 47 51 57 62 68 76 81 84 82 74 73 78 86 90 82 66 57 54 49 44 41 38 34 30 28
85 88 88 89 87 88 85 85 85 84 82 79 77 69 64 63 67 76 70 56 51 44 47 49 53 55 49 44 42 45 52 61 69 77 81 80 82 81 78 72 66 72 75 66 55 51 49 48 44 38 34 32 30 27
92 94 93 93 93 94 92 88 88 88 77 68 68 64 65 63 69 70 61 57 53 43 48 49 49 56 48 40 40 41 46 65 76 84 90 91 82 78 75 69 63 58 53 49 49 48 47 45 40 36 33 31 28 26
92 92 91 92 92 90 85 79 71 68 70 72 74 75 72 79 86 79 66 61 53 49 47 48 47 47 48 43 36 29 30 55 77 84 85 84 82 79 74 71 66 56 49 48 46 46 46 44 42 38 34 33 31 29
80 80 75 70 68 67 71 69 75 82 86 87 86 89 95 98 90 73 69 66 65 59 57 52 45 41 37 36 36 32 24 25 50 71 87 86 83 82 82 82 79 76 74 70 68 65 63 58 51 46 44 40 40 43
63 61 62 66 74 75 83 86 90 91 90 93 96 94 93 88 77 74 75 74 74 67 57 51 47 43 39 30 25 26 26 24 29 43 57 78 90 86 79 74 73 75 76 76 74 72 69 68 65 59 53 51 51 51
69 68 72 76 82 85 82 84 90 88 88 93 93 81 76 69 64 67 70 70 67 60 50 44 38 37 31 30 26 23 26 26 26 33 41 58 77 86 89 86 83 81 80 78 79 76 71 65 61 54 49 48 48 48
67 69 75 77 78 78 75 85 69 69 74 76 73 65 57 49 49 53 52 50 47 43 39 36 31 31 27 24 23 24 23 24 24 29 37 50 73 83 87 88 90 88 82 78 72 64 58 56 52 47 48 49 49 49
72 83 88 86 75 68 73 74 71 66 64 63 62 59 47 46 38 38 40 38 39 38 38 35 33 32 30 26 26 25 23 23 22 25 37 59 77 83 85 84 82 81 76 68 59 54 52 50 50 51 52 53 53 51
83 83 79 74 67 64 66 70 70 65 61 60 55 56 55 58 53 41 30 33 34 35 32 35 38 36 37 32 28 24 24 25 26 31 46 67 77 80 81 81 78 64 53 50 51 52 51 52 52 52 50 48 47 47
77 77 77 75 67 62 63 75 72 66 61 61 62 65 64 67 63 44 36 36 39 41 50 57 53 48 42 33 28 24 23 23 28 41 63 75 79 77 71 59 52 52 52 51 51 49 47 47 48 49 51 53 55 59

GFSWCAN_prec_cthk_045.txt.gz
RH
48 40 33 29 31 34 36 36 39 40 38 38 40 43 48 53 59 65 76 84 84 81 84 87 81 89 76 59 51 60 66 69 73 74 71 68 66 59 58 60 65 68 73 75 73 70 65 50 52 56 56 60 61 61
41 33 34 34 33 33 34 36 40 43 41 41 41 45 48 55 62 69 79 84 86 82 80 82 83 84 89 78 59 41 58 62 73 73 76 74 70 63 58 61 55 64 59 62 58 59 52 55 53 55 56 60 63 65
37 39 35 36 31 32 33 37 41 44 43 40 38 44 48 55 67 70 77 84 88 94 87 83 81 82 87 90 81 61 49 56 69 73 74 80 81 77 72 67 65 54 54 57 56 51 53 54 55 56 59 61 66 67
38 38 35 31 31 31 34 35 39 39 38 37 36 42 49 57 68 69 80 87 92 95 94 93 96 93 90 94 92 86 77 80 86 87 89 89 93 92 90 84 81 75 67 54 53 51 54 52 51 55 57 61 61 63
40 35 31 31 31 32 33 32 32 32 30 31 34 40 47 56 67 66 76 86 90 90 95 90 93 87 88 88 84 83 83 82 77 72 72 69 69 71 68 74 74 78 79 79 61 56 48 48 50 54 54 58 63 66
35 31 30 30 29 28 27 29 29 27 27 27 29 33 38 53 63 69 85 88 86 87 86 89 87 88 85 82 77 75 71 65 61 55 51 45 42 46 54 55 48 63 75 81 77 68 58 52 53 56 61 62 62 64
32 29 29 29 26 24 25 26 24 24 25 25 28 31 35 42 53 68 78 88 89 87 83 88 92 91 88 84 82 76 71 69 63 61 54 48 43 52 50 42 33 56 68 75 85 79 71 62 60 61 62 65 65 64
32 30 31 27 25 23 22 22 20 22 23 24 28 32 34 38 48 67 78 84 95 92 86 86 89 87 86 87 84 75 74 71 66 64 61 59 58 57 60 41 29 55 71 78 85 85 80 72 68 63 62 63 66 67
32 34 30 27 22 20 20 19 19 21 21 23 26 31 32 39 53 62 80 92 92 94 95 92 95 92 86 86 88 83 79 77 72 76 72 71 70 72 62 46 34 63 98 92 91 91 88 78 68 66 64 65 70 68
38 34 30 26 21 20 18 17 17 17 20 23 28 30 30 34 43 60 75 84 89 91 92 93 94 95 90 89 89 86 82 81 81 74 73 80 81 79 63 66 81 82 94 99 97 90 88 84 74 68 67 66 66 66
41 33 30 25 21 19 17 17 16 16 18 22 24 26 30 32 35 42 53 69 77 82 80 85 90 92 90 95 93 92 89 87 86 86 86 91 95 96 85 71 88 96 98 93 88 88 89 86 79 73 71 69 68 65
38 33 30 25 22 21 20 19 18 17 18 20 21 26 29 32 33 37 40 43 51 58 61 69 75 81 90 95 97 94 92 94 92 94 95 97 98 98 98 94 86 88 96 97 95 96 95 91 87 80 74 71 70 69
37 33 31 27 25 24 23 22 22 21 22 23 23 26 31 26 27 31 36 34 35 34 40 48 58 72 85 94 96 98 95 93 97 99 99 99 98 97 98 98 98 95 93 99 99 98 97 93 86 79 73 67 65 66
37 36 33 32 30 30 29 29 28 26 25 26 26 24 28 31 29 32 32 34 32 32 29 35 41 59 79 90 98 98 97 98 98 98 98 98 98 97 96 98 98 98 97 98 99 98 97 93 86 75 67 64 61 57
39 39 35 32 33 35 35 34 34 33 29 30 31 28 31 29 31 30 31 31 30 29 30 32 42 50 70 91 98 98 98 98 98 98 98 98 98 98 96 94 98 98 97 98 98 98 98 89 79 71 68 64 62 61
40 42 38 37 37 37 38 37 38 38 40 37 38 37 37 37 35 36 35 34 34 32 32 36 39 54 66 81 94 98 98 97 97 98 98 98 98 97 98 97 93 93 92 92 93 93 87 81 72 71 70 67 65 62
45 42 40 39 40 40 39 39 40 44 47 46 45 46 48 48 45 43 41 40 39 36 40 38 38 43 49 57 74 85 92 91 88 87 92 97 98 98 97 95 91 84 81 90 96 94 97 97 90 73 71 70 66 63
48 45 44 42 41 42 42 45 48 51 54 56 56 58 60 56 54 52 50 48 45 45 44 46 42 40 42 53 48 54 58 70 74 74 76 86 92 96 98 98 92 92 98 98 98 97 93 83 78 77 71 66 62 57
49 46 49 54 54 51 52 57 57 58 59 61 60 60 61 59 60 60 57 53 50 50 52 51 50 42 37 33 39 39 43 48 54 58 64 70 79 88 96 98 98 98 98 97 89 82 78 72 67 65 63 60 56 50
54 54 56 57 56 59 60 60 62 64 64 64 60 60 60 60 59 62 62 61 59 58 59 58 46 36 33 30 34 40 40 40 37 41 51 68 72 81 89 97 98 98 98 97 94 87 75 67 63 61 58 54 50 45
58 59 58 56 60 63 63 65 67 68 67 66 64 61 56 55 55 58 62 64 65 65 59 52 46 41 40 38 38 38 45 42 42 44 46 58 68 73 83 89 96 98 96 96 94 89 78 67 61 59 55 53 50 46
56 57 59 61 65 69 72 74 76 76 75 72 68 65 60 57 59 62 65 67 63 58 58 56 54 52 51 43 39 42 51 50 51 50 50 52 57 70 79 84 86 89 89 92 93 90 78 67 62 59 57 53 50 45
65 68 67 69 74 77 80 81 83 84 83 76 71 68 66 64 61 61 62 55 48 51 60 63 66 63 57 48 44 40 44 47 54 55 56 62 65 67 76 82 85 84 82 82 85 86 74 65 63 59 57 53 48 44
67 73 75 78 83 86 86 87 88 88 85 81 77 73 73 68 64 60 54 42 34 45 69 71 70 65 57 48 44 44 42 39 38 46 59 65 74 79 76 80 83 83 84 83 77 73 64 59 57 56 55 52 49 46
77 83 88 92 89 90 89 87 87 87 81 80 81 74 67 63 67 64 51 34 41 47 59 74 69 65 59 52 54 54 53 47 37 29 32 54 78 81 77 78 81 82 80 76 66 54 47 49 54 56 56 54 52 48
92 92 91 92 90 87 85 79 75 71 67 65 62 62 66 75 75 67 53 55 64 74 76 74 74 68 60 55 53 49 45 44 42 35 27 32 50 75 90 85 80 74 74 69 63 58 50 48 51 55 57 58 55 49
95 88 84 80 73 68 67 64 64 66 67 69 69 78 83 82 72 55 67 76 80 80 81 83 82 78 68 59 53 48 44 38 36 33 29 28 39 45 62 85 88 84 78 77 76 76 74 68 66 66 68 69 66 58
63 57 57 62 66 66 70 70 71 71 71 77 78 78 75 68 57 59 69 75 80 80 79 77 78 77 71 64 56 47 41 37 29 25 27 27 29 36 41 54 79 90 87 82 79 78 78 78 78 78 78 75 70 64
63 61 62 67 73 74 71 71 69 70 77 81 79 71 61 51 49 54 58 64 63 61 60 63 66 69 67 62 54 43 36 30 26 24 24 24 24 26 33 41 59 82 89 92 89 86 85 84 82 80 76 69 66 63
59 64 66 68 70 66 61 79 69 70 68 66 67 60 50 42 44 48 45 44 43 41 41 42 43 48 48 46 40 35 32 30 29 27 25 25 25 25 29 37 57 79 88 89 90 90 88 84 80 74 65 59 56 53
68 75 84 83 70 63 68 71 69 64 57 54 55 57 51 49 35 37 41 42 50 48 45 41 38 35 33 32 31 29 29 31 31 29 27 26 26 27 32 40 60 78 87 88 89 87 84 74 64 58 56 55 55 55
73 76 75 74 67 65 66 66 60 54 49 46 44 48 51 57 55 46 44 50 50 47 42 41 37 32 33 32 34 40 37 33 33 31 27 26 27 29 34 44 62 77 84 85 83 67 56 55 55 57 59 61 61 59
73 73 73 73 68 64 62 61 53 50 47 43 40 48 57 68 67 54 50 48 49 48 45 46 47 47 48 48 48 46 44 41 35 30 26 26 26 30 41 58 76 77 72 63 59 59 60 60 58 56 53 52 53 55

GFSWCAN_prec_cthk_048.txt.gz
RH
39 38 39 39 39 37 38 35 34 36 36 36 38 42 42 45 48 49 55 60 69 70 73 75 79 85 86 67 74 74 77 77 77 77 74 69 66 59 59 62 67 70 74 77 75 77 65 46 50 53 53 58 60 59
40 38 41 39 37 41 35 31 32 33 34 35 35 40 42 47 49 50 57 67 74 81 81 77 77 80 81 87 69 68 79 75 77 77 76 76 73 65 60 60 56 61 59 64 62 59 51 54 54 52 54 56 60 63
41 42 38 41 45 36 30 29 29 31 31 30 31 35 41 47 50 51 59 67 76 80 74 78 82 81 84 90 88 68 65 71 71 70 73 76 75 71 69 63 60 54 55 54 56 50 49 51 56 55 55 57 62 63
43 43 43 47 39 31 27 26 26 25 23 25 27 32 40 48 48 52 57 67 73 82 85 90 89 92 94 95 96 90 72 67 59 61 69 76 88 90 85 83 83 77 77 72 63 47 52 52 52 53 58 60 62 65
45 44 49 39 32 29 27 22 21 19 19 21 24 28 37 44 46 50 62 73 73 81 86 84 88 88 89 91 92 94 96 90 91 93 94 89 80 75 67 65 61 56 70 77 80 75 63 52 49 51 55 57 60 63
46 50 40 33 31 28 23 21 18 16 17 19 24 30 37 39 39 51 66 76 74 76 81 86 88 90 88 89 86 82 77 74 71 68 64 58 54 52 49 48 34 30 34 64 72 81 85 68 57 52 56 59 61 63
53 40 38 35 29 26 21 17 14 14 15 18 23 30 36 36 43 50 61 74 81 76 78 85 85 84 82 86 88 86 82 79 76 72 67 60 55 58 57 54 36 37 36 42 58 71 84 85 70 59 57 61 65 67
46 40 36 34 28 24 18 14 11 12 14 17 23 26 28 38 44 53 65 77 81 79 77 81 83 81 83 83 86 84 81 80 77 74 71 71 67 61 57 51 46 43 45 35 51 73 80 87 86 72 66 64 64 64
40 35 36 35 27 21 16 13 11 11 12 16 21 24 27 36 42 50 58 70 77 75 75 77 84 89 86 85 83 83 80 79 75 76 73 73 72 80 72 64 63 46 49 45 76 80 84 90 95 88 73 68 64 64
40 37 41 33 26 20 17 13 11 11 11 14 18 22 25 29 33 36 42 44 53 58 58 64 71 77 80 85 90 88 86 83 84 79 78 81 82 83 89 82 75 89 88 95 98 94 98 97 94 89 80 72 67 65
40 41 41 30 26 21 17 15 13 12 12 14 16 19 24 27 31 34 37 39 35 37 38 46 54 63 73 85 90 92 91 89 87 86 87 89 92 92 98 96 88 90 92 95 97 98 95 95 93 90 88 79 72 69
41 44 38 31 27 23 20 17 15 13 13 15 17 21 23 26 29 29 31 31 31 30 29 31 37 43 61 80 88 92 95 94 90 93 94 93 94 95 95 97 95 96 91 91 95 97 94 94 93 94 92 85 78 74
45 49 36 33 29 25 22 19 18 16 16 18 20 22 25 24 23 24 28 27 29 27 28 29 28 34 50 70 84 94 96 96 97 99 98 92 93 96 95 97 97 98 97 95 94 94 94 96 96 94 87 79 72 68
51 48 35 34 30 27 23 22 22 20 20 22 23 25 27 30 29 31 32 34 32 31 29 29 31 35 46 62 84 94 93 99 98 97 96 95 94 95 96 97 97 98 95 95 98 98 98 95 91 84 77 73 66 58
60 47 37 34 33 29 27 27 27 25 26 29 29 28 33 33 36 36 36 35 34 33 33 33 36 39 47 55 63 85 98 98 97 96 90 90 92 95 95 95 97 97 98 97 97 98 98 97 86 77 73 69 66 64
58 54 40 35 34 33 31 29 28 29 32 33 36 38 39 39 37 40 42 43 42 41 39 42 41 45 45 48 48 57 73 73 72 77 78 81 82 87 96 96 96 96 88 96 97 98 98 91 81 75 71 68 67 66
53 54 48 43 42 39 36 32 32 35 36 36 39 42 49 51 50 49 51 51 51 51 51 48 49 48 47 47 49 50 46 49 51 51 56 65 66 71 81 92 96 94 90 92 96 97 98 98 98 87 76 70 66 65
55 52 52 49 47 43 37 36 36 38 42 45 48 54 55 54 55 54 54 57 59 61 60 59 54 52 54 52 48 44 40 36 35 44 46 50 52 60 71 83 96 97 97 97 97 97 97 96 89 79 80 75 66 64
55 56 55 53 52 48 46 46 47 50 56 57 60 61 60 58 54 53 56 61 65 68 67 66 64 57 52 46 42 41 40 36 34 31 38 45 48 54 68 79 91 98 97 97 98 92 82 78 78 76 67 64 63 58
59 62 59 57 54 52 54 56 57 60 60 61 62 61 60 60 58 56 56 60 64 65 69 71 61 54 50 46 48 48 45 42 38 35 38 47 50 50 58 70 79 93 98 98 98 98 97 89 75 68 66 62 59 57
69 64 62 59 60 58 56 57 59 60 64 63 65 65 62 60 59 59 59 59 64 63 62 58 52 53 56 58 57 55 54 51 48 43 41 45 51 49 51 57 68 80 91 98 98 98 97 95 81 72 70 67 61 58
74 73 68 62 60 58 56 56 61 63 68 68 66 67 65 63 62 63 61 60 58 56 55 48 52 55 59 61 61 63 61 52 42 35 37 45 52 57 58 57 64 76 84 89 95 94 95 95 86 72 68 65 62 60
60 59 59 63 63 62 67 67 71 76 76 72 72 72 69 67 65 63 62 55 44 32 33 34 37 53 56 65 70 73 62 55 43 33 36 42 44 51 61 63 65 70 80 86 87 87 85 88 81 71 67 64 61 59
54 58 62 70 71 76 76 77 80 79 78 78 76 72 72 69 64 60 55 37 28 34 38 42 45 49 58 76 79 70 64 62 61 49 48 45 37 40 45 61 71 70 74 83 85 88 87 85 75 65 60 57 57 58
56 66 71 80 80 80 80 81 83 83 80 79 76 70 62 57 58 57 46 33 36 41 51 61 66 65 65 69 77 74 72 67 63 59 61 53 40 34 35 40 59 75 72 72 80 85 79 73 64 56 50 48 51 55
78 83 81 82 85 83 85 86 84 78 73 68 63 58 58 63 63 56 44 40 48 49 59 73 79 81 83 80 81 81 76 72 62 55 55 50 43 34 29 34 40 51 80 81 73 71 68 63 60 60 60 58 57 58
88 85 84 85 87 87 83 74 68 67 66 64 61 67 71 70 58 48 47 48 51 54 65 74 80 84 86 87 87 83 77 71 61 50 42 37 37 35 30 27 34 40 49 71 87 84 77 74 74 74 75 76 73 71
86 85 87 79 73 70 70 69 67 67 64 62 69 70 67 60 47 46 45 49 50 48 54 60 72 74 75 77 78 78 77 71 55 44 35 32 33 31 30 27 27 35 39 42 61 86 88 84 81 80 80 81 82 81
69 63 65 68 71 72 68 63 61 58 61 67 70 62 54 46 44 45 43 45 44 43 42 43 43 49 48 48 49 51 56 59 57 45 36 30 29 28 29 28 28 29 33 37 42 62 85 91 91 90 87 87 85 82
64 66 66 68 70 63 56 62 55 59 61 61 61 55 47 41 39 41 37 34 37 40 39 38 36 40 41 41 39 39 40 43 48 49 43 36 33 30 26 25 27 28 30 35 41 55 76 87 89 91 92 90 87 82
59 62 63 62 58 57 65 71 66 61 56 54 55 55 42 40 27 28 31 32 37 42 42 41 40 40 40 38 38 36 35 36 36 35 36 37 35 31 28 26 27 29 32 38 46 58 71 81 87 89 88 80 71 65
60 61 63 64 61 60 61 59 55 50 48 44 37 33 31 48 59 47 41 44 50 53 53 54 51 48 49 47 45 43 39 36 36 36 36 36 33 33 31 27 28 31 34 40 46 57 79 86 84 74 64 62 62 63
64 66 67 65 60 57 56 56 50 44 39 31 27 38 57 66 62 54 52 56 60 64 72 80 83 82 84 84 77 64 52 46 42 41 39 37 36 34 31 28 28 31 37 43 55 74 75 69 65 65 65 64 62 60

GFSWCAN_prec_cthk_051.txt.gz
RH
73 64 49 36 35 36 35 36 42 41 40 33 30 30 32 38 39 43 47 50 54 58 64 66 71 73 78 70 72 76 82 82 82 79 79 74 73 66 66 65 69 73 76 78 77 78 69 48 51 53 52 52 57 59
73 52 46 42 34 35 34 41 43 40 37 30 28 28 31 35 37 42 48 52 56 56 62 68 72 73 81 86 75 74 85 86 84 81 77 76 72 72 63 63 61 65 61 65 66 61 54 54 57 55 54 54 57 60
67 57 46 39 34 36 42 46 41 36 32 25 24 25 28 35 34 42 47 50 56 56 64 74 80 77 77 84 89 77 74 83 85 80 78 78 76 73 71 66 60 56 60 58 56 45 50 51 53 55 57 56 57 62
67 52 46 39 38 43 45 40 34 32 24 21 22 23 27 33 36 42 48 52 60 63 68 75 82 86 89 91 92 92 77 68 74 76 69 67 70 69 76 86 88 80 82 80 78 67 58 49 52 56 58 60 60 60
57 52 42 38 44 45 42 35 31 25 19 18 21 24 28 30 35 40 51 53 59 64 70 74 79 83 84 85 89 94 96 81 72 74 72 70 76 87 86 76 63 50 48 58 65 71 78 74 63 56 53 54 57 61
55 45 42 46 46 43 35 32 27 17 15 16 20 25 29 28 34 42 53 57 60 64 69 77 82 82 82 85 88 86 86 93 90 90 84 75 71 64 58 55 42 40 40 41 42 40 52 59 78 78 58 55 59 59
51 47 47 50 45 37 34 28 21 13 13 14 19 21 25 31 37 44 53 60 63 66 71 75 79 80 82 81 81 83 82 85 83 82 80 73 64 63 68 63 52 52 43 35 35 36 34 40 62 84 81 67 59 61
47 49 54 47 41 36 29 24 18 12 12 15 14 20 24 32 39 45 52 58 60 61 66 68 71 77 82 81 80 79 79 80 83 84 79 76 72 69 71 66 66 62 55 46 44 40 37 35 50 77 91 84 69 64
52 58 52 44 40 31 26 22 14 11 11 13 12 14 18 25 30 36 39 35 32 35 41 45 56 65 66 75 83 85 81 79 79 84 82 81 79 83 78 80 79 74 75 72 66 60 51 53 61 84 91 94 85 72
61 54 47 45 37 31 24 21 14 11 11 11 12 13 15 19 21 24 26 28 31 28 27 31 34 43 56 73 80 84 89 88 86 85 86 89 86 87 88 85 82 83 86 86 85 92 90 83 80 96 98 93 94 82
57 51 47 44 38 29 24 20 16 12 13 12 12 15 18 20 22 23 24 26 27 29 28 28 30 35 37 58 75 85 89 91 92 89 93 97 92 90 89 88 86 90 91 90 93 98 92 99 94 97 96 98 96 87
59 47 46 46 37 29 23 21 18 14 13 12 14 17 20 22 22 22 27 25 27 27 29 30 31 31 36 49 62 83 94 97 97 97 97 96 85 86 89 90 92 93 95 94 94 98 94 95 98 98 98 97 96 92
50 46 46 52 37 27 24 23 19 16 14 15 17 20 21 21 20 19 22 26 28 29 31 29 30 29 37 53 61 74 93 98 98 98 97 89 83 83 86 93 93 97 97 98 95 94 92 92 93 94 96 92 90 85
50 48 54 52 37 33 28 23 20 18 17 18 19 21 23 26 26 30 29 32 31 33 31 32 33 36 41 47 52 62 74 96 97 92 78 73 73 78 80 86 92 95 97 96 96 97 95 91 95 91 87 79 73 69
51 52 57 50 42 34 26 24 22 21 20 23 24 24 31 32 36 35 34 34 34 36 37 36 37 39 42 48 50 48 56 68 63 56 56 53 61 66 66 72 84 93 95 97 96 95 97 98 96 87 84 75 70 70
54 53 57 48 38 33 27 23 24 22 24 27 29 31 34 33 35 40 42 43 43 44 44 46 45 47 47 52 50 50 56 48 40 41 39 41 43 48 56 59 68 85 94 93 97 97 97 97 97 86 80 73 70 70
48 59 58 42 36 34 30 29 27 28 29 30 33 34 36 38 42 45 46 48 49 48 52 54 55 55 58 56 53 54 54 44 44 39 31 31 33 36 40 49 59 75 91 95 95 97 97 97 97 97 88 77 70 68
58 63 55 45 37 33 31 32 32 34 36 37 37 39 41 45 48 49 50 51 51 52 55 60 60 63 64 59 55 51 46 43 46 41 36 37 36 36 38 46 55 68 81 95 96 97 96 95 97 94 90 82 79 73
48 57 55 53 48 40 40 42 42 44 45 47 52 54 55 55 54 54 55 55 55 59 60 65 65 63 58 51 50 49 49 52 53 50 49 48 45 42 37 39 55 63 73 89 97 97 97 94 85 82 82 77 70 66
48 60 61 56 50 48 50 51 52 52 57 58 58 58 56 56 55 56 59 57 59 61 63 64 59 53 48 43 49 51 59 63 63 60 60 55 50 48 47 42 47 53 62 75 94 97 97 97 95 85 78 71 72 70
54 64 65 61 53 51 51 53 54 56 57 55 55 56 59 61 59 59 59 62 62 62 58 53 48 42 41 45 52 56 63 70 71 70 61 47 43 41 50 54 56 60 59 67 79 94 97 98 98 92 83 75 74 70
63 69 72 67 59 57 60 64 62 58 57 59 60 63 64 63 63 62 63 64 61 53 48 39 34 33 35 35 40 50 53 64 70 71 56 55 44 35 36 44 53 62 62 67 74 83 91 97 97 98 95 82 74 70
67 71 71 70 67 63 63 59 61 65 67 67 66 68 65 63 64 63 63 58 45 34 34 35 34 34 35 36 42 47 62 73 72 66 62 67 56 48 40 37 46 53 65 66 72 81 85 88 91 93 91 80 71 68
66 71 72 66 60 62 60 64 68 73 72 71 71 70 66 64 63 62 55 37 28 32 35 35 37 37 43 54 61 66 68 75 82 80 79 76 73 63 56 51 41 47 49 61 69 74 84 87 90 91 89 77 69 66
57 63 61 65 63 63 64 70 76 75 74 74 72 70 66 62 58 53 44 30 30 32 33 37 37 42 53 65 75 80 82 78 87 84 82 81 74 65 63 58 43 37 41 47 58 73 69 77 83 82 78 70 62 53
62 65 63 65 70 71 77 77 77 77 75 72 68 62 58 57 59 50 39 29 29 31 35 40 42 44 53 72 80 86 85 85 81 82 81 80 72 67 57 51 39 34 32 37 41 49 73 71 68 66 66 64 63 63
63 69 71 73 77 76 79 81 79 75 69 63 59 60 61 62 51 37 30 30 35 42 47 48 52 50 48 53 66 79 83 87 86 79 78 80 70 61 50 43 39 35 32 31 35 41 45 66 82 78 74 73 74 72
68 69 77 83 82 83 81 78 69 64 60 58 59 59 54 47 37 34 34 40 48 50 46 43 43 42 42 40 43 45 51 60 63 62 65 67 62 55 47 41 41 39 34 29 30 33 37 39 49 78 87 85 82 77
81 84 84 84 80 75 66 62 61 55 52 53 52 47 42 37 34 38 40 43 37 34 34 33 29 34 36 38 37 36 38 42 49 49 47 47 50 54 52 45 41 38 35 30 29 32 33 35 37 43 67 87 92 91
84 76 71 68 67 64 54 54 50 47 47 47 47 44 38 34 36 37 31 29 32 36 41 45 44 47 47 44 40 40 43 42 43 42 40 43 45 45 47 48 42 36 32 30 29 29 32 35 36 40 52 70 83 87
66 65 63 60 56 50 48 46 45 43 43 42 45 47 38 37 24 23 37 47 50 54 55 55 59 66 63 59 57 52 46 50 47 44 42 40 41 45 46 45 42 38 33 30 30 30 32 35 44 47 52 63 76 83
58 59 59 54 49 47 48 46 43 38 34 32 29 28 29 32 36 40 52 62 64 71 75 80 87 92 94 96 95 89 72 58 54 53 46 41 40 42 43 44 41 37 35 34 30 29 31 35 41 47 52 68 79 77
60 57 56 56 54 51 50 47 42 36 30 27 24 25 26 38 48 53 57 63 70 80 89 95 92 80 73 75 85 87 84 86 88 83 66 51 41 40 43 42 39 38 36 33 30 30 36 39 43 51 66 75 74 71

GFSWCAN_prec_cthk_054.txt.gz
RH
98 96 91 88 64 43 42 40 38 38 38 38 34 32 33 32 31 31 36 37 39 44 52 56 58 62 68 73 74 67 82 83 89 84 84 83 80 73 72 71 75 77 81 82 80 78 73 55 58 59 55 54 53 56
97 95 92 80 57 51 41 41 39 38 41 36 32 29 30 31 29 32 35 38 38 43 50 54 59 63 65 69 76 68 79 80 80 83 82 80 73 77 69 67 64 70 68 69 69 64 56 58 61 61 60 56 55 55
95 93 87 72 62 42 42 35 38 39 38 35 29 27 30 31 29 33 36 39 39 45 53 60 66 70 69 69 78 78 74 90 88 76 78 79 77 78 73 71 71 63 65 67 64 55 56 56 60 65 65 63 61 59
93 88 86 74 49 43 40 39 38 41 38 33 27 30 30 30 30 34 36 41 43 48 55 58 62 67 74 78 84 87 80 73 84 88 83 79 73 70 71 72 68 67 70 72 69 65 63 63 63 59 55 60 61 64
86 91 84 62 54 44 39 40 41 43 34 28 29 29 30 28 28 35 38 42 45 47 55 59 63 67 71 76 79 86 97 91 74 73 78 77 71 63 58 65 84 67 63 63 61 57 52 48 56 71 71 66 58 60
90 89 75 61 45 41 42 42 47 33 27 30 29 28 29 29 29 34 39 43 45 49 53 64 65 70 72 74 78 83 86 93 89 82 81 83 84 76 76 75 61 60 60 58 52 46 39 33 32 34 56 66 72 64
85 86 72 48 45 46 41 43 40 30 30 27 24 28 30 32 35 36 40 44 44 47 51 57 62 66 70 71 78 81 83 85 85 85 84 82 81 80 77 74 65 70 68 65 59 51 44 40 33 30 28 44 71 76
92 83 58 50 47 41 41 46 37 29 28 24 22 28 28 30 31 26 23 25 30 27 31 30 35 48 50 66 76 81 82 84 85 88 88 82 76 75 73 72 75 74 71 70 64 64 62 55 45 35 32 34 60 79
86 66 56 50 44 46 46 45 33 29 24 20 22 22 22 23 22 22 19 16 13 16 20 21 27 30 29 46 68 78 82 88 88 89 87 89 88 88 85 83 84 81 76 72 69 68 67 66 66 61 50 44 71 86
78 60 50 50 48 45 49 36 34 29 25 21 18 14 14 17 16 17 18 18 20 20 21 25 27 28 30 35 45 67 81 89 95 92 94 95 95 85 87 91 89 86 83 81 77 74 76 80 77 87 75 59 93 98
76 53 56 49 49 52 40 36 33 30 28 22 16 15 16 17 16 16 19 20 21 23 25 26 29 30 32 40 46 54 69 84 95 98 97 97 92 83 86 89 92 92 90 88 88 84 82 84 90 92 92 90 98 98
63 59 56 55 52 44 35 37 34 30 24 19 16 16 18 17 17 17 24 22 23 23 28 29 30 30 34 38 45 49 66 80 95 96 97 90 78 71 73 78 81 92 93 92 92 94 90 91 92 96 96 98 98 98
63 63 58 56 49 39 39 36 35 26 24 24 18 17 17 18 17 15 18 26 27 28 30 30 31 31 37 41 43 45 55 60 75 89 82 66 57 56 61 64 68 73 90 94 95 96 95 92 93 94 98 98 96 93
68 65 60 55 42 42 39 36 28 29 28 23 17 19 21 23 22 25 25 28 28 32 34 37 39 38 42 47 46 45 47 55 67 60 44 40 34 37 38 43 48 60 71 92 95 96 97 97 94 93 87 81 78 83
70 64 61 53 47 44 38 30 28 30 28 24 20 20 26 30 31 28 29 30 33 37 41 44 46 46 47 49 51 48 47 58 55 44 39 35 30 25 23 28 35 38 49 75 94 96 97 98 98 92 89 90 88 74
73 67 52 58 52 40 34 29 34 30 26 28 27 29 32 30 35 35 33 36 39 43 46 49 52 56 53 58 55 56 56 55 47 48 44 35 30 29 30 30 30 33 41 53 83 95 97 98 98 97 90 79 76 70
62 56 50 63 53 38 32 38 33 27 27 30 32 30 29 28 31 35 37 39 44 47 52 54 53 51 60 64 61 60 59 55 51 45 41 38 37 39 40 39 38 35 35 47 62 86 97 98 98 98 98 96 89 78
54 52 52 61 52 44 45 39 32 31 34 36 36 34 33 34 38 41 43 47 51 53 54 56 56 61 66 64 59 54 53 55 50 48 47 48 46 47 48 48 48 44 39 43 56 74 92 97 98 98 98 97 92 94
56 44 51 60 49 40 37 38 39 39 43 42 41 42 45 47 50 52 52 52 55 55 56 59 60 64 57 53 49 44 45 47 46 45 46 51 55 56 55 57 60 56 46 43 46 65 84 97 98 98 94 94 93 80
50 55 68 64 48 38 38 40 39 38 45 47 52 56 60 59 56 54 54 55 58 59 61 60 57 51 48 44 44 43 41 41 45 46 43 54 65 62 56 56 56 54 54 53 48 59 73 91 98 98 96 87 83 83
61 66 63 48 43 49 52 52 49 52 53 58 64 66 60 57 55 57 57 60 62 61 58 51 46 43 40 37 35 34 34 38 37 41 43 50 66 55 53 53 48 43 44 53 58 66 73 82 96 98 98 98 94 85
62 59 65 61 53 55 56 56 56 57 59 64 62 60 56 54 55 57 60 63 61 56 47 40 34 32 32 32 32 34 35 43 45 47 53 56 70 64 71 67 57 48 41 34 48 63 76 82 92 97 98 98 95 88
59 56 59 64 65 63 64 62 63 66 64 62 59 57 57 57 58 60 63 59 52 37 33 31 30 32 33 32 31 35 45 50 55 61 58 58 67 73 81 77 68 57 51 41 38 50 68 76 88 97 98 98 98 91
54 57 62 67 71 74 71 70 67 65 61 59 60 61 61 61 63 64 61 46 31 31 30 30 32 32 32 31 31 34 46 54 60 66 73 67 74 86 88 85 80 68 56 49 45 49 52 67 78 88 97 97 98 91
59 70 66 72 73 73 69 68 66 62 63 65 66 65 64 65 65 59 47 33 28 27 29 33 33 34 35 34 34 37 42 47 59 66 76 81 77 86 86 86 84 78 68 56 47 49 45 51 61 76 77 85 87 84
66 66 61 62 64 63 68 69 68 67 67 67 66 68 67 63 57 46 38 26 26 28 33 35 38 41 39 42 39 34 37 39 47 58 70 81 77 76 73 75 76 73 71 56 48 45 44 43 46 57 81 80 73 70
63 61 62 63 65 66 69 68 67 68 70 69 68 64 60 59 52 36 27 27 29 34 37 40 44 43 38 33 30 31 34 36 38 41 50 64 75 71 66 68 72 68 59 52 50 44 40 38 40 43 47 69 87 81
68 71 71 70 68 67 71 73 73 71 68 61 59 59 54 47 35 26 26 29 34 35 31 29 29 32 35 38 38 38 36 38 36 37 36 36 42 56 57 54 56 60 53 48 49 47 41 38 38 38 39 39 44 68
66 65 66 72 76 77 76 74 66 58 54 53 53 50 41 30 26 26 28 32 29 25 24 26 34 46 46 49 51 55 58 56 55 47 40 35 35 42 54 53 53 53 53 51 50 50 44 35 32 35 36 37 38 41
71 73 75 78 77 71 62 59 56 54 51 48 43 37 31 25 22 23 20 19 20 23 33 45 49 53 62 70 73 79 87 90 79 67 57 48 42 41 46 50 52 52 51 47 44 44 41 38 36 33 36 39 40 40
78 76 75 72 67 61 58 54 50 46 41 37 35 33 28 21 13 14 16 21 31 44 49 52 62 76 82 88 90 83 81 88 92 95 83 64 56 51 48 48 50 49 49 47 46 42 37 34 34 36 36 35 39 46
72 68 64 63 59 54 51 46 42 36 32 29 26 23 22 21 20 17 24 37 45 49 54 66 78 87 95 91 83 81 80 79 87 88 89 87 71 61 56 50 48 47 47 49 48 44 41 41 40 37 36 36 40 42
67 64 63 60 54 47 43 39 36 32 29 25 23 22 22 23 23 25 37 48 55 67 77 85 90 90 83 79 77 73 75 73 77 77 82 88 89 82 67 58 51 47 46 46 47 46 45 42 41 40 38 38 42 47

GFSWCAN_prec_cthk_057.txt.gz
RH
93 94 93 98 95 88 74 59 42 40 40 36 39 38 34 29 27 32 30 29 29 37 45 46 50 55 61 64 69 73 75 83 92 88 86 93 86 80 77 74 74 74 77 83 83 84 80 67 69 71 71 65 61 59
97 98 91 95 94 87 73 51 42 43 38 35 39 40 32 27 29 33 29 30 32 34 42 45 50 54 55 59 66 72 87 81 85 90 88 87 83 88 84 77 70 71 68 70 72 71 65 69 69 71 70 67 65 64
98 99 91 91 93 90 74 47 47 42 34 36 39 39 31 29 31 32 30 33 36 40 46 51 56 62 63 64 71 69 72 84 84 87 86 89 86 84 78 74 76 69 69 70 66 58 61 62 63 62 62 63 63 64
98 94 93 91 93 87 61 53 39 37 35 39 41 38 30 34 35 32 32 34 35 37 45 52 54 56 60 66 74 78 78 74 75 83 89 86 85 82 77 74 73 70 64 62 59 57 52 55 56 56 55 59 57 58
94 99 95 92 91 67 55 48 39 37 37 42 42 35 32 32 35 34 33 34 36 36 42 50 53 57 57 63 68 71 82 84 78 74 78 84 82 81 78 72 69 66 64 65 68 69 68 60 55 50 42 40 51 62
99 98 98 94 84 73 55 40 39 36 42 44 37 35 32 34 36 33 34 35 35 37 40 49 48 51 50 61 68 71 70 81 83 80 77 74 78 83 82 78 72 74 77 86 80 71 64 58 53 54 51 43 32 41
99 99 97 93 90 61 50 43 35 42 46 40 38 35 36 37 36 34 31 28 28 27 26 32 33 34 36 47 60 70 75 79 76 81 85 84 78 78 86 87 82 83 88 87 82 72 66 65 61 59 56 51 43 31
98 97 96 94 71 58 45 38 39 48 45 40 36 39 38 31 25 21 19 16 14 11 12 18 20 25 23 35 47 60 71 79 82 84 83 84 82 82 81 79 83 84 83 81 78 75 71 67 65 62 59 55 49 44
97 98 96 85 67 55 39 41 45 46 44 37 37 31 30 25 20 16 13 12 12 13 13 17 24 22 26 33 42 51 64 76 81 82 84 87 89 87 81 84 86 85 81 78 76 76 75 74 71 68 64 59 56 52
98 96 93 80 62 43 45 41 46 48 40 36 35 32 31 25 18 16 15 14 15 13 17 23 25 26 27 33 40 50 57 66 78 80 85 85 78 69 65 66 68 73 83 82 78 75 75 75 76 73 74 75 75 68
96 97 93 69 55 46 45 45 49 42 43 34 31 29 26 22 16 14 14 16 18 19 21 24 26 28 30 35 40 46 55 63 71 73 79 78 74 58 50 46 48 51 58 69 81 82 80 79 82 79 81 82 85 92
98 96 78 62 52 49 44 51 50 38 33 30 31 28 24 20 14 15 21 20 21 21 27 28 29 30 33 37 42 45 52 55 56 56 64 66 47 39 34 29 28 30 33 41 58 74 83 85 88 88 85 86 93 93
98 87 68 62 49 44 50 56 41 40 32 33 32 24 20 17 14 13 19 23 25 26 29 30 32 33 38 42 47 49 54 56 53 61 56 39 27 24 24 24 22 21 21 21 27 46 67 85 89 91 92 92 89 92
93 79 68 52 46 48 61 43 45 40 37 37 30 26 25 23 19 20 21 24 24 27 29 35 39 43 46 48 51 54 55 56 62 64 51 40 36 29 26 27 27 26 27 25 23 28 45 65 88 92 94 94 88 81
87 75 57 53 49 63 52 45 45 44 40 32 26 28 32 32 26 25 25 26 28 30 34 42 47 49 54 54 56 55 56 56 64 58 49 46 41 37 34 33 34 34 33 32 33 32 36 49 71 92 95 96 95 91
77 64 61 53 65 61 41 48 47 44 36 30 30 38 40 35 33 29 27 29 32 36 40 45 51 55 56 59 59 63 63 63 64 63 57 51 47 45 42 41 42 42 41 38 36 40 43 44 57 82 97 96 94 88
70 67 62 65 59 39 54 48 44 40 32 33 36 36 35 31 31 30 30 32 36 40 48 52 51 50 56 61 62 60 61 60 56 53 48 47 47 45 45 45 48 49 47 44 42 46 51 53 51 72 91 97 97 97
71 66 65 60 42 51 54 49 43 36 37 39 38 35 34 33 33 36 38 41 46 49 54 54 52 57 62 62 60 55 50 46 43 42 42 42 44 44 44 43 47 50 50 53 56 54 58 61 58 67 87 96 97 97
65 65 56 49 46 50 48 46 41 43 50 47 39 36 39 41 42 45 49 55 56 55 55 55 57 57 54 53 51 47 44 40 37 34 30 26 29 34 39 46 50 48 52 57 64 68 66 63 58 63 86 94 97 97
68 65 48 57 54 47 45 42 43 47 51 49 47 48 48 50 53 53 54 54 54 55 56 56 53 49 50 50 48 42 37 32 30 26 23 23 32 40 47 54 54 52 53 50 48 54 66 70 67 67 86 96 97 97
66 52 62 67 57 45 46 54 54 50 51 53 54 53 53 58 57 56 54 55 56 54 52 47 46 48 45 39 33 30 29 31 29 31 34 34 40 51 59 60 59 70 70 61 52 45 46 55 69 76 87 97 97 97
52 50 61 61 57 53 48 48 50 51 51 55 57 58 61 61 58 55 55 55 55 48 46 44 41 37 34 30 30 29 27 25 27 32 41 48 51 59 64 64 75 84 80 76 61 54 45 43 52 67 85 97 98 98
52 56 66 65 58 54 57 58 58 58 59 60 62 62 62 58 56 56 57 55 50 40 38 36 33 30 28 28 27 30 31 32 32 32 33 43 54 63 68 66 77 92 90 87 81 65 54 44 44 51 70 91 98 98
60 62 57 59 60 70 69 68 66 65 66 65 65 61 61 60 60 59 57 49 36 33 31 28 27 26 26 26 28 33 40 39 37 35 39 39 44 59 73 74 75 82 90 93 88 78 62 53 53 53 60 75 88 93
63 69 70 79 78 77 77 75 72 68 68 66 65 64 64 63 62 60 54 37 30 29 28 26 24 26 27 29 33 33 41 45 41 32 30 39 42 46 56 75 71 77 86 83 81 81 71 56 58 56 54 57 70 85
67 68 67 71 74 71 73 73 72 69 68 68 68 67 66 65 62 51 41 30 29 29 28 28 30 31 31 33 31 29 31 40 45 44 39 45 43 43 44 49 70 67 76 71 70 70 68 59 53 54 53 52 55 65
66 69 68 66 65 63 65 65 64 65 67 67 68 68 66 61 53 40 31 30 29 29 29 29 31 30 29 25 29 40 49 54 57 55 52 52 53 50 46 44 46 66 64 59 61 61 59 57 53 49 48 49 49 50
69 67 67 66 65 64 66 67 68 67 66 65 64 62 54 49 39 31 28 27 28 25 22 21 21 21 26 34 45 53 63 74 78 80 79 79 78 65 54 48 42 49 58 52 55 58 53 48 51 49 45 44 45 45
76 74 70 72 70 68 67 67 66 63 61 58 55 52 45 36 29 27 24 21 18 16 16 16 23 34 42 49 64 81 92 96 94 87 83 82 85 88 70 54 47 43 50 56 52 55 55 47 46 50 47 43 41 42
78 74 72 73 71 69 65 63 60 59 56 52 47 42 35 28 24 22 17 15 15 19 24 31 37 43 51 61 74 88 92 89 85 80 76 76 80 83 88 69 55 48 47 56 58 52 53 54 52 52 49 42 36 39
79 73 67 67 65 65 63 62 59 55 50 45 41 36 29 25 18 14 13 15 19 25 34 40 50 62 71 79 79 76 74 69 66 69 71 72 78 79 89 86 64 53 48 49 57 56 51 47 50 50 48 46 43 42
73 72 70 70 67 64 59 54 52 47 42 37 31 27 24 22 18 14 16 19 26 36 45 53 62 71 78 79 82 72 55 55 64 71 71 68 72 80 89 88 71 61 55 47 52 55 53 49 46 44 43 43 43 42
76 71 68 64 62 60 55 50 46 40 34 30 27 24 21 20 18 17 19 24 32 44 54 66 74 79 82 83 64 50 52 61 70 74 68 66 68 76 82 86 79 65 59 55 53 51 50 48 47 45 44 43 43 43

GFSWCAN_prec_cthk_060.txt.gz
RH
98 98 92 98 96 95 96 92 78 54 49 42 44 41 38 34 30 29 29 29 28 36 41 40 42 44 44 44 51 59 74 73 82 83 75 77 75 75 77 77 78 76 73 73 75 77 76 72 74 72 72 67 64 63
98 96 95 99 98 95 96 86 72 56 43 43 46 41 36 34 32 30 28 29 31 32 39 38 40 41 42 48 51 62 71 77 77 86 84 81 75 78 75 75 78 81 75 72 71 71 71 73 74 76 69 64 61 61
98 98 97 99 99 97 94 86 71 52 46 43 45 42 35 36 33 32 28 30 36 39 44 46 47 47 46 49 55 56 69 76 76 79 82 83 80 82 76 72 71 72 73 72 66 64 65 62 61 59 60 59 58 58
98 91 90 99 98 95 93 87 66 49 44 43 45 39 38 35 35 33 31 34 34 35 41 45 43 44 47 51 55 57 60 72 75 78 77 81 87 85 82 81 77 71 65 61 55 51 48 54 57 56 55 50 47 45
97 96 98 98 94 94 91 79 60 49 46 44 46 41 39 35 37 34 33 34 33 33 38 44 42 42 48 52 52 56 60 62 70 74 78 83 86 87 81 77 73 67 67 62 59 60 62 62 64 68 63 60 58 56
98 93 99 99 97 93 93 76 61 48 46 44 45 43 35 37 38 35 35 34 34 32 33 36 33 34 41 47 52 56 63 66 63 62 67 72 72 73 71 66 68 72 80 84 80 77 72 70 70 69 65 62 58 53
97 93 96 98 97 95 86 73 56 47 47 44 47 38 36 38 37 32 31 29 28 26 21 27 27 26 30 36 45 53 61 63 66 68 71 71 74 77 77 74 72 79 83 85 82 81 77 75 71 68 63 60 57 55
97 99 96 97 97 92 72 62 47 42 47 48 45 40 38 38 35 26 24 18 18 12 10 18 22 28 29 36 39 45 56 61 65 68 73 73 75 75 74 72 73 75 77 77 78 78 75 72 74 72 68 65 61 57
97 98 97 98 94 82 75 52 46 48 48 47 49 40 38 33 27 21 17 15 13 12 13 16 18 24 27 35 42 47 52 55 59 62 66 72 75 76 70 65 64 66 66 67 70 74 76 75 73 73 71 70 67 64
97 98 97 97 97 86 61 57 49 45 51 59 40 27 29 29 25 20 17 16 15 14 14 22 24 23 28 35 39 44 47 49 56 55 59 64 62 54 51 49 45 43 40 40 41 43 50 61 71 77 77 78 77 73
94 95 98 98 90 75 67 49 45 50 55 45 32 28 30 31 24 18 15 16 16 19 21 25 25 26 31 35 38 41 44 47 48 50 49 52 50 37 32 27 22 21 24 25 26 29 32 39 46 58 74 81 83 83
96 98 98 95 84 70 58 45 50 50 51 37 27 27 32 26 22 19 20 19 17 21 26 26 30 30 36 40 40 44 47 48 51 51 50 51 41 27 23 23 23 26 26 27 28 28 27 32 38 44 55 73 86 87
98 98 97 89 80 61 45 51 47 47 44 35 26 26 27 25 22 19 19 22 23 24 27 28 31 34 39 43 47 48 51 55 54 56 56 49 42 31 28 27 29 30 32 33 33 33 31 33 38 43 47 57 79 86
98 98 94 87 68 52 56 52 44 46 37 30 24 27 32 26 24 21 19 20 21 24 25 27 33 37 42 46 50 56 56 60 62 66 62 54 48 39 36 37 37 37 38 38 39 40 42 42 42 47 49 53 63 89
94 97 93 79 66 63 51 47 43 50 35 26 24 31 35 36 32 28 27 25 25 26 27 32 37 40 47 49 53 58 59 61 59 65 60 60 50 45 41 40 39 39 39 41 44 46 48 52 52 52 53 55 61 78
99 98 88 77 65 54 52 41 49 45 33 31 37 43 46 38 39 38 35 33 28 29 30 31 38 44 52 53 58 61 62 61 62 66 65 57 50 43 40 39 40 40 40 41 43 44 45 50 56 59 61 62 63 74
96 86 77 73 62 52 46 45 50 46 41 41 49 44 39 37 39 39 38 36 35 36 40 42 45 48 57 60 59 56 56 57 53 50 49 46 43 40 37 32 29 29 32 36 38 43 51 59 64 67 69 69 68 76
89 84 79 64 56 53 47 52 44 45 51 53 46 41 40 41 42 42 40 40 43 45 47 51 51 54 54 51 50 48 48 47 48 47 42 37 29 26 26 26 26 31 38 41 37 39 52 68 79 79 77 76 74 79
86 82 64 57 55 56 54 47 48 57 62 54 44 43 44 45 43 40 41 46 48 50 49 49 49 47 44 45 45 45 46 45 40 33 27 25 25 26 29 33 35 39 49 45 50 51 51 54 62 79 84 81 79 82
71 62 65 59 57 54 49 45 52 54 59 50 48 49 49 51 51 50 52 53 53 49 48 47 44 42 42 42 43 42 37 33 29 26 22 20 23 27 34 36 41 49 54 55 70 72 65 54 50 60 79 82 81 87
64 69 65 63 55 47 47 56 59 58 54 54 55 57 58 57 57 58 57 54 51 48 46 41 40 41 42 40 37 33 29 27 26 26 27 23 22 23 28 40 49 56 59 67 83 88 84 71 56 51 55 73 83 92
68 66 59 52 46 50 60 62 60 57 60 65 62 59 57 55 57 57 55 52 50 44 43 41 40 38 35 32 30 27 25 25 28 30 33 32 30 28 29 39 49 60 68 68 85 94 93 83 77 59 49 56 77 91
68 58 51 48 53 60 64 62 60 63 63 61 56 56 60 61 58 54 53 52 47 43 40 35 31 30 29 27 25 24 25 29 31 34 35 35 34 32 31 34 45 52 68 74 83 87 91 93 86 76 60 53 61 79
58 61 66 72 68 70 66 62 62 63 62 62 61 62 61 60 57 55 53 49 43 36 30 28 27 27 25 23 23 25 30 34 33 28 31 39 41 40 44 41 43 45 57 79 78 78 78 82 82 78 66 62 55 60
69 76 75 79 73 64 63 65 65 65 68 66 62 62 62 61 58 58 55 42 33 29 28 28 27 27 25 23 23 23 25 29 29 30 41 56 58 57 55 52 46 43 47 59 75 77 80 79 77 73 66 64 61 58
72 76 75 73 73 71 72 70 71 72 69 66 65 64 62 60 58 53 44 33 31 30 30 28 27 26 23 22 20 19 22 30 43 54 63 72 76 80 77 72 64 54 51 50 55 69 71 70 67 68 65 60 61 59
76 78 77 77 77 76 78 76 72 66 63 61 63 62 60 58 53 42 34 32 32 32 29 27 22 17 17 17 23 31 44 57 67 73 80 88 90 90 90 85 82 81 72 52 45 62 65 60 62 66 64 58 56 56
74 74 76 76 73 69 68 63 61 59 58 57 57 59 56 50 43 35 34 32 31 26 21 16 15 17 23 31 37 46 57 69 77 79 77 74 73 73 75 77 85 88 86 64 47 53 62 59 60 65 62 60 56 52
72 70 65 68 66 62 60 61 59 55 54 55 55 54 48 40 35 33 31 29 23 18 15 16 19 26 36 46 59 65 67 70 64 60 57 50 50 63 74 73 78 84 86 75 54 52 62 60 60 64 60 57 58 56
70 66 67 70 70 71 68 62 59 56 54 52 49 46 40 35 32 29 25 19 16 16 17 21 28 37 44 51 60 71 71 71 61 54 52 64 69 66 67 71 76 83 88 79 58 53 61 63 61 61 58 52 53 56
74 75 75 73 71 69 65 59 58 58 54 50 45 41 37 33 26 20 17 15 16 17 22 29 40 49 54 57 64 69 70 54 47 53 61 70 76 65 67 76 79 84 89 76 59 53 56 63 60 57 56 54 53 54
80 76 74 76 72 66 64 64 61 55 48 44 41 36 32 26 21 17 15 17 20 24 31 40 48 50 57 65 68 64 49 46 50 55 65 71 77 70 67 72 79 82 78 67 60 55 50 57 61 56 52 50 52 54
77 74 70 68 70 71 66 60 54 50 46 40 33 28 25 22 19 18 19 23 27 34 38 48 51 53 61 67 63 49 48 50 57 67 71 74 76 76 66 70 73 78 74 65 61 58 54 52 59 60 56 54 51 49

GFSWCAN_prec_cthk_063.txt.gz
RH
70 81 94 96 97 91 97 99 98 94 84 68 58 51 37 34 35 30 29 29 29 34 40 40 40 42 42 48 52 54 63 66 73 73 72 67 65 68 69 70 72 72 74 71 70 74 70 63 66 66 69 64 62 58
64 83 91 98 94 90 95 99 98 92 83 60 66 48 38 35 35 31 30 29 30 32 39 39 39 38 39 40 45 51 57 63 69 75 72 75 73 71 74 77 72 76 72 71 67 65 62 58 60 62 63 65 64 57
74 86 96 98 98 99 97 99 96 89 72 61 57 52 36 38 34 31 31 30 27 34 37 39 41 40 41 42 44 49 55 60 63 71 74 78 80 81 71 68 72 70 70 67 63 59 58 56 56 54 52 52 51 52
74 88 95 98 98 96 98 98 92 85 77 54 51 53 38 39 35 32 31 31 32 35 36 44 43 43 42 42 42 44 52 59 64 69 73 75 73 73 76 78 72 68 68 64 60 57 54 50 52 53 54 55 55 54
78 86 96 97 98 97 94 96 91 86 62 51 53 51 44 42 36 35 35 34 31 33 34 41 43 45 46 45 45 44 45 51 57 65 71 76 77 76 72 73 72 74 71 68 66 68 70 69 69 68 66 65 63 62
78 85 97 99 98 97 94 98 95 77 60 50 54 48 44 43 39 36 35 36 33 24 27 34 35 43 45 47 46 49 48 47 49 54 57 62 66 70 67 63 63 66 68 71 77 82 84 83 82 79 76 74 71 69
85 92 98 98 98 99 98 98 90 72 54 58 48 48 48 46 40 35 36 33 31 20 18 28 30 30 37 42 44 46 49 50 49 50 51 52 56 61 65 63 62 64 69 77 77 74 75 76 78 79 79 77 74 71
87 94 98 96 98 98 98 98 81 63 60 58 46 54 46 46 41 36 33 31 26 13 11 24 30 33 35 37 39 42 44 46 49 54 54 56 58 62 64 60 64 64 64 64 70 73 71 66 65 69 73 73 72 71
84 96 97 93 94 97 98 90 80 59 62 51 52 53 51 46 39 32 29 25 14 10 16 18 26 29 34 38 40 41 42 43 44 47 48 51 52 54 51 50 50 51 48 44 38 34 34 35 36 39 46 54 63 70
89 98 98 97 96 97 98 89 71 59 60 52 58 57 50 43 38 25 17 18 14 14 15 20 23 29 34 38 41 42 42 42 47 44 44 44 43 39 39 34 33 29 24 23 22 23 25 25 27 28 30 36 44 50
96 98 98 98 98 98 94 81 61 60 59 58 59 50 36 33 30 22 21 22 17 20 21 23 26 30 33 38 39 42 44 46 51 50 47 48 43 37 33 25 21 21 23 26 29 31 32 32 31 30 30 31 36 42
98 98 97 98 98 96 86 64 62 58 58 60 48 31 28 28 27 28 28 21 20 23 23 27 27 32 35 37 39 44 49 49 54 56 56 57 51 46 34 27 25 27 28 29 32 34 35 36 37 38 39 39 39 40
97 97 98 98 95 91 69 66 63 57 65 51 28 24 23 25 33 32 29 28 27 22 25 26 29 33 36 40 41 45 50 53 57 58 58 60 58 48 43 38 37 37 36 36 38 38 39 40 40 41 46 48 48 50
98 97 98 98 96 79 75 65 59 60 52 33 24 26 27 27 32 28 30 26 22 23 25 27 30 37 39 41 44 50 51 57 60 62 60 58 55 51 51 50 49 46 43 42 42 42 41 38 38 40 44 48 52 56
97 98 98 98 90 80 65 60 60 50 41 33 26 27 28 33 35 36 30 28 27 27 26 30 33 37 42 44 45 54 60 59 54 55 56 57 54 52 50 48 48 46 44 41 39 35 34 33 34 34 41 48 52 54
98 98 98 97 89 69 61 64 53 40 40 34 32 34 34 35 41 37 35 37 33 35 34 36 38 43 49 53 57 60 57 52 53 55 54 51 49 47 47 44 41 37 33 30 31 32 31 29 31 38 47 58 64 71
97 96 96 93 72 62 68 62 42 36 41 44 40 36 33 32 40 45 41 40 38 41 41 43 47 53 56 56 53 48 49 49 49 44 42 42 42 42 38 31 27 26 27 29 33 34 33 32 38 42 52 73 84 91
97 96 96 78 69 69 67 48 37 39 52 49 42 35 38 46 47 45 45 44 44 42 45 48 50 51 48 45 43 42 42 40 39 39 38 34 30 27 25 24 25 26 27 33 40 41 41 44 51 51 49 63 90 95
95 97 86 72 70 70 56 41 38 48 58 51 44 45 53 50 49 49 49 46 45 44 44 49 47 45 41 38 39 39 37 37 35 32 28 25 24 23 22 22 22 25 31 37 41 50 51 65 76 69 56 55 72 93
99 93 79 77 75 55 44 43 45 50 57 57 57 57 51 51 54 53 51 54 51 49 48 47 42 38 37 36 35 35 33 31 28 26 25 23 24 24 26 28 27 26 30 40 43 59 60 74 85 86 78 64 59 75
96 91 85 77 59 48 47 46 54 60 61 64 60 53 53 57 59 60 60 55 53 49 46 41 38 37 36 35 33 29 27 24 23 24 23 23 25 26 27 29 30 30 31 39 45 52 67 74 85 97 92 85 68 62
91 82 73 59 50 49 51 55 62 66 67 65 57 57 62 65 66 60 56 56 52 43 42 40 39 36 31 28 26 24 22 23 24 24 23 26 25 25 28 36 42 42 43 41 45 48 60 75 81 86 83 83 79 67
82 73 60 52 53 60 66 64 64 66 67 63 61 64 68 65 59 56 57 53 46 43 42 38 31 27 25 24 22 22 23 25 25 23 24 26 29 38 41 48 58 61 58 53 49 47 53 73 75 72 73 76 77 72
70 61 56 61 64 69 66 67 68 68 67 67 67 68 61 61 59 57 53 49 45 41 33 29 27 26 24 23 22 21 21 21 20 20 23 29 38 49 61 69 75 76 72 71 65 53 48 53 73 71 70 75 75 72
63 71 71 72 66 67 71 73 71 69 70 70 63 62 62 60 57 55 51 47 41 32 29 29 27 25 24 21 18 16 15 17 20 25 39 52 58 61 65 70 75 79 81 83 82 73 56 45 57 68 72 72 72 69
85 83 77 72 70 69 71 72 72 70 66 65 66 67 64 60 56 53 48 39 33 31 30 29 27 24 20 16 16 17 21 27 32 40 52 65 68 68 62 61 58 61 73 78 84 88 77 56 47 64 72 67 64 64
82 82 81 75 74 72 71 69 65 65 66 66 67 65 59 58 54 46 38 34 32 32 30 27 24 18 17 17 19 23 29 35 43 50 59 66 66 62 60 60 66 61 65 70 77 83 87 75 49 51 62 60 59 63
81 82 82 79 76 74 75 73 70 67 67 62 57 55 54 50 44 38 36 34 33 30 26 21 18 18 19 21 25 29 32 37 49 59 66 67 58 52 55 73 81 72 68 71 75 82 88 82 54 55 62 58 60 65
80 82 81 85 84 79 75 72 68 60 55 52 53 53 49 42 39 37 34 32 28 24 19 18 18 20 22 27 30 33 37 46 53 60 60 46 44 56 71 82 77 68 70 71 76 86 87 75 57 63 65 61 63 66
81 80 79 79 77 73 69 64 60 56 54 54 51 47 43 39 35 32 29 24 21 19 18 18 20 22 24 27 29 37 50 55 59 52 46 49 60 72 78 80 69 69 71 71 79 86 83 64 58 65 64 61 63 63
76 71 70 70 71 70 67 64 61 59 56 54 50 44 39 35 30 25 23 19 18 17 19 21 23 25 28 32 35 42 55 60 54 49 55 68 74 76 77 74 69 73 71 75 82 80 69 58 58 65 62 58 58 60
74 73 70 74 80 77 71 66 64 61 57 51 45 40 36 31 27 21 19 17 18 19 21 24 27 31 35 39 45 55 60 53 50 57 72 76 77 77 76 76 77 77 77 69 66 64 61 58 55 60 63 60 58 57
76 75 78 80 80 77 71 65 62 57 51 46 42 37 32 28 22 18 17 19 20 23 27 32 36 37 40 46 58 63 53 51 57 71 77 82 86 84 80 82 80 82 80 80 69 62 59 56 54 54 59 62 60 59

GFSWCAN_prec_cthk_066.txt.gz
RH
60 64 71 86 90 97 97 92 96 98 98 94 93 73 52 40 35 31 30 32 31 33 39 37 37 39 43 47 51 51 58 58 63 67 66 68 66 59 61 61 61 65 70 72 73 79 76 68 69 71 72 71 70 69
62 70 77 87 91 97 95 95 98 97 95 96 95 72 48 39 39 33 34 33 32 32 41 39 39 41 42 46 49 54 57 58 63 67 64 64 65 66 64 70 65 71 70 75 72 72 65 64 63 63 60 61 61 61
66 74 76 81 92 98 98 98 98 98 97 97 82 75 49 41 40 35 34 34 32 37 43 40 37 38 37 39 44 49 53 55 58 60 60 62 65 67 69 73 73 72 73 72 71 66 69 68 63 62 58 56 53 52
63 66 72 78 94 97 98 97 98 98 98 95 90 69 49 44 41 36 33 34 33 33 39 42 39 39 39 38 39 43 47 50 55 59 60 62 63 63 69 70 71 73 74 68 67 67 67 65 62 60 59 60 60 62
66 65 69 80 88 98 98 97 97 97 98 91 78 77 47 46 41 35 35 35 33 35 38 42 40 41 41 39 40 42 47 50 53 57 61 64 62 64 65 65 66 66 66 69 70 69 67 67 71 73 73 73 72 72
64 62 67 79 88 98 98 98 97 96 98 85 71 67 51 47 42 37 38 37 34 32 32 41 41 44 43 42 43 42 43 46 48 49 51 51 52 56 57 56 53 55 58 60 63 67 74 79 79 78 77 77 77 76
58 56 64 78 91 97 98 98 98 97 95 66 74 70 51 51 44 39 35 31 30 24 20 33 37 43 43 42 43 45 43 41 43 42 44 42 42 44 49 49 47 51 53 60 66 70 73 71 68 64 62 62 64 70
52 56 76 88 93 96 98 98 98 96 81 65 70 59 53 52 51 46 35 30 19 12 14 26 31 34 38 41 41 41 42 43 41 42 41 40 41 42 48 44 44 48 51 52 52 50 47 40 33 29 27 27 30 34
52 72 82 96 98 98 98 98 98 89 68 72 62 63 57 58 53 44 36 30 14 11 17 24 31 35 34 36 41 41 42 44 40 44 42 41 44 48 42 40 40 44 41 37 31 23 21 21 22 23 24 25 26 28
66 75 86 96 96 97 98 98 97 75 77 68 65 63 59 56 49 42 35 20 14 13 15 24 26 33 37 39 43 45 44 46 47 48 44 46 47 47 48 48 46 39 32 26 22 22 24 26 29 30 31 31 33 34
68 75 89 94 94 94 97 97 87 80 74 65 66 62 58 54 37 26 21 23 21 24 22 23 26 31 37 39 42 42 45 46 52 54 53 51 58 55 54 50 40 36 34 30 32 34 33 33 34 34 33 34 36 36
67 77 95 96 96 96 98 96 81 79 68 62 57 60 58 40 26 27 30 25 26 29 25 24 29 30 34 36 38 42 46 48 51 55 57 59 66 58 50 41 38 38 39 37 37 39 40 42 43 41 38 36 36 37
64 88 95 96 97 97 98 90 75 73 62 64 65 54 42 28 36 34 30 34 33 25 26 25 30 31 35 37 37 42 47 50 54 61 58 62 55 49 46 43 41 42 42 45 46 49 49 48 46 43 37 36 35 38
84 91 96 98 98 98 96 80 67 69 67 61 50 35 30 28 31 39 39 31 27 25 26 26 29 35 36 38 40 46 51 57 59 57 56 58 52 48 45 46 49 49 50 47 44 42 38 35 31 29 28 29 33 36
95 97 98 98 98 98 84 74 77 69 62 53 38 30 30 30 34 40 34 30 30 30 27 30 32 34 40 44 48 57 60 61 56 55 57 54 49 47 47 44 40 38 36 34 30 27 27 27 25 24 25 27 33 42
98 99 98 98 98 91 77 79 72 68 58 45 35 29 31 31 34 35 39 37 31 32 32 32 39 45 51 56 59 59 58 54 52 51 48 41 37 37 36 35 32 28 25 23 23 24 26 29 30 30 34 40 43 47
97 96 96 98 92 79 82 77 69 63 49 42 36 31 37 32 35 39 40 35 33 34 40 41 47 55 58 60 57 50 49 46 44 37 35 36 35 31 25 22 20 20 19 19 21 25 29 32 38 43 48 62 64 54
97 96 97 96 84 88 83 68 61 53 52 43 41 43 32 30 36 38 41 44 44 41 44 50 54 57 58 52 48 43 38 38 37 34 32 29 23 21 20 21 22 22 22 22 25 29 33 36 45 52 62 76 81 72
94 96 97 92 86 81 68 57 55 57 54 51 45 39 41 42 40 42 45 46 46 45 49 54 54 52 47 40 39 36 35 34 31 28 24 20 19 20 21 22 24 25 28 31 31 31 38 42 49 55 69 80 87 88
97 99 98 88 79 69 60 56 53 50 57 56 48 41 43 49 53 53 51 50 49 54 54 53 50 42 39 37 35 34 32 29 25 21 18 18 20 21 21 23 25 29 33 35 38 41 42 47 48 56 65 82 79 84
98 98 92 82 72 62 57 57 53 47 51 60 52 51 55 58 57 54 53 54 55 54 51 45 41 39 38 36 32 29 26 22 19 20 20 22 22 23 22 26 32 38 45 48 51 47 49 53 53 52 57 75 77 80
94 93 84 76 63 58 58 57 49 47 51 61 58 60 64 63 59 57 59 58 54 50 45 42 41 40 34 28 24 22 20 20 20 20 20 21 22 23 26 31 38 46 55 60 63 62 54 58 60 57 51 65 74 73
93 88 78 64 57 58 59 54 51 54 59 65 69 70 65 61 61 62 61 55 51 47 44 43 38 30 25 23 22 22 21 17 15 14 16 19 23 28 34 42 53 60 60 57 61 63 59 64 67 66 55 51 65 69
85 78 69 65 61 64 59 60 61 64 68 72 71 67 65 66 66 63 58 52 48 45 42 36 30 27 25 23 21 18 15 14 16 17 24 29 31 35 43 52 65 68 67 59 60 66 66 68 73 75 64 47 57 67
82 78 70 67 64 62 62 63 67 70 74 74 70 70 72 69 66 59 54 50 45 42 35 32 29 27 24 21 19 16 17 19 22 24 29 37 40 43 50 62 68 62 58 57 67 74 69 67 70 78 79 52 55 63
82 77 72 68 67 64 66 68 71 75 73 73 74 74 72 65 58 54 54 46 41 36 32 29 27 24 23 21 18 18 21 25 28 29 32 39 47 51 57 61 52 48 57 73 80 76 71 70 71 74 84 61 54 64
85 79 73 67 68 69 74 76 76 76 75 74 74 69 62 59 57 52 43 40 36 32 31 28 26 23 19 18 19 22 26 27 28 31 37 45 52 57 54 47 50 62 71 76 72 70 70 73 75 75 85 70 53 62
81 77 72 70 71 74 77 77 78 78 74 65 61 61 58 53 48 42 40 36 34 31 27 24 21 19 18 20 22 24 25 26 30 34 41 51 55 52 51 62 69 74 78 75 69 71 70 72 74 81 89 69 55 64
80 79 78 81 80 79 80 77 71 64 62 60 62 60 50 44 42 40 37 33 29 26 23 20 18 19 20 23 26 27 28 29 30 34 44 49 49 54 68 73 74 76 75 73 77 73 72 79 84 89 83 64 64 68
88 85 82 82 83 82 78 72 70 66 62 58 51 48 47 45 41 36 32 28 23 20 19 19 20 21 23 27 29 31 33 34 40 46 47 47 51 64 73 80 79 73 72 79 78 76 78 83 85 79 67 68 73 69
85 84 85 88 88 81 77 71 68 64 56 54 53 51 46 41 35 30 25 22 20 20 20 20 22 26 31 32 31 31 36 43 48 49 49 52 63 72 77 80 78 77 79 82 79 74 69 73 70 65 66 72 69 65
86 84 83 84 81 75 70 65 63 62 62 59 53 46 40 35 30 26 23 22 21 20 21 24 28 32 34 34 34 37 43 46 47 49 52 64 71 74 77 79 74 72 76 81 81 76 64 64 62 63 67 69 68 65
82 80 78 75 73 70 69 68 68 65 59 53 47 41 36 33 28 25 22 20 20 22 24 29 32 35 36 37 40 44 46 46 48 51 61 68 71 72 75 70 73 75 77 80 81 79 75 64 61 60 58 59 65 65

GFSWCAN_prec_cthk_069.txt.gz
RH
70 60 56 66 70 87 95 96 98 95 95 97 97 97 68 46 45 49 38 34 34 35 41 40 40 41 43 46 49 48 54 57 59 63 62 61 59 54 56 57 62 64 68 69 72 79 83 73 72 72 71 71 73 73
67 57 61 67 76 93 90 98 98 98 97 96 97 96 57 50 48 45 37 41 35 32 43 42 41 42 44 48 47 49 51 53 54 60 59 61 60 61 59 63 58 65 62 67 70 74 73 74 72 74 72 72 72 69
65 54 64 70 81 84 92 98 98 98 98 98 97 85 67 50 49 41 41 35 34 39 43 42 42 43 44 46 48 51 53 54 53 55 59 60 59 61 61 62 62 63 65 71 72 73 77 72 72 71 69 64 60 57
61 57 65 72 80 79 96 98 98 98 98 98 98 90 62 54 50 44 43 42 38 37 44 47 42 40 40 40 42 44 47 48 52 54 57 57 56 55 60 59 60 63 65 67 70 70 71 70 67 64 62 65 67 66
58 56 64 74 77 79 96 97 98 98 98 98 96 73 56 50 52 46 42 42 38 35 41 45 42 42 40 38 38 39 40 43 47 51 56 56 56 57 56 55 57 56 58 59 63 65 64 66 68 70 72 72 72 73
55 49 63 73 69 81 96 97 98 97 98 98 96 71 64 53 50 45 43 42 39 34 34 44 45 43 41 40 39 40 42 44 47 48 51 50 49 52 51 50 43 47 47 47 50 52 57 62 63 65 62 60 58 55
55 46 61 66 64 81 97 98 97 98 98 97 89 70 60 52 49 45 42 40 37 30 30 43 45 44 42 42 41 39 38 41 44 43 45 45 44 45 48 45 39 39 44 46 49 50 54 53 50 45 40 37 34 31
51 44 59 56 62 84 96 97 97 98 97 92 76 68 60 54 51 48 41 35 29 22 22 30 42 45 44 42 42 42 39 38 39 40 39 40 39 40 44 44 45 47 48 49 48 45 42 41 35 30 27 24 22 23
42 41 51 52 68 85 97 97 97 97 88 88 76 71 64 55 50 45 36 26 18 12 19 25 34 40 42 42 42 41 41 44 42 45 46 46 48 51 47 48 50 51 51 47 42 39 37 32 25 24 26 29 31 31
38 38 48 64 78 85 96 97 97 96 86 84 76 72 67 63 59 54 42 24 14 14 15 30 29 36 38 39 41 42 42 46 45 48 46 48 51 52 51 51 50 48 46 42 39 37 35 31 31 32 35 38 41 42
34 42 62 77 85 90 97 97 96 92 82 78 72 70 69 70 57 40 33 23 20 23 23 28 28 34 38 40 41 41 44 45 49 51 51 51 60 55 53 51 47 42 40 39 39 41 43 42 40 43 46 47 44 42
34 57 77 82 87 91 97 96 92 78 78 71 71 72 70 57 41 36 33 27 27 27 25 27 30 33 37 37 37 40 43 45 47 52 54 58 60 49 44 43 39 38 39 40 41 43 45 47 44 42 40 34 30 29
44 63 76 84 93 96 98 96 83 78 77 78 72 67 59 41 30 27 27 33 35 29 27 27 30 31 33 35 35 40 44 48 52 56 56 53 55 47 43 40 39 41 43 44 44 40 36 31 27 26 22 22 20 19
51 64 75 92 97 96 98 96 82 84 76 71 61 58 50 35 30 32 29 30 28 26 24 25 29 33 35 37 38 47 50 56 59 57 54 54 49 45 43 43 43 40 35 31 27 22 19 19 18 21 23 24 26 28
56 69 93 98 96 97 97 90 88 82 68 60 50 50 45 39 39 47 34 29 29 28 24 27 31 35 40 45 50 57 60 63 58 54 53 51 47 43 38 34 32 25 20 19 18 17 17 19 23 25 28 30 34 38
65 94 99 98 98 98 96 94 87 73 59 53 49 49 46 37 38 46 45 36 29 28 28 28 36 41 49 53 60 63 59 57 50 51 46 41 34 34 30 23 19 19 19 19 18 17 20 26 32 32 34 37 45 52
86 97 98 98 98 98 94 90 78 65 62 58 51 45 40 29 34 43 36 35 33 31 35 36 38 48 57 64 62 57 54 47 44 40 34 33 31 24 20 18 19 20 21 21 22 26 28 31 39 43 44 47 51 58
96 97 98 98 97 97 92 81 72 68 68 62 54 43 35 31 31 31 33 35 35 36 40 44 49 56 62 55 54 46 42 41 40 37 32 26 21 18 18 18 20 22 23 24 27 31 32 37 39 42 51 54 59 59
98 96 98 96 91 84 82 79 74 73 69 56 47 37 34 38 36 37 41 43 43 42 45 50 56 56 53 46 42 39 37 35 33 29 22 18 16 16 16 19 22 24 25 27 32 36 42 50 51 49 50 54 63 63
98 98 99 97 87 79 76 78 69 60 61 49 44 45 43 43 39 39 44 46 45 46 49 56 55 48 43 39 37 34 32 30 25 20 17 15 16 17 17 20 24 28 30 34 40 52 60 58 59 56 57 56 56 58
99 99 97 89 80 71 69 71 63 60 57 48 46 49 44 42 48 49 48 48 48 51 53 52 47 43 40 38 35 31 27 22 21 19 17 15 14 15 17 22 27 29 35 42 51 59 66 62 58 58 64 61 59 64
97 95 91 88 74 68 67 67 58 56 52 51 50 48 49 57 55 52 52 52 55 53 50 46 43 42 39 33 29 26 23 20 16 14 14 16 19 23 26 30 34 36 44 53 63 69 64 59 61 68 73 67 62 66
95 95 91 79 70 65 67 63 58 61 60 56 51 53 58 61 61 58 56 56 56 51 48 46 43 37 31 29 27 25 21 16 13 14 18 21 25 27 31 36 44 49 54 66 69 63 62 67 76 79 76 71 68 71
96 90 79 71 67 68 65 63 58 59 64 67 59 60 66 67 63 61 59 59 54 49 48 43 36 31 29 28 25 21 18 15 15 16 20 23 24 26 34 42 50 57 62 56 55 60 71 81 83 80 73 68 69 79
85 80 71 70 64 63 65 64 60 55 57 66 71 74 74 70 65 63 63 58 50 48 44 37 33 30 28 25 21 19 17 17 18 19 21 25 27 30 37 44 48 49 50 59 68 73 79 82 80 78 76 73 70 79
88 81 71 64 62 62 65 64 61 60 62 68 76 77 72 70 66 62 62 51 49 44 37 33 31 28 25 22 19 17 17 18 20 21 25 28 32 36 40 42 46 53 66 73 78 80 76 76 80 77 75 77 76 80
85 79 68 62 57 60 65 64 64 67 70 71 78 75 71 70 65 58 51 48 42 37 34 32 29 25 21 18 18 19 21 23 25 27 29 33 38 41 43 47 53 64 73 78 77 73 76 80 77 76 73 76 81 81
80 73 67 65 62 61 65 69 73 76 76 73 72 71 66 60 58 53 47 41 37 34 31 28 24 19 18 18 19 21 24 26 27 31 36 41 42 44 50 58 69 73 74 71 68 71 74 77 78 78 78 82 86 75
78 74 68 71 70 72 80 82 80 75 72 70 71 69 58 53 51 46 41 38 34 30 27 22 19 18 19 21 25 29 28 28 30 34 36 39 44 51 58 67 71 70 68 69 73 74 74 75 75 80 85 88 83 65
76 74 74 77 83 86 85 80 77 75 71 65 58 56 54 50 46 43 39 34 29 25 22 20 19 20 22 26 29 31 31 32 34 36 38 42 48 55 62 67 67 66 68 68 73 76 73 68 67 75 75 70 65 64
77 78 84 87 88 86 83 76 71 66 61 58 56 53 51 49 46 39 33 28 25 23 21 21 21 24 28 31 33 33 34 34 36 38 42 47 53 59 64 64 64 66 66 66 71 75 74 64 59 60 60 62 67 69
90 89 87 88 87 81 75 71 69 65 62 58 55 52 50 45 38 33 28 26 24 22 21 22 24 27 31 34 35 35 34 35 39 43 46 52 56 63 64 61 63 64 65 66 68 72 76 70 58 56 59 63 69 69
90 88 86 85 84 79 73 68 65 64 60 59 56 51 46 39 34 30 27 24 22 22 21 22 25 30 34 37 36 35 35 38 42 45 49 54 63 67 60 60 62 64 66 68 69 71 74 78 73 61 56 54 57 62

GFSWCAN_prec_cthk_072.txt.gz
RH
67 61 65 63 64 67 91 89 95 97 98 98 98 98 97 84 73 63 51 34 35 38 48 47 47 48 49 51 52 50 54 55 59 60 60 59 56 55 56 54 56 58 64 66 68 73 68 54 60 62 63 65 65 66
63 58 60 63 64 70 84 91 95 97 98 98 98 97 89 70 57 64 42 35 36 36 46 47 49 48 48 50 51 51 50 52 54 57 58 58 58 58 57 62 56 60 57 61 62 62 58 60 62 64 65 66 67 66
61 55 59 60 62 70 81 91 92 97 98 98 98 96 82 61 52 63 43 36 37 41 43 46 45 46 48 50 50 51 50 51 50 51 56 57 58 59 59 59 57 58 60 63 63 61 65 68 69 70 70 68 68 64
64 52 58 59 60 70 82 89 95 97 97 98 98 97 78 57 54 61 45 37 37 37 46 49 44 44 45 48 49 48 50 50 51 51 51 55 55 53 57 56 58 57 60 62 62 64 65 67 68 67 67 63 63 65
65 54 56 56 59 68 74 89 95 97 97 97 98 86 70 65 54 54 48 45 38 38 45 48 44 45 44 44 45 45 47 49 49 50 53 54 54 53 52 55 56 57 59 60 61 58 59 60 62 62 57 54 58 60
63 50 50 51 61 65 73 90 96 97 97 97 97 87 74 65 59 48 50 44 40 38 39 48 45 43 41 39 39 40 41 42 44 45 50 49 49 51 50 50 45 48 50 50 51 50 51 53 54 49 46 47 46 46
64 50 47 49 57 64 86 94 95 97 97 97 97 80 70 64 52 48 50 50 47 40 37 47 48 44 43 40 41 42 43 44 44 44 45 44 43 46 48 48 44 46 46 48 50 49 52 53 50 50 49 45 44 39
61 48 45 49 59 68 90 95 95 96 98 97 87 71 68 62 56 49 48 45 39 31 32 42 49 46 44 42 41 39 38 40 40 40 38 40 42 42 43 42 44 47 48 49 48 46 46 46 45 44 40 38 35 31
58 48 41 50 60 66 89 91 93 97 97 97 83 74 64 60 50 48 47 43 31 27 27 28 42 47 43 42 42 41 41 43 42 43 44 45 47 48 44 46 48 49 50 47 45 44 43 42 40 39 41 40 36 34
61 49 40 46 57 65 87 92 94 96 97 90 75 69 65 59 46 35 32 29 25 19 22 30 38 42 41 41 43 42 43 47 46 47 44 46 51 49 50 51 50 46 43 41 37 38 39 37 38 38 40 42 43 42
62 48 37 43 52 66 89 91 94 95 91 81 74 71 65 56 49 49 40 32 25 24 24 29 32 38 39 41 42 41 43 44 48 49 49 52 54 51 49 45 41 38 36 35 36 37 36 37 38 37 34 31 30 27
60 46 35 42 55 73 87 90 92 93 87 79 76 73 68 59 47 40 38 33 29 25 28 31 34 35 36 37 39 40 41 44 47 51 51 55 53 49 44 40 36 36 35 36 36 37 36 32 28 24 20 19 17 16
59 47 30 49 76 82 89 92 95 92 86 80 79 75 69 61 50 46 45 35 33 28 29 32 33 31 34 33 34 37 45 48 50 55 57 55 50 43 42 39 38 37 37 35 30 26 23 19 17 17 16 20 24 27
61 44 37 83 85 91 94 95 93 86 83 77 72 72 68 58 47 37 30 29 28 29 26 26 29 32 33 36 37 41 47 52 61 60 56 49 48 45 42 39 39 35 28 22 18 16 16 16 15 16 22 30 36 38
56 37 74 91 91 91 95 94 86 86 81 74 65 67 66 52 41 40 31 29 28 26 23 25 29 32 37 41 43 48 57 65 60 55 51 46 45 42 39 35 28 21 17 16 17 18 18 18 18 20 28 37 42 43
46 56 93 90 92 93 96 89 89 85 79 69 62 63 62 50 38 37 30 31 28 26 26 26 32 34 42 45 49 55 57 55 49 50 45 42 42 36 28 23 18 16 16 18 19 21 21 22 24 27 32 37 43 50
45 68 91 90 96 97 95 93 93 86 76 66 61 58 51 41 39 36 34 33 29 27 31 29 29 38 46 51 56 57 54 47 43 41 38 34 29 25 21 18 17 16 18 19 22 23 25 27 30 35 40 46 46 47
55 70 93 97 98 98 97 97 89 76 74 69 61 56 46 40 43 46 43 38 31 28 29 33 39 46 54 53 55 49 43 42 39 36 33 29 23 19 18 17 17 18 19 21 25 27 29 35 41 51 60 58 50 48
60 75 95 98 96 95 96 95 78 74 76 72 63 57 45 36 35 37 38 32 31 31 34 41 47 50 51 48 44 41 39 37 35 31 25 21 19 17 16 16 16 18 20 23 27 31 36 44 55 62 62 56 54 59
70 97 98 99 98 92 88 85 74 74 74 70 60 54 48 36 36 37 35 36 37 41 44 48 48 48 45 42 39 37 34 32 27 22 20 17 14 13 13 15 17 21 23 26 30 38 45 56 63 64 64 63 66 67
97 99 99 98 93 86 81 77 73 75 76 68 62 50 44 38 35 33 38 45 46 47 48 47 48 46 43 40 37 34 29 25 23 20 16 12 13 15 16 18 21 23 27 34 42 52 61 62 60 62 65 71 80 81
99 98 98 97 89 82 81 75 70 76 72 57 50 47 40 39 37 45 47 45 46 48 47 48 47 43 41 37 32 28 25 22 19 15 15 17 18 19 19 21 24 27 37 48 55 55 55 60 67 73 77 84 87 86
98 99 96 89 81 79 84 77 72 72 63 52 48 47 45 44 48 49 50 50 51 49 49 48 45 41 36 31 28 25 23 20 17 16 17 19 18 19 20 23 28 38 42 43 46 54 65 73 79 82 82 84 84 84
98 98 90 84 77 84 84 77 71 70 58 52 50 52 52 50 52 55 56 54 52 51 49 47 42 36 33 30 27 24 20 16 15 16 18 18 18 19 23 32 38 38 41 49 60 67 69 70 72 74 73 80 85 83
97 94 88 82 75 79 78 74 69 67 60 54 52 56 55 56 62 61 58 55 54 52 49 43 38 34 31 27 24 21 17 16 16 16 19 19 21 26 34 34 37 43 52 61 65 63 63 65 66 68 73 76 77 79
96 94 84 76 71 72 73 68 65 64 59 57 58 57 58 65 64 60 61 55 53 50 45 39 35 31 28 25 21 17 17 18 19 20 21 24 29 31 31 35 42 51 60 62 59 59 62 66 66 69 73 74 75 79
91 84 77 70 64 67 69 65 62 63 61 63 65 64 63 65 65 61 57 57 52 45 40 35 32 29 25 20 18 18 19 20 21 23 26 31 30 32 37 41 47 55 58 58 60 61 63 65 65 69 72 74 77 82
81 76 71 67 65 64 67 66 66 70 73 73 75 73 70 65 63 57 55 50 44 40 35 32 28 23 20 19 19 20 21 23 25 28 31 30 33 37 41 46 54 56 55 58 58 64 66 65 64 69 74 81 85 85
78 71 66 67 66 68 71 73 71 69 66 65 68 69 66 63 60 55 49 44 40 36 32 27 23 21 20 20 21 23 24 26 28 30 29 33 37 41 45 50 56 55 56 58 61 66 68 66 61 65 70 75 77 77
76 72 69 70 72 77 79 82 81 76 73 70 69 67 67 63 55 49 44 40 37 32 26 24 23 21 20 22 24 26 28 30 30 30 33 36 39 41 47 53 56 55 57 59 61 65 68 69 61 61 60 63 66 64
77 73 72 75 82 83 87 87 83 79 73 70 67 63 60 55 51 47 42 38 33 28 26 24 21 21 22 23 26 30 30 30 30 33 36 37 40 44 50 54 56 55 58 60 63 65 67 71 68 60 57 58 63 65
80 79 79 83 87 87 87 83 79 73 70 63 59 56 54 52 49 43 39 34 30 28 26 22 21 22 23 26 31 32 31 31 33 36 38 41 43 48 51 56 56 56 58 61 65 67 67 69 73 75 64 55 58 67
83 83 85 90 94 92 85 74 68 66 63 62 58 55 50 45 41 39 35 33 30 27 23 22 21 22 25 30 32 31 32 34 36 39 41 44 47 51 56 58 57 59 62 64 67 68 68 69 70 73 79 79 63 57

GFSWCAN_prec_cthk_075.txt.gz
RH
42 51 56 58 59 64 73 88 95 97 97 97 97 98 98 98 97 86 59 38 32 39 52 52 52 54 53 54 55 54 54 53 54 53 53 54 52 53 55 52 54 57 62 63 65 66 65 52 53 55 57 59 60 62
39 47 51 51 50 54 72 84 92 94 96 98 97 96 96 96 92 80 58 36 34 37 50 52 53 55 54 54 53 52 49 50 51 53 52 54 54 54 54 57 53 55 52 57 58 57 54 55 56 58 58 60 61 62
36 45 49 48 47 54 66 80 87 92 94 96 96 95 90 84 74 79 54 36 35 40 48 50 51 51 52 52 52 51 49 50 49 48 51 52 51 52 54 54 53 53 54 56 56 55 57 58 59 60 62 63 64 63
37 45 49 48 45 49 61 79 85 91 93 95 94 95 83 66 59 66 48 38 37 39 45 50 49 49 50 51 51 50 50 48 50 48 49 51 51 51 54 52 53 51 54 55 54 56 58 59 60 62 62 59 56 53
37 46 49 46 42 47 58 77 85 90 94 94 95 94 76 61 54 71 51 39 38 36 43 48 47 48 49 49 50 49 50 50 50 50 51 52 52 52 51 50 51 52 52 55 56 51 52 53 54 55 56 50 46 44
35 46 47 46 41 44 56 71 85 89 92 93 95 93 76 66 56 68 45 42 39 37 39 48 47 47 46 48 49 49 49 50 49 50 52 50 48 50 49 49 43 45 48 50 51 51 49 50 51 52 49 45 44 44
36 48 49 45 41 44 56 75 86 88 91 92 90 79 71 69 70 59 54 44 41 38 39 46 47 45 45 45 45 44 44 44 44 46 46 46 46 47 46 46 41 43 45 44 42 42 45 47 45 46 45 44 44 43
40 50 50 45 40 47 63 82 89 90 91 91 90 80 77 74 71 56 57 48 41 36 36 44 48 45 43 42 43 43 44 44 44 45 44 44 44 43 43 39 39 42 43 43 43 42 41 42 40 39 39 38 37 36
47 51 53 46 41 43 67 84 89 90 91 92 85 77 80 77 64 54 54 62 54 34 32 39 44 48 44 44 44 42 41 42 42 44 44 42 44 44 37 39 42 44 45 44 41 39 37 35 35 35 34 35 35 37
48 53 53 48 41 43 68 88 88 90 93 86 77 78 72 68 62 56 51 44 37 26 28 37 43 45 44 44 45 44 44 45 45 47 45 46 45 41 42 45 46 46 43 38 36 33 32 33 34 33 35 36 35 31
50 55 55 50 39 41 65 91 88 90 92 84 82 79 73 65 53 50 41 35 33 30 32 37 42 43 42 42 43 41 43 44 47 47 48 49 47 44 45 45 42 38 36 34 33 32 33 34 34 31 25 22 19 19
56 58 56 53 38 42 64 92 90 91 89 86 81 77 72 60 56 48 44 40 36 32 34 32 38 40 40 39 39 39 39 41 46 46 48 51 44 46 43 41 39 36 34 34 32 31 31 28 23 20 18 18 19 19
61 62 60 54 37 44 65 93 94 94 88 84 80 78 72 66 55 42 37 39 40 34 27 30 35 37 37 34 35 37 39 44 44 49 54 49 45 44 43 40 36 35 33 31 30 25 21 17 16 17 17 17 16 18
66 67 61 52 38 44 66 94 96 96 87 84 79 77 74 65 52 40 38 42 30 22 26 27 32 32 31 33 36 39 44 44 51 57 53 46 42 44 39 37 34 31 29 24 19 16 16 17 18 19 19 18 18 22
72 68 60 51 36 43 72 94 98 97 90 82 75 70 71 63 54 46 38 33 36 35 25 26 29 29 35 38 38 41 47 54 54 52 48 43 41 40 38 35 30 26 20 16 15 15 17 19 19 19 21 24 27 33
78 74 60 47 37 66 90 98 98 98 88 76 70 64 69 69 63 54 44 46 33 27 27 27 29 31 38 38 41 42 42 46 47 49 44 40 38 37 34 26 21 17 15 15 15 17 19 20 21 24 28 35 41 50
83 74 61 59 66 86 99 99 98 97 87 76 68 61 64 67 65 49 40 33 28 28 29 28 27 33 39 40 41 43 47 46 43 42 38 36 33 26 22 19 15 14 14 14 16 17 20 24 28 32 37 43 50 58
84 73 71 68 93 98 98 98 97 95 89 75 71 67 68 66 56 43 34 29 28 26 26 28 31 36 37 36 47 49 46 45 40 38 33 30 25 20 17 15 14 14 13 14 18 21 24 28 34 40 46 52 56 60
85 73 67 73 97 98 97 98 96 85 79 79 74 72 72 58 42 33 31 29 28 28 27 27 31 34 38 43 44 44 42 39 37 34 29 22 19 17 14 12 13 15 16 18 20 24 29 38 47 53 57 61 64 68
79 73 69 88 99 98 97 98 94 81 84 80 76 75 64 49 41 38 33 30 31 31 31 33 35 40 42 43 41 38 35 33 30 25 20 18 15 12 14 15 17 18 18 20 23 33 42 48 53 56 61 68 73 76
76 71 82 98 98 98 96 95 92 84 82 83 78 68 61 48 44 45 43 40 36 32 37 41 46 45 44 43 39 35 32 28 23 19 17 14 13 14 16 17 17 18 21 27 35 37 39 47 55 61 65 67 70 74
74 69 80 98 98 97 94 90 86 83 83 87 79 64 60 47 41 39 37 35 35 37 46 49 46 45 44 41 36 32 28 24 20 18 15 14 15 15 16 18 19 23 31 33 34 42 51 55 55 56 58 63 66 71
65 76 96 98 97 95 95 89 86 84 84 84 78 64 62 50 38 34 36 35 41 47 48 46 46 47 43 37 34 29 26 22 19 16 16 16 18 19 20 23 29 31 31 37 44 50 51 52 53 53 56 59 61 65
72 96 98 97 94 97 90 89 88 86 85 82 74 66 62 50 39 37 38 40 46 49 48 48 49 46 40 36 31 28 24 20 17 16 17 18 18 20 25 29 29 31 37 42 47 49 49 51 56 57 57 58 63 69
94 98 98 97 95 94 90 88 90 86 85 80 71 66 55 49 46 41 42 49 55 52 51 51 49 42 38 33 29 25 21 17 16 17 19 20 21 25 27 28 32 35 41 45 48 48 51 56 58 57 56 60 63 68
98 97 96 85 86 85 84 81 82 83 79 72 65 58 51 47 43 46 49 51 54 53 52 50 46 41 36 30 26 21 17 17 18 20 21 22 25 25 26 29 33 39 43 46 49 48 54 58 56 55 59 62 65 69
97 93 80 74 72 73 77 76 78 79 72 63 60 54 51 50 51 51 54 56 56 54 53 49 43 37 31 26 21 19 18 20 21 23 23 25 25 27 30 33 35 40 44 48 49 51 56 59 55 54 59 65 70 73
86 74 71 72 73 74 77 78 75 74 72 61 53 51 52 54 55 56 59 60 59 56 51 45 40 33 26 22 20 19 21 22 24 24 25 26 27 30 33 35 38 42 45 49 50 52 57 60 55 52 55 62 65 68
75 70 70 76 78 81 80 76 74 72 70 62 58 57 59 58 57 57 60 60 58 51 46 41 33 26 24 22 21 22 22 24 24 26 26 28 30 32 35 38 41 44 48 51 52 54 58 59 58 53 52 56 58 61
78 74 74 77 79 80 80 78 76 71 67 66 63 61 61 62 62 63 62 54 50 47 42 32 28 26 24 23 22 23 25 25 26 26 26 29 31 34 37 40 44 47 51 52 54 56 58 59 60 60 54 53 55 56
79 77 78 83 84 84 80 77 75 73 74 74 74 73 74 70 68 61 55 52 48 41 33 30 28 25 23 23 24 26 27 26 27 27 28 30 33 36 38 42 45 49 51 53 56 57 59 59 59 61 63 59 55 56
81 79 80 85 88 85 84 83 80 78 75 72 72 69 68 66 66 62 54 48 41 35 32 31 27 24 23 24 26 27 27 27 28 28 30 33 35 38 42 47 49 52 53 55 57 58 59 59 61 62 63 65 69 65
82 81 81 88 95 96 92 90 87 84 81 74 71 68 64 61 58 53 49 43 37 34 33 30 26 23 23 26 28 28 27 28 28 30 32 35 38 43 47 51 54 57 57 59 61 61 60 61 62 63 64 66 65 68

GFSWCAN_prec_cthk_078.txt.gz
RH
8 17 34 46 49 52 66 77 87 92 93 90 91 94 95 96 90 82 65 49 37 41 50 55 54 58 54 52 57 54 53 53 54 54 51 51 50 50 50 48 49 51 54 56 55 55 58 47 48 49 49 51 54 56
9 16 32 44 46 46 58 77 84 85 88 87 88 92 94 96 93 81 59 39 35 41 50 54 55 54 54 53 57 55 52 52 51 52 50 52 51 50 50 50 48 49 48 51 52 49 47 48 49 50 51 52 55 57
11 19 30 43 43 40 47 69 80 82 87 87 87 89 91 92 93 76 57 39 35 41 49 51 53 55 55 55 55 53 51 52 50 49 51 51 48 49 49 48 48 48 50 51 50 49 51 51 52 53 55 58 59 58
12 18 26 40 46 40 41 64 74 77 80 82 84 86 89 84 82 78 60 43 35 38 45 49 50 53 53 52 52 53 52 51 51 49 49 50 49 49 50 49 49 46 49 49 49 49 51 50 52 54 57 55 53 51
13 19 25 33 44 41 37 52 72 76 77 80 82 84 79 67 64 62 57 41 34 34 39 44 47 49 49 49 50 50 51 50 49 49 51 50 49 49 48 47 46 44 44 47 48 45 48 49 51 53 51 49 47 45
14 19 25 37 36 39 34 44 63 76 78 80 84 84 75 67 57 56 62 39 35 35 36 44 45 46 47 48 50 50 51 50 49 49 51 49 49 49 48 48 39 40 43 44 45 46 46 46 45 45 47 45 42 42
16 22 23 38 41 34 34 41 61 75 79 80 83 84 76 71 65 60 53 40 36 36 37 45 45 44 45 46 47 48 47 48 49 50 50 49 47 47 47 45 38 39 41 42 43 43 41 41 41 43 42 39 36 33
16 23 26 38 41 34 29 56 72 76 81 81 77 70 73 72 70 67 59 45 39 37 38 44 44 43 42 43 45 45 45 44 44 46 45 44 44 46 45 38 38 41 42 40 40 40 38 37 38 36 33 31 29 29
17 24 29 39 44 38 30 56 79 82 83 83 77 66 67 69 74 72 59 52 43 36 32 38 44 44 42 43 42 41 41 44 44 45 45 42 43 44 36 35 36 39 41 43 43 39 36 36 32 29 29 30 30 31
19 25 32 41 44 42 33 55 81 84 84 86 79 73 73 72 70 70 60 59 56 45 32 32 39 43 40 42 43 42 42 44 44 43 43 44 41 35 35 36 40 44 45 43 38 34 33 29 28 28 30 31 26 20
20 26 32 44 48 47 37 49 84 87 86 82 74 72 71 72 70 59 54 47 46 47 39 37 40 43 41 47 44 42 43 46 46 45 47 47 44 37 37 41 45 45 42 37 33 31 29 29 28 27 22 17 15 14
21 28 36 46 52 54 43 45 80 93 90 81 78 75 73 69 59 62 56 48 46 46 48 41 37 41 47 43 41 41 42 43 44 44 46 47 38 40 42 41 41 39 35 32 30 29 28 26 21 17 14 15 17 17
22 30 41 48 54 57 48 42 75 97 95 87 82 80 73 66 61 61 51 50 47 41 36 35 41 44 41 38 38 40 39 42 41 44 45 39 39 42 42 41 39 35 32 29 27 26 21 17 14 14 16 18 19 20
26 33 44 53 59 59 52 42 74 95 98 91 84 80 74 67 61 56 51 49 39 34 35 38 43 36 35 36 35 39 42 42 47 49 41 41 40 42 41 39 35 32 28 26 23 18 14 13 14 16 19 21 22 25
29 38 46 58 65 63 55 45 77 95 97 96 84 76 73 64 59 57 52 44 38 32 32 37 33 29 33 35 37 40 46 48 43 39 38 37 40 40 38 35 32 29 25 19 15 14 13 14 17 19 23 26 32 36
36 44 52 68 72 68 59 53 73 97 96 93 83 71 67 71 67 61 55 43 37 35 38 32 30 31 35 35 39 38 37 35 32 37 37 42 39 36 35 32 26 20 16 14 13 12 13 15 18 21 25 31 39 44
45 48 63 77 79 74 66 60 68 97 99 92 78 75 67 71 68 66 55 43 40 39 35 32 32 31 36 37 37 36 34 31 33 41 43 39 36 33 26 21 17 14 13 12 11 12 14 17 21 26 30 38 49 57
50 53 75 82 85 83 74 68 68 96 95 89 84 78 74 71 72 71 60 49 42 33 31 35 34 34 35 31 35 33 32 37 43 42 37 33 29 25 19 16 14 12 12 13 15 16 18 23 30 37 45 51 54 58
54 62 77 85 81 81 79 76 76 94 90 84 84 81 77 73 72 72 65 57 46 40 37 31 29 29 28 26 29 32 40 44 42 38 34 30 23 19 16 13 13 14 14 14 16 22 29 33 36 42 46 51 54 57
67 78 87 92 87 90 90 87 82 90 87 84 83 82 78 76 77 76 63 47 39 35 33 30 26 26 26 29 34 39 43 41 35 31 27 22 18 15 14 15 14 14 15 18 27 29 30 35 42 45 47 53 54 55
80 86 90 92 86 90 88 85 89 96 88 86 86 86 84 86 85 69 53 43 38 29 33 28 27 28 31 36 42 45 40 34 29 25 21 18 16 15 15 15 16 17 23 26 27 31 36 40 42 42 45 50 52 54
87 85 89 94 92 90 88 86 88 92 90 88 88 88 86 84 75 58 45 39 32 29 29 29 31 34 41 45 46 42 36 31 26 22 19 16 16 15 16 16 19 23 24 27 31 35 39 40 41 45 50 49 50 53
95 94 97 92 91 89 91 88 89 93 92 91 90 89 87 81 65 52 46 39 34 32 33 34 37 43 47 47 44 39 34 29 24 20 17 17 17 17 18 21 23 24 27 31 35 38 40 41 45 49 50 49 51 54
98 98 98 98 93 94 88 91 92 96 96 94 93 86 81 77 65 52 47 43 44 43 39 38 42 48 49 47 44 39 33 26 22 19 18 18 19 20 22 23 24 27 30 34 37 39 41 43 48 51 49 51 53 56
97 98 97 98 97 92 88 91 93 93 92 90 90 88 81 76 69 56 47 42 44 37 36 40 46 51 50 47 43 37 30 24 20 20 19 19 20 22 23 24 26 29 33 35 37 40 41 46 50 50 50 53 56 59
96 96 90 87 87 85 82 89 83 80 82 85 85 84 80 75 68 54 46 38 35 34 37 42 52 54 51 46 41 33 26 22 21 21 21 21 22 22 23 25 28 31 34 35 38 41 44 48 52 50 49 53 57 59
96 96 90 91 91 75 77 78 74 75 78 83 84 83 79 77 68 57 45 36 35 37 43 48 55 53 49 45 37 28 24 23 22 22 22 22 22 23 24 26 29 33 34 38 41 43 46 50 54 50 47 49 54 55
94 89 81 81 86 81 77 78 78 77 81 82 80 79 77 69 62 56 51 43 46 46 47 53 57 55 50 41 30 26 25 23 23 24 23 23 23 24 26 28 30 33 35 40 42 44 48 51 54 52 48 48 51 53
90 88 84 85 78 83 81 75 74 75 75 76 75 72 72 66 58 53 52 49 48 51 56 60 59 54 45 33 28 26 25 24 25 24 24 24 24 26 28 31 32 35 38 41 44 47 49 53 54 54 54 51 49 50
87 84 84 85 83 79 75 68 71 75 77 74 69 68 68 63 58 56 56 54 57 62 60 60 58 49 36 30 28 27 26 26 24 25 25 25 26 28 31 32 35 37 40 42 45 48 51 54 55 55 57 58 56 53
89 86 82 84 84 82 78 76 77 77 76 75 72 70 68 65 62 59 62 63 62 61 58 53 46 38 33 30 28 27 26 25 25 26 25 27 27 29 31 34 37 40 43 45 48 50 53 55 55 56 58 59 60 60
88 83 84 86 87 87 83 83 81 77 75 75 74 72 69 67 65 63 63 62 62 61 55 46 39 34 32 30 28 27 25 25 26 26 27 28 28 31 33 38 40 44 47 49 53 54 55 58 58 58 59 60 61 60
88 84 84 86 89 90 86 84 82 78 78 79 79 77 76 73 72 70 69 65 60 53 46 41 37 34 31 29 28 27 26 26 27 27 28 29 30 33 36 41 44 48 52 53 57 59 61 62 63 63 64 64 65 64

GFSWCAN_prec_cthk_081.txt.gz
RH
32 11 13 20 33 31 40 61 68 71 75 80 81 84 87 87 81 73 61 44 33 39 48 51 52 56 56 55 56 58 58 55 57 54 50 50 49 50 49 46 46 46 48 49 49 52 52 42 42 42 42 43 45 47
32 11 12 17 30 32 29 51 63 69 70 74 79 83 84 85 82 77 60 41 32 37 46 52 52 52 51 50 51 51 49 49 50 51 49 50 47 48 46 47 45 47 43 46 45 43 41 43 44 43 44 45 46 47
31 13 13 18 27 32 29 37 58 67 68 70 72 78 83 84 86 79 68 47 32 35 45 50 51 50 50 49 49 51 49 50 49 48 50 48 45 45 46 46 45 44 45 47 45 42 43 44 45 46 46 47 48 49
29 14 13 18 23 28 27 27 51 62 66 66 70 73 78 82 85 71 61 48 42 35 42 48 49 50 49 50 50 50 48 48 48 48 47 48 46 47 49 46 47 45 47 46 45 43 44 46 47 47 48 48 47 46
27 16 15 18 22 28 26 25 35 60 65 66 69 71 73 76 75 72 62 47 37 29 34 42 44 46 48 50 49 48 49 50 49 49 49 49 49 49 47 47 45 42 43 45 46 43 45 45 46 47 47 47 44 43
24 17 16 20 24 28 27 23 22 52 64 67 69 69 63 60 63 59 54 51 38 31 32 39 41 44 46 47 48 48 49 50 49 48 49 49 48 48 48 47 36 37 40 42 42 43 44 44 44 44 44 43 41 37
24 18 17 22 26 30 31 24 23 35 65 70 72 73 65 60 59 57 55 53 41 32 32 39 41 41 45 45 46 47 48 48 48 49 48 47 48 48 48 45 35 36 38 39 40 41 42 42 41 41 40 36 33 30
24 19 18 22 28 32 31 27 33 42 65 73 77 77 69 63 62 62 60 56 43 34 33 40 41 41 43 44 45 44 45 46 45 46 46 45 45 45 43 36 35 36 38 39 40 40 39 37 36 34 31 28 26 27
24 20 21 24 30 33 32 33 39 45 65 80 77 70 69 67 66 65 66 65 52 38 32 35 39 42 42 43 43 44 43 45 44 44 43 42 43 43 34 34 34 35 37 39 42 40 38 35 32 29 26 26 27 27
23 21 21 25 30 34 36 38 43 46 64 79 83 71 65 65 65 66 69 68 62 51 36 34 32 42 40 43 44 43 41 43 44 43 43 45 40 32 32 32 33 36 41 42 41 39 34 30 27 26 27 27 22 15
23 22 23 27 30 35 37 38 43 49 57 81 86 80 73 68 68 64 64 65 59 49 45 45 35 37 41 42 42 41 44 45 46 43 45 45 40 32 32 34 38 42 43 43 38 32 29 27 26 25 20 15 13 13
24 23 24 28 28 36 42 39 48 50 56 77 84 85 79 76 70 61 61 57 55 45 48 54 49 40 42 41 42 44 47 43 43 43 45 43 32 30 34 40 42 42 40 35 31 28 26 24 21 15 13 13 15 16
26 25 24 27 30 40 43 44 51 56 59 72 82 84 81 73 65 59 56 55 59 54 48 52 53 46 46 46 45 48 41 40 40 44 43 33 28 34 38 40 39 36 34 30 28 25 22 18 13 12 13 15 17 19
27 26 25 28 31 40 47 51 54 60 64 71 87 90 87 76 66 61 60 58 55 53 47 43 54 53 44 43 44 42 39 39 48 48 36 31 30 33 37 40 38 35 31 27 24 21 16 13 12 12 14 17 20 23
29 28 27 30 35 41 50 55 61 64 70 72 88 86 80 73 69 65 62 59 54 58 53 43 42 41 43 47 42 38 42 46 40 33 31 27 29 34 41 39 35 32 28 24 18 13 12 12 12 13 16 19 24 32
29 29 29 33 38 43 53 59 66 69 76 75 80 77 72 75 75 74 63 60 55 54 55 43 45 46 46 44 42 36 35 31 29 31 28 30 34 41 38 35 32 26 20 15 13 11 11 13 14 17 21 28 36 44
32 31 33 38 45 53 59 65 71 73 78 73 62 72 76 76 75 75 71 58 55 54 52 44 37 35 42 43 37 31 30 24 24 29 33 36 42 38 34 29 22 17 15 12 11 13 13 16 21 26 29 34 39 43
34 36 39 47 49 55 63 70 76 78 75 68 60 61 77 75 80 78 73 69 58 55 46 37 34 40 42 36 31 28 25 27 31 34 35 42 37 30 26 20 17 14 14 14 13 15 20 23 24 29 33 36 36 41
38 42 46 51 52 60 67 73 78 77 70 70 62 60 75 79 80 82 82 76 69 52 46 39 36 35 31 29 30 29 27 30 33 37 43 40 32 25 20 17 16 15 14 14 18 22 22 25 30 33 34 36 41 44
44 46 50 57 60 66 70 74 73 76 72 67 62 63 67 80 81 84 85 80 81 69 52 44 34 29 27 25 26 24 27 31 36 43 42 33 26 20 18 17 16 15 16 21 21 23 25 29 32 33 36 39 41 43
51 52 60 60 68 69 72 72 75 78 76 71 65 63 62 74 86 88 85 85 85 73 59 43 40 36 33 31 29 28 30 36 42 39 33 26 22 20 18 17 17 19 21 20 22 25 28 30 32 35 37 39 43 45
52 55 61 68 70 74 77 77 79 81 80 76 80 74 79 89 91 89 90 93 81 62 44 39 40 41 39 33 30 30 35 39 42 36 28 23 20 19 19 19 21 22 22 23 25 27 29 31 34 37 38 41 43 47
61 60 68 71 76 80 80 81 82 85 89 87 87 88 92 97 96 94 91 86 78 57 46 41 37 35 33 31 32 35 40 45 41 32 25 22 21 21 21 22 21 23 24 25 27 29 30 33 36 39 40 42 44 48
65 71 72 76 79 83 79 79 81 85 88 91 89 91 91 95 93 94 85 75 67 51 44 44 43 41 36 34 37 43 48 46 38 29 24 23 23 23 23 22 23 24 24 26 28 30 31 34 38 41 41 42 45 48
79 83 83 84 81 79 83 83 84 87 90 90 90 90 86 90 91 87 78 71 63 47 43 43 41 37 36 45 47 47 51 44 34 26 24 25 24 23 23 23 24 24 26 27 30 31 33 36 39 43 42 40 43 46
97 98 93 85 80 77 76 79 79 81 85 85 88 86 82 86 87 77 73 68 62 48 43 43 45 48 49 46 45 52 50 41 30 26 26 25 24 24 24 25 25 25 27 28 31 32 34 37 40 45 43 41 43 46
98 96 89 80 74 72 76 73 71 74 79 82 83 78 84 86 83 71 66 66 65 50 47 48 49 49 48 45 52 56 48 38 29 27 27 26 24 24 25 25 25 26 28 30 32 34 35 38 41 45 47 44 43 45
98 96 84 76 76 72 74 76 76 77 76 75 78 77 72 72 71 67 65 64 62 48 47 50 49 49 44 46 51 54 45 35 29 29 27 25 25 25 25 25 25 27 29 31 33 35 37 40 44 47 49 50 47 46
93 81 81 84 84 84 80 76 73 65 64 67 68 73 69 66 70 70 66 67 68 51 48 50 51 50 50 51 56 52 42 33 30 29 27 26 26 25 25 26 27 28 31 33 35 36 39 42 46 48 50 51 52 51
84 81 86 84 79 77 73 71 73 73 69 68 68 70 74 77 79 74 68 67 69 56 50 51 54 56 55 55 58 56 42 33 31 29 28 26 26 26 26 26 28 30 33 36 36 38 42 44 48 49 51 52 52 53
83 82 83 81 80 77 76 77 77 78 81 79 79 78 84 83 80 77 68 66 67 63 58 58 59 57 57 60 55 44 35 32 31 29 29 27 26 27 28 28 31 33 37 38 40 42 46 50 51 51 52 52 53 55
82 82 77 79 82 84 83 84 84 82 79 83 84 87 86 79 79 75 69 66 63 62 61 58 61 64 60 55 44 37 33 32 29 29 29 28 28 28 28 31 34 36 40 41 44 45 49 54 54 53 54 56 59 61
85 82 80 82 84 82 82 84 86 82 80 85 88 87 82 78 77 71 70 69 67 64 63 64 64 62 56 46 39 36 34 31 29 29 29 29 29 30 31 34 36 39 42 45 47 46 52 58 58 58 60 63 65 66

GFSWCAN_prec_cthk_084.txt.gz
RH
46 35 14 10 16 26 26 44 57 58 60 63 65 65 66 62 58 51 43 31 27 32 40 43 47 52 53 53 52 53 53 51 51 47 43 43 41 42 41 39 40 38 38 39 40 41 37 38 40 38 37 38 40 42
44 36 18 10 16 24 23 26 44 58 58 59 64 67 68 64 60 56 51 40 31 31 36 40 43 48 48 49 50 51 50 47 47 47 44 41 40 40 39 36 39 39 37 37 37 35 36 39 40 40 40 40 42 43
47 35 20 12 15 22 26 19 29 45 57 58 58 64 68 68 68 63 55 42 35 34 37 38 39 42 45 46 45 47 45 45 43 42 42 43 41 39 38 37 39 39 40 40 39 38 37 39 41 41 42 43 44 45
51 38 22 13 14 20 27 26 18 32 51 58 58 60 66 69 72 71 48 44 41 39 37 39 38 40 42 44 45 45 46 45 43 43 42 42 42 43 41 41 40 38 41 41 39 37 39 40 41 42 42 43 44 43
54 42 24 16 14 19 27 27 22 19 38 55 62 61 64 68 73 65 54 44 41 33 32 37 41 41 42 42 45 47 48 47 45 45 44 44 44 45 44 43 39 36 36 37 35 36 37 38 39 41 43 44 43 41
56 45 26 18 15 19 27 28 23 18 30 47 60 65 62 65 66 64 54 47 46 37 31 33 38 41 42 43 44 46 47 47 47 47 46 46 45 46 45 41 32 33 34 36 36 37 39 40 42 43 43 41 39 36
58 46 28 20 17 20 27 28 24 20 20 37 53 68 64 49 56 57 48 51 52 42 36 35 36 37 40 43 44 44 45 46 47 49 47 46 47 48 46 39 33 34 35 37 38 40 42 42 41 40 39 36 30 26
61 47 29 21 18 22 26 26 30 29 30 39 47 67 74 59 52 56 54 54 56 50 42 39 36 36 39 42 45 43 44 45 46 49 47 45 47 47 44 32 32 32 35 36 38 40 39 37 37 35 31 28 25 23
62 49 30 22 20 22 27 29 35 34 35 40 46 60 76 72 66 61 60 58 59 57 45 42 38 39 39 42 44 45 44 45 46 46 45 46 44 42 30 31 33 33 34 35 37 39 37 37 34 31 27 24 23 24
64 50 31 24 21 24 29 33 38 36 38 40 45 48 66 76 73 70 68 66 64 65 61 46 37 37 38 42 45 44 45 44 44 41 44 43 36 30 29 30 30 31 34 38 41 40 39 34 29 25 24 24 20 14
65 50 32 26 24 25 30 34 40 38 40 44 42 48 54 71 74 71 68 66 63 63 61 61 54 44 38 41 42 44 43 44 45 43 45 39 34 27 28 29 30 34 40 42 42 38 31 28 25 24 21 15 13 12
68 48 33 29 28 27 32 35 41 42 44 45 47 48 55 69 75 72 67 65 65 56 59 61 59 58 51 47 43 44 44 46 43 43 44 38 27 26 26 31 35 37 42 42 36 31 27 25 22 18 13 11 11 12
70 48 36 31 31 31 34 38 42 49 49 47 50 48 54 60 74 74 69 67 63 59 56 59 59 59 57 55 50 47 46 43 40 46 37 28 25 26 30 32 35 40 40 34 31 28 24 20 16 13 12 12 13 14
71 50 37 33 34 35 39 41 42 52 53 52 52 54 53 58 56 64 68 70 64 61 58 59 61 55 55 56 55 49 46 41 49 48 30 23 24 28 30 32 38 38 35 32 28 24 19 14 11 11 11 14 17 21
71 51 39 36 37 39 41 46 44 53 55 59 54 55 50 50 53 64 69 70 68 68 65 66 63 55 52 58 61 58 53 50 40 30 21 22 24 28 32 37 40 36 32 28 23 18 14 12 11 12 15 20 25 29
73 54 42 38 41 44 48 49 50 55 62 61 56 49 47 50 53 64 75 76 70 68 65 65 68 62 54 51 55 51 44 37 33 27 20 22 26 31 36 42 39 33 28 20 16 13 13 13 14 19 22 25 28 30
71 57 40 43 45 50 55 52 54 58 64 59 48 47 51 49 53 58 75 76 77 69 68 65 66 63 57 57 50 44 43 32 29 23 23 24 30 34 40 40 34 25 19 15 14 14 14 19 21 22 25 28 28 29
72 53 48 49 53 60 58 57 58 58 57 51 47 45 54 55 52 55 65 88 84 79 68 62 57 59 58 48 38 35 33 30 30 26 28 33 34 38 39 33 24 19 17 15 14 17 20 21 22 25 26 28 28 29
68 55 57 55 55 60 62 60 57 55 50 50 48 49 53 57 59 54 59 80 91 86 79 70 61 57 46 36 32 31 30 33 32 33 34 34 35 37 34 26 21 19 17 16 20 20 21 23 25 26 28 28 29 32
67 63 62 62 63 64 66 61 57 55 52 49 46 48 54 57 64 60 58 65 88 96 92 81 64 44 39 33 30 31 33 34 32 33 35 36 37 37 30 24 21 19 18 21 20 21 23 25 27 29 30 29 32 33
74 71 69 70 73 68 62 58 56 55 52 51 46 48 55 62 67 66 63 65 73 81 81 77 76 54 41 37 36 35 37 35 33 34 35 35 40 36 28 24 22 21 21 21 22 23 24 26 28 30 30 30 33 34
74 72 72 75 75 70 64 60 58 57 55 54 51 54 58 64 64 66 66 66 59 63 70 77 81 79 54 43 42 45 40 38 39 38 36 39 39 33 27 24 24 22 21 22 22 24 25 27 29 31 31 32 34 36
76 73 77 79 79 73 67 64 65 62 62 62 59 60 61 66 66 68 74 67 60 66 78 82 86 78 58 52 49 49 44 43 41 41 42 45 38 31 27 27 24 22 22 22 23 25 27 29 31 33 33 33 35 38
77 79 82 85 80 75 69 65 62 62 62 63 63 65 62 68 74 78 73 64 62 80 87 89 85 64 50 52 53 48 39 38 44 46 46 45 35 31 29 26 23 23 23 23 24 27 29 30 32 35 35 34 36 39
84 85 84 79 75 72 66 62 61 62 61 63 64 67 66 70 76 77 70 61 71 78 80 84 82 65 47 46 50 46 43 48 51 49 48 41 34 32 28 25 24 24 24 24 27 29 30 31 34 35 37 37 38 39
78 77 70 66 66 60 60 62 62 61 64 67 66 67 67 69 75 70 59 56 68 74 77 80 72 61 49 45 50 50 51 56 56 50 48 39 35 33 28 25 24 24 24 26 29 30 31 33 35 36 39 41 42 41
73 71 67 60 59 57 63 65 72 71 70 66 68 74 73 71 66 55 53 53 58 70 77 80 66 51 50 51 51 52 57 59 58 54 47 39 35 32 27 25 24 24 24 28 29 31 32 34 35 37 41 44 46 45
69 70 71 72 70 70 75 75 75 73 70 70 76 81 75 65 56 53 54 55 61 70 79 77 58 48 49 53 54 57 59 58 51 55 46 38 35 31 27 26 25 25 26 29 30 32 32 34 36 39 42 44 46 46
81 76 79 82 80 78 76 74 71 70 71 75 76 76 71 60 54 53 53 57 61 71 79 74 58 55 56 55 57 59 59 56 53 56 46 38 34 30 27 26 25 26 28 30 31 33 33 35 38 41 43 44 46 47
78 81 83 80 81 78 74 71 72 74 74 73 74 73 70 61 57 55 58 60 67 76 79 71 61 59 57 57 59 62 60 55 59 64 48 37 33 29 27 26 26 28 30 31 33 35 35 36 40 43 45 46 48 50
82 85 87 84 82 78 77 78 78 78 78 78 76 73 67 63 60 57 58 67 78 84 81 73 60 60 59 58 61 62 59 58 63 52 40 36 33 29 27 27 28 30 32 34 36 37 36 38 43 47 48 49 52 54
89 87 86 83 80 81 81 82 83 81 81 77 75 71 69 66 69 70 75 82 86 85 80 77 62 60 59 60 62 60 60 63 49 41 38 36 32 29 28 29 31 33 35 37 39 39 38 41 47 51 53 56 58 59
92 86 81 80 81 80 80 82 84 84 82 80 74 71 70 74 80 81 84 89 87 79 77 74 63 60 61 61 63 67 64 52 43 40 39 35 31 29 30 32 33 36 39 40 41 41 41 45 52 57 60 62 63 64

GFSWCAN_prec_cthk_087.txt.gz
RH
57 53 40 20 12 16 20 24 25 34 48 55 59 61 59 53 48 44 39 31 30 33 38 38 39 43 43 43 44 45 45 44 44 42 38 37 35 36 35 33 33 34 33 34 34 35 35 33 34 34 35 33 34 35
58 55 47 27 15 15 21 21 24 26 33 48 53 58 60 59 55 51 42 37 34 34 36 39 39 41 42 43 45 45 45 42 45 43 38 35 36 34 33 31 34 34 32 36 32 33 30 31 33 34 35 35 36 36
60 59 51 34 18 15 19 23 21 22 27 34 49 53 58 60 61 62 52 38 36 35 36 38 40 41 41 40 41 43 44 46 44 42 42 41 40 36 34 34 34 34 35 35 35 32 31 32 34 35 36 37 39 40
64 61 54 38 22 17 18 24 22 18 22 29 34 50 56 61 63 66 54 43 42 41 41 38 37 39 41 40 40 40 40 43 43 42 44 43 42 39 38 37 36 36 36 35 35 32 33 33 34 36 38 39 41 41
66 64 58 42 25 18 19 23 24 20 19 27 30 36 55 59 63 67 57 48 45 39 35 33 38 38 39 41 41 42 42 45 45 46 46 44 42 41 40 39 34 33 31 35 30 34 33 35 36 38 39 41 42 41
70 67 63 47 28 20 20 24 24 22 18 27 28 31 43 57 62 64 58 51 48 48 37 37 36 38 41 41 43 43 46 47 47 47 46 45 43 45 43 37 29 29 28 31 32 33 35 37 38 39 41 41 39 36
74 70 67 51 32 22 22 25 25 21 20 19 28 32 37 47 54 55 50 42 45 49 49 43 37 34 36 41 43 44 45 46 48 47 45 45 45 47 45 36 29 30 31 33 34 35 37 37 39 38 38 37 34 28
75 72 70 57 35 25 23 27 25 26 27 28 32 35 36 41 52 55 50 48 48 49 49 56 46 36 36 41 44 45 46 47 47 47 44 43 44 44 42 29 30 30 32 33 33 35 35 36 37 36 34 30 26 23
79 76 73 62 39 28 27 29 32 30 32 33 34 37 38 39 49 57 59 56 56 55 53 56 57 50 40 42 45 46 47 47 46 45 44 45 42 42 29 28 28 29 30 31 33 35 35 35 35 33 29 25 22 22
82 79 76 65 42 32 31 32 35 35 33 33 34 34 37 36 40 52 62 67 64 65 63 63 64 55 46 45 47 49 47 47 48 41 42 44 37 29 28 28 29 30 30 31 35 37 37 36 33 29 25 23 22 18
84 82 80 69 45 36 34 35 37 40 39 37 35 35 34 34 36 41 54 63 64 65 66 68 68 70 58 50 47 49 50 47 46 43 43 41 32 24 24 26 27 28 32 34 36 39 37 33 29 24 23 20 16 12
89 86 83 69 49 39 38 38 41 44 41 41 39 36 37 39 40 42 45 50 63 63 62 63 62 62 66 62 59 54 54 51 50 44 44 39 26 25 23 24 27 31 33 37 43 39 33 29 25 22 18 14 11 11
94 91 87 70 53 43 42 42 44 49 46 45 42 40 40 40 46 46 45 46 56 59 60 61 61 62 64 68 66 65 64 59 49 47 39 26 23 25 23 24 28 31 37 42 40 33 29 25 22 17 13 11 12 14
99 96 92 72 57 49 47 49 49 53 52 50 45 43 41 43 40 39 41 43 47 59 68 66 65 65 62 63 65 69 62 58 58 53 32 24 28 30 28 24 28 34 40 39 35 29 25 22 16 13 12 13 17 21
99 99 93 75 63 55 57 56 50 57 58 55 52 46 42 37 37 36 36 39 46 55 68 74 70 67 70 67 63 64 61 61 51 44 36 32 28 31 26 25 28 34 40 38 32 26 21 15 13 13 16 19 21 23
98 96 87 77 70 64 62 64 59 60 67 60 54 46 40 38 40 43 43 47 47 56 60 71 75 75 73 74 69 62 58 52 51 43 33 31 34 32 25 24 29 39 41 36 27 20 16 15 16 19 19 21 22 23
97 95 91 79 74 72 68 69 65 62 65 62 52 44 39 37 39 43 44 43 45 52 63 68 76 71 71 74 73 65 57 43 40 36 33 34 34 33 28 28 43 41 38 28 20 18 16 19 20 20 21 22 23 22
97 98 90 78 79 80 78 72 69 67 63 57 55 46 40 38 39 42 47 48 54 55 59 69 72 70 67 67 71 61 49 45 42 42 38 35 33 28 27 40 41 36 30 23 20 19 22 21 21 22 22 23 22 23
99 97 89 81 84 81 80 76 70 71 61 57 53 46 39 40 42 45 49 51 55 56 54 55 72 71 61 57 56 58 48 41 41 43 44 42 38 32 38 40 36 34 28 23 22 23 23 22 22 23 24 23 23 24
98 96 86 88 84 84 82 80 75 71 63 58 54 48 43 42 43 44 48 55 58 60 61 55 46 56 63 58 56 56 53 43 41 44 43 42 40 39 41 39 40 35 28 26 25 24 24 23 23 24 25 24 24 26
98 97 94 90 91 90 86 80 75 71 64 62 56 50 48 46 47 47 51 58 63 57 56 53 45 47 66 75 71 63 52 46 46 46 41 43 42 39 41 43 43 34 31 28 25 25 25 24 24 26 27 25 25 27
97 98 97 97 95 97 93 83 73 67 64 65 60 58 54 51 49 48 55 60 56 49 49 50 46 44 45 56 73 69 54 44 49 46 48 44 42 45 47 46 42 35 32 27 26 26 24 24 25 27 28 27 26 28
97 98 98 98 98 96 93 82 75 70 68 67 63 60 58 53 48 50 54 49 45 47 50 49 50 49 45 52 71 79 66 48 50 49 43 40 44 48 48 49 41 36 31 28 26 25 24 25 26 28 28 28 28 29
98 98 98 97 96 95 85 81 78 77 74 71 70 66 61 55 52 54 50 40 38 46 50 54 58 59 55 59 74 83 68 55 54 50 47 48 46 51 53 46 40 35 31 28 26 24 25 26 28 29 29 30 30 31
97 97 97 95 91 86 83 79 77 77 73 73 71 64 60 61 60 55 45 38 42 49 50 55 57 60 70 83 87 78 65 57 56 53 50 50 53 55 51 43 39 35 31 26 25 25 26 27 29 30 30 32 34 35
96 95 90 85 85 81 79 79 76 74 74 71 66 62 60 63 64 55 43 37 44 50 50 53 60 70 81 85 83 67 60 61 54 52 53 58 57 55 48 42 39 34 29 26 26 26 27 29 30 30 32 34 36 37
95 90 85 81 77 74 74 73 74 71 69 65 60 63 66 71 61 45 39 41 45 48 49 51 55 69 80 84 82 63 59 56 53 56 60 64 62 52 46 41 38 32 28 27 27 27 30 31 30 31 33 34 36 37
86 82 81 81 78 74 75 71 65 61 57 54 60 66 70 63 51 49 51 50 50 50 51 54 60 75 84 83 71 58 54 57 59 63 63 62 57 53 45 42 37 30 29 28 28 30 31 32 31 31 34 35 37 38
84 79 80 82 81 76 64 55 52 50 51 58 64 67 62 57 57 60 61 60 56 55 54 58 63 77 86 80 62 54 56 57 60 63 63 59 59 57 49 42 35 30 30 28 29 31 32 32 32 32 34 36 38 40
79 79 76 66 56 52 52 55 58 61 65 67 68 68 65 62 64 68 68 66 60 57 60 63 65 80 86 72 59 58 58 62 62 65 62 61 64 65 50 39 33 31 29 30 31 33 33 34 33 33 36 38 41 45
61 53 53 58 61 60 63 66 67 67 66 66 66 69 66 68 71 71 71 68 66 60 60 62 70 87 88 68 58 58 65 64 67 69 64 63 65 55 42 37 33 31 30 32 33 35 34 34 33 35 38 42 46 50
65 66 66 68 70 71 73 77 79 80 77 75 73 75 76 78 75 73 72 70 65 61 61 66 81 87 87 68 63 65 63 60 63 65 67 65 58 45 40 36 32 31 32 33 36 36 35 35 35 38 42 46 52 55
77 77 79 81 81 81 80 78 77 78 78 79 80 81 83 82 76 68 65 62 64 63 66 82 87 95 88 75 68 65 62 64 66 66 66 66 51 43 40 34 32 33 34 36 38 37 36 37 39 43 47 52 58 60

GFSWCAN_prec_cthk_090.txt.gz
RH
72 66 63 57 42 22 17 19 24 22 24 31 41 51 53 51 49 45 35 25 26 33 36 39 40 40 39 40 41 41 39 40 40 42 38 37 35 36 33 30 30 33 35 38 35 37 41 30 30 32 34 31 31 31
72 70 64 61 50 30 19 18 23 24 22 25 30 38 49 52 50 53 45 36 31 29 34 38 40 41 43 43 44 42 43 42 44 44 39 36 37 35 33 34 34 34 32 39 34 36 32 28 30 31 31 31 31 32
73 73 64 65 55 36 24 19 22 23 23 22 26 32 39 48 52 56 58 49 35 33 29 34 40 42 44 44 44 46 45 45 44 42 44 43 41 39 38 37 34 32 31 34 32 29 29 29 29 30 31 32 33 34
74 75 67 68 60 42 28 22 22 23 21 21 25 28 34 41 52 58 59 51 45 43 41 35 31 37 43 45 44 42 43 44 44 44 44 44 43 39 38 37 36 33 34 33 31 29 29 29 30 30 32 34 35 36
74 75 69 70 64 50 31 25 22 26 22 20 25 28 31 37 44 54 59 50 45 45 42 33 25 27 31 36 43 44 43 44 45 46 49 48 42 43 39 40 37 30 31 34 34 29 30 31 31 31 33 34 36 37
75 74 70 74 68 56 35 28 26 27 24 20 25 28 32 34 40 47 56 48 45 45 44 49 39 31 34 36 34 39 44 47 49 49 48 47 44 45 48 44 28 26 27 27 29 30 31 32 32 33 35 37 36 35
79 75 72 77 73 61 41 31 29 28 27 23 20 28 31 35 35 41 40 38 41 40 43 49 52 44 35 33 39 40 41 46 49 52 49 48 46 47 49 41 30 28 29 30 30 33 34 33 34 35 35 35 34 32
82 77 75 79 76 66 45 35 34 30 32 31 29 32 32 34 34 37 38 36 36 41 42 49 53 52 47 44 40 41 45 44 46 49 48 46 46 45 47 30 28 29 30 31 33 35 34 35 36 36 35 33 30 26
84 81 82 83 79 71 50 40 40 38 35 35 34 34 34 34 35 38 38 39 39 41 46 50 55 62 58 54 51 47 45 48 46 45 44 47 47 46 30 28 27 28 27 29 31 32 35 35 36 36 34 31 27 23
87 85 87 87 84 76 55 46 46 44 40 40 35 33 34 31 32 34 38 39 39 41 44 51 55 61 62 67 65 54 55 55 54 48 45 45 37 26 25 27 28 27 26 28 30 32 34 37 39 38 32 27 24 22
88 90 92 91 88 81 59 50 49 48 46 45 39 36 34 31 32 35 38 42 45 43 42 47 56 65 63 71 75 69 62 59 60 53 49 46 37 25 21 25 28 29 29 30 31 32 37 41 40 33 27 24 21 16
92 94 96 95 93 86 63 55 53 52 51 51 47 40 37 37 36 40 39 38 42 45 40 40 44 52 59 62 71 74 76 69 64 56 54 46 28 23 22 22 26 29 29 29 30 35 41 40 35 30 24 19 14 13
96 97 98 98 97 87 68 61 58 56 56 54 51 45 42 43 44 46 41 39 41 38 36 38 46 49 56 61 66 73 76 75 69 68 59 39 28 23 22 22 26 28 28 30 33 37 40 37 32 25 18 14 13 16
99 99 98 98 99 88 72 67 65 63 60 59 55 53 45 49 43 39 38 39 36 35 37 41 45 50 56 67 70 74 70 69 72 73 58 47 35 27 24 24 27 32 36 33 32 33 37 34 28 19 15 15 19 20
100 99 98 98 98 87 77 73 70 70 66 62 60 57 52 42 42 38 37 34 34 39 44 44 46 49 57 63 69 74 74 69 65 57 51 51 39 35 34 31 30 32 37 30 29 31 35 30 22 17 17 20 21 21
99 98 96 98 96 85 83 83 79 80 74 66 62 62 57 47 44 41 37 37 37 42 46 45 47 51 53 59 65 70 75 67 57 56 51 51 41 41 39 37 35 36 34 33 33 32 33 26 21 20 20 21 22 21
98 94 99 99 93 89 91 89 83 82 77 73 66 62 57 47 45 43 41 39 40 44 49 51 51 47 51 55 55 55 67 65 60 58 51 46 42 38 37 35 36 38 39 38 33 34 31 26 24 22 22 22 22 22
96 97 99 98 94 96 97 94 87 81 76 71 72 65 60 51 46 42 41 40 40 43 47 50 50 50 49 45 49 51 55 55 54 52 54 51 49 45 40 43 42 40 39 31 34 38 31 29 25 23 22 23 23 22
98 99 98 98 97 97 97 96 91 84 75 72 67 63 60 54 50 47 43 42 43 47 50 50 51 44 38 37 39 47 48 53 56 67 56 52 56 50 49 43 40 40 35 35 43 38 33 29 27 23 23 23 23 22
98 99 98 98 98 97 96 94 91 86 81 76 75 69 66 60 52 50 49 47 47 49 54 50 39 34 36 38 38 36 42 46 50 62 66 52 53 53 46 43 39 37 35 47 47 39 32 30 26 24 24 25 24 23
98 98 99 98 98 97 94 91 87 84 81 76 71 71 70 67 61 57 54 50 53 49 49 35 32 34 42 45 43 41 43 56 64 66 70 55 52 51 52 50 47 43 48 53 48 39 32 30 26 24 25 27 26 24
98 99 98 98 98 96 96 91 86 82 82 81 79 78 75 70 67 65 61 58 51 40 36 33 34 39 41 42 42 40 41 42 50 61 66 63 60 53 50 49 47 51 55 53 46 39 33 31 26 25 26 28 27 26
98 98 98 98 97 96 95 92 89 85 83 82 81 78 77 74 70 70 66 56 44 30 33 33 34 38 39 39 40 42 44 44 47 59 67 59 56 57 52 50 47 52 55 53 46 40 34 30 26 26 27 29 29 28
98 98 97 96 96 94 88 88 89 88 86 85 84 84 78 76 74 72 63 53 36 33 31 29 35 37 37 38 41 44 49 49 47 62 73 68 56 54 50 50 48 59 57 51 44 40 34 30 27 27 28 29 30 29
98 97 97 94 93 91 87 88 88 87 86 87 87 85 85 84 81 73 61 50 34 30 27 31 35 36 37 37 42 49 55 60 56 68 88 76 60 55 53 53 56 61 54 51 46 41 34 30 27 28 29 29 31 30
97 94 91 85 83 80 80 82 83 83 88 91 89 89 90 90 86 70 58 45 31 30 31 33 36 39 40 40 44 53 62 73 84 95 84 69 61 58 56 56 65 57 53 50 45 39 34 30 28 29 29 30 30 30
95 88 85 81 79 74 78 79 80 83 90 90 90 93 93 92 78 60 45 34 35 38 40 39 38 39 40 44 49 57 69 84 85 86 74 67 61 57 58 65 62 54 50 49 43 37 33 29 29 29 30 30 29 31
90 84 78 77 79 78 81 83 86 87 85 85 89 92 86 78 63 45 35 35 39 44 45 45 44 44 45 49 52 59 68 82 85 79 73 67 59 64 79 74 58 52 54 49 41 35 32 30 30 31 31 29 29 32
85 80 79 82 83 84 82 81 81 79 78 82 83 84 75 56 42 38 37 43 46 48 51 51 49 49 51 55 58 64 80 82 81 76 68 64 65 72 64 60 66 62 54 46 40 36 31 31 31 32 32 30 30 33
79 78 81 85 85 83 81 79 80 79 80 80 76 63 50 45 44 46 47 48 50 54 58 59 56 54 56 59 60 74 88 78 74 68 64 64 71 67 62 71 73 64 52 45 39 34 32 33 33 33 32 32 33 37
78 79 81 83 85 86 83 83 84 86 82 69 57 52 52 53 49 48 49 52 56 58 62 63 62 60 62 65 70 82 84 73 66 62 63 68 73 71 69 73 64 54 48 43 38 36 35 34 34 34 34 34 37 42
80 79 81 86 88 89 90 90 85 73 63 61 60 58 57 55 51 49 54 59 60 60 65 69 66 64 65 68 76 87 83 71 65 64 70 74 76 75 74 63 57 51 46 42 40 39 35 35 36 36 35 37 42 47
87 89 91 92 90 89 83 75 70 71 70 66 61 58 57 58 57 50 53 59 63 69 71 67 65 66 68 69 77 85 83 72 68 67 64 65 72 77 72 62 55 50 45 42 42 38 37 38 37 37 38 42 47 53

GFSWCAN_prec_cthk_093.txt.gz
RH
48 49 56 76 70 63 40 26 21 22 21 20 28 31 38 42 46 47 42 32 24 24 26 32 38 37 38 43 46 43 40 40 40 42 40 40 37 35 34 30 30 33 35 39 39 40 36 31 31 32 32 31 32 33
49 51 56 73 72 66 52 31 23 22 21 19 24 28 30 35 40 46 48 45 39 33 28 29 33 36 39 38 41 45 45 49 49 49 47 42 40 38 36 35 30 33 30 34 33 31 30 30 28 28 29 30 32 33
54 47 55 71 75 69 62 39 28 22 24 21 21 25 28 30 34 41 51 51 47 40 37 30 29 29 33 38 41 42 45 44 48 47 48 49 46 41 40 38 33 32 33 33 30 25 27 28 29 30 31 32 34 35
64 54 53 71 76 70 67 48 33 26 26 24 22 25 26 29 33 37 43 52 48 47 47 43 36 32 30 32 36 39 42 42 43 44 49 50 48 40 40 37 37 33 34 34 33 29 29 29 29 31 32 33 34 36
71 61 60 74 77 71 71 57 38 31 29 26 25 28 27 29 30 35 40 43 42 44 46 43 41 37 35 30 31 34 39 42 44 45 47 46 45 45 43 42 39 34 32 36 33 29 29 31 32 34 33 34 35 37
75 66 66 76 79 74 74 65 44 36 33 30 26 29 30 31 31 35 39 41 35 37 39 40 41 42 43 43 43 38 34 38 44 47 48 48 44 46 50 49 32 29 27 28 28 29 32 33 34 34 35 36 37 37
76 71 74 80 82 77 76 70 50 40 37 33 29 28 34 32 30 36 35 31 29 29 32 37 41 42 41 42 45 48 48 45 41 43 46 44 44 51 51 38 29 29 30 30 31 32 33 35 36 36 38 39 38 37
79 83 80 83 85 81 78 75 56 46 41 39 38 35 39 36 35 31 34 32 31 30 30 38 40 41 42 46 49 50 53 55 55 49 44 42 45 46 46 30 25 27 29 31 33 33 34 35 37 38 37 37 37 35
83 88 87 85 87 85 83 78 61 53 46 45 44 44 43 41 38 34 31 33 35 34 34 35 39 47 46 47 51 56 60 65 63 61 57 51 45 43 28 27 28 28 27 29 30 33 34 34 35 36 36 39 39 34
87 88 91 87 90 88 89 82 67 59 54 51 48 46 44 42 39 35 32 32 35 37 37 37 37 45 46 52 54 58 63 70 73 67 65 60 46 29 26 27 27 29 30 28 29 30 30 31 32 34 39 41 36 30
86 90 92 91 92 91 93 88 72 66 59 55 51 47 46 43 42 41 39 36 39 38 37 37 41 43 45 52 53 56 65 69 72 69 72 66 57 35 27 23 22 27 32 32 31 31 31 31 33 37 39 37 33 25
84 91 92 95 97 94 97 92 79 70 64 60 57 52 50 47 47 46 45 41 39 38 37 37 36 36 40 42 49 53 59 64 70 70 73 69 57 49 32 24 25 29 32 34 34 33 33 32 34 36 34 32 26 21
87 91 92 96 99 99 98 94 83 74 71 67 61 58 54 53 54 52 48 44 42 35 33 32 36 36 38 42 48 54 57 60 61 71 69 58 51 53 46 35 27 28 31 32 32 32 32 35 36 33 27 23 24 25
89 94 94 99 99 99 98 94 87 81 78 69 65 63 59 58 52 50 45 41 35 33 31 33 36 40 42 45 49 54 51 52 58 63 62 52 49 46 52 45 37 33 30 31 32 32 35 36 35 26 21 22 27 27
92 97 98 98 98 98 98 94 90 87 82 72 68 66 62 54 53 48 47 44 38 35 38 40 40 43 47 48 49 50 53 54 49 50 47 46 48 53 59 48 45 39 34 33 31 30 31 35 31 26 26 33 30 28
96 99 97 98 99 98 98 97 96 92 87 76 71 70 67 65 61 55 49 45 41 40 41 42 45 50 51 49 52 50 50 45 39 40 34 41 49 58 55 57 51 47 45 42 38 37 37 32 30 33 38 36 30 29
99 97 98 100 99 98 98 98 97 97 94 81 69 71 69 67 62 57 50 47 45 45 47 47 49 44 48 51 49 43 42 36 34 33 36 41 48 60 61 52 49 49 47 44 42 41 39 37 39 45 41 37 32 29
98 97 99 100 98 98 97 97 97 95 88 82 82 76 73 71 63 58 54 50 51 48 48 48 43 45 45 42 41 34 34 33 32 28 30 35 43 53 62 61 55 50 49 47 46 41 35 44 48 49 42 39 32 29
96 98 99 99 98 98 97 97 96 90 83 82 82 81 79 77 71 62 58 56 54 52 54 52 46 42 35 32 32 31 34 36 34 34 35 38 44 53 58 62 57 55 54 53 45 37 43 53 56 49 43 40 33 31
98 98 99 99 98 97 97 96 95 92 87 84 83 83 80 76 72 67 63 59 58 55 58 56 43 31 29 28 31 31 35 36 36 34 34 41 48 55 60 61 58 62 59 48 42 42 54 57 57 49 43 38 34 32
98 97 99 98 98 98 96 95 93 88 86 87 87 87 87 83 79 75 72 69 69 61 60 50 39 32 31 31 33 33 35 39 39 40 39 39 46 52 59 62 58 57 54 49 48 50 64 59 53 49 44 41 37 32
96 99 98 97 98 97 97 95 92 89 89 87 89 88 88 86 84 81 77 78 72 62 60 53 41 35 34 33 33 33 35 38 39 40 41 40 40 45 54 58 54 57 54 49 47 55 65 55 56 49 45 42 36 33
98 98 98 98 97 95 96 94 91 88 89 89 89 90 88 86 82 81 81 75 69 64 58 52 41 37 35 35 35 32 33 36 37 38 40 40 43 44 50 60 54 55 57 52 46 61 64 56 56 54 48 44 37 35
98 98 97 97 96 95 93 92 91 90 88 88 89 89 88 87 85 84 76 68 69 68 65 51 43 41 37 36 32 32 32 35 36 37 40 43 48 52 54 62 57 49 51 51 51 68 62 57 57 52 47 44 37 36
98 97 97 95 92 90 90 88 87 88 84 83 84 87 88 88 86 81 70 63 65 67 68 57 48 43 39 35 33 32 32 33 34 37 43 48 51 57 58 65 66 55 53 50 63 67 63 58 55 49 46 42 38 37
97 95 92 86 83 82 81 83 82 82 84 85 84 87 87 88 88 78 68 66 68 68 61 55 49 45 41 38 37 36 33 35 36 38 45 52 59 65 69 76 65 57 56 64 72 66 57 56 54 47 46 41 39 35
96 89 85 83 81 78 81 81 82 83 86 84 85 88 91 92 85 72 69 70 66 58 53 49 46 43 40 39 38 37 36 37 39 46 54 63 73 80 80 74 66 60 63 73 71 59 59 57 50 46 44 43 40 32
89 81 80 82 83 81 84 86 87 85 80 80 83 88 87 82 76 71 73 71 62 56 51 48 45 43 43 42 40 38 39 41 46 53 64 72 73 73 68 66 66 65 82 73 60 62 60 52 47 46 45 43 38 32
86 86 84 85 86 87 86 83 80 77 77 80 80 82 80 75 76 80 78 70 62 57 49 47 47 48 47 44 42 41 41 45 49 56 62 69 75 72 72 64 78 82 70 71 71 64 56 53 48 47 45 43 37 34
82 82 85 88 87 87 83 79 79 80 79 79 77 78 78 78 83 82 76 67 57 49 48 50 51 48 47 49 48 46 47 50 55 63 69 79 83 77 69 68 73 71 82 83 70 60 54 52 48 47 46 42 36 36
86 87 89 87 86 84 81 83 84 83 82 81 81 81 82 82 77 72 64 56 53 52 51 47 46 48 51 52 51 51 52 57 65 75 79 84 79 72 71 73 71 80 82 69 61 56 54 50 50 50 46 40 37 38
89 87 82 84 87 88 89 87 89 88 87 87 87 87 87 81 69 61 57 55 54 48 44 46 48 48 51 53 54 54 57 68 75 81 83 80 76 70 69 80 80 79 70 61 57 56 53 51 52 49 43 39 40 40
90 85 84 89 93 93 94 94 95 96 95 94 92 85 74 66 62 56 53 46 44 44 45 48 50 51 52 55 59 61 65 73 80 80 78 74 66 64 75 89 86 73 64 61 59 56 53 52 51 46 41 42 43 42

GFSWCAN_prec_cthk_096.txt.gz
RH
49 50 49 53 50 60 67 66 46 28 24 25 22 28 30 33 34 38 40 41 38 25 23 27 30 35 34 36 39 38 38 40 40 41 42 41 42 38 39 34 32 33 37 40 42 45 40 31 32 32 27 30 30 31
55 57 53 53 53 58 69 69 57 36 27 25 25 25 28 29 32 35 38 42 43 45 39 29 28 33 35 36 37 38 38 40 43 47 49 49 44 43 40 42 33 39 33 32 34 31 28 31 29 28 28 28 30 32
61 64 62 55 55 56 69 71 66 45 31 29 25 24 28 28 29 32 35 39 44 46 40 38 36 35 36 37 39 41 40 41 41 41 44 48 50 47 48 43 36 32 34 37 33 25 27 27 29 31 31 32 32 34
64 67 70 64 58 59 68 76 70 57 37 32 29 26 29 29 29 30 33 36 38 42 45 42 40 39 38 39 39 40 42 43 44 43 44 45 44 39 41 38 39 35 35 35 35 30 30 29 29 32 33 34 35 36
68 71 73 73 62 63 70 80 71 65 45 36 33 29 30 32 31 31 31 35 37 35 35 35 36 38 41 45 44 44 45 47 48 49 49 48 42 43 43 43 39 31 32 38 33 29 31 30 31 33 36 38 37 37
74 73 77 79 67 65 73 83 74 71 54 41 38 33 33 34 34 34 34 34 36 34 30 30 30 33 36 37 39 42 48 52 55 57 55 51 47 46 49 46 27 26 27 29 30 31 31 31 33 36 37 39 40 41
76 74 76 81 71 70 79 85 81 75 61 47 41 37 35 39 39 37 38 33 29 28 27 27 27 32 33 33 36 39 44 50 53 58 58 56 56 59 57 42 28 28 28 29 30 33 36 36 35 37 39 41 42 42
76 78 79 82 75 73 83 87 87 80 66 54 47 43 41 45 43 42 39 38 30 29 29 33 30 31 32 35 39 43 44 47 52 56 61 64 64 65 61 42 38 31 29 30 30 31 33 36 38 40 41 41 40 36
76 78 80 84 82 76 83 90 91 86 73 64 55 51 51 50 48 45 45 43 40 37 32 32 32 33 35 38 40 43 46 51 52 56 61 65 64 65 47 43 41 41 37 32 33 34 34 37 38 40 40 37 34 34
76 77 79 85 85 81 82 93 92 89 81 73 64 58 54 52 50 49 46 45 44 43 39 35 30 36 35 41 43 46 47 50 53 52 57 63 63 50 48 45 40 35 38 37 36 36 36 34 34 36 35 34 34 36
70 75 79 84 87 84 83 92 97 93 88 81 71 61 57 54 50 50 51 51 49 47 41 39 37 38 38 40 41 42 46 49 52 46 53 53 58 50 48 46 43 37 35 34 36 36 33 33 35 36 34 33 33 31
78 76 79 81 86 85 86 93 97 95 91 84 75 66 62 57 54 54 55 55 53 48 43 43 40 38 37 36 39 45 48 49 50 47 51 51 43 39 42 44 48 52 44 44 42 39 38 37 36 34 32 30 27 21
83 79 86 85 89 87 87 93 97 97 97 91 81 73 65 62 65 60 56 56 52 44 44 42 41 37 37 37 42 46 50 51 48 51 46 38 28 30 33 38 49 53 52 47 46 42 37 35 33 31 29 23 19 22
88 90 86 93 93 91 92 92 97 98 98 92 84 77 72 68 62 59 55 50 44 42 43 40 42 42 41 43 46 50 46 49 54 52 38 31 24 25 33 41 44 50 50 46 44 43 40 38 33 29 21 19 21 27
87 93 92 97 96 95 95 97 97 98 97 93 85 76 66 63 61 58 59 55 49 44 46 47 46 45 47 47 49 50 52 52 47 38 31 22 23 26 30 35 44 51 50 49 47 44 42 40 36 29 26 28 34 47
74 94 96 95 98 99 99 99 98 98 97 95 87 74 67 69 67 66 63 60 50 49 51 51 53 54 51 49 53 51 50 43 33 33 24 25 26 28 33 40 48 52 49 53 51 50 47 45 40 32 33 44 52 53
68 87 98 99 98 99 99 98 98 97 96 91 82 77 73 73 68 63 64 60 57 54 57 56 59 53 53 55 53 45 40 32 28 26 25 25 25 26 30 34 40 51 51 45 51 53 52 48 40 37 45 60 58 53
70 83 96 98 99 98 98 98 98 96 90 84 83 78 78 78 73 69 67 64 62 62 58 54 52 58 56 54 44 33 30 28 28 29 27 27 29 30 35 37 41 45 51 52 53 54 54 50 43 43 55 63 56 54
72 80 97 99 98 98 97 97 96 92 84 84 83 81 83 81 80 75 75 74 67 62 60 59 58 58 56 44 33 30 30 29 30 30 30 30 31 33 34 34 41 48 50 50 49 53 55 50 41 45 59 64 53 51
78 87 99 98 99 98 97 97 95 94 88 84 86 84 85 85 85 86 85 81 78 71 67 64 57 57 57 43 35 34 33 32 33 32 32 31 33 33 36 37 38 48 52 48 46 49 44 42 45 60 68 66 55 49
90 86 97 99 98 98 97 96 94 88 85 85 86 86 89 88 91 93 92 90 86 74 67 59 61 60 59 50 41 39 37 35 36 36 37 36 33 33 37 39 39 43 54 56 49 47 40 33 42 65 69 64 53 53
95 99 98 98 98 98 98 96 93 87 85 83 86 87 88 88 89 95 97 96 82 70 67 67 67 66 63 59 49 43 41 40 37 36 37 37 35 34 36 37 40 41 45 56 58 55 42 35 42 56 67 63 58 57
99 98 98 98 98 98 97 95 95 91 89 87 89 90 87 86 87 90 92 81 70 68 71 72 72 71 66 61 54 49 45 44 39 37 37 38 37 35 36 37 39 41 47 53 57 53 50 49 56 60 65 65 60 56
99 98 98 97 98 97 94 95 95 92 91 90 87 88 87 86 86 90 82 67 63 69 73 75 74 70 68 63 60 54 47 44 42 40 40 43 40 36 37 38 41 46 53 57 55 54 48 49 64 70 72 67 60 56
98 97 98 98 97 92 90 90 91 91 89 87 88 88 87 87 88 85 75 65 67 67 71 75 71 66 63 63 64 60 53 47 45 43 44 42 39 38 38 42 45 51 58 61 57 51 45 52 65 75 68 63 60 54
97 96 94 89 85 83 83 86 85 85 87 88 88 88 88 88 88 76 65 62 64 66 68 67 67 67 65 63 57 54 52 50 48 47 41 39 38 37 40 45 50 57 64 64 55 48 54 66 72 67 66 65 58 53
98 93 85 84 83 78 77 77 78 82 87 86 85 89 90 89 80 65 62 62 65 66 66 65 64 62 58 56 55 53 50 49 47 45 43 40 39 41 47 51 59 69 72 64 53 50 66 76 67 65 69 59 56 52
94 84 75 76 81 78 77 79 80 80 78 79 83 87 84 75 67 66 67 67 68 65 62 60 58 55 56 57 56 55 53 50 47 45 44 43 44 50 56 61 68 75 71 62 56 70 81 67 64 71 63 58 56 52
83 77 76 78 81 83 79 75 75 74 72 77 78 82 81 74 70 71 72 68 66 62 60 60 58 59 60 60 57 53 51 49 46 44 43 44 48 55 63 69 68 62 58 62 74 76 65 71 74 67 60 57 54 54
76 75 77 78 76 75 73 72 74 74 77 79 80 79 79 78 77 76 74 70 69 70 71 67 66 65 60 57 54 52 50 48 47 46 46 47 52 59 65 71 67 58 72 82 78 84 85 81 69 59 57 56 54 54
74 74 76 79 78 76 76 77 78 80 80 81 82 86 85 83 78 75 74 72 72 76 75 72 68 62 56 54 53 50 50 49 47 46 48 52 60 67 75 77 71 71 71 77 88 86 76 67 61 57 56 57 57 55
75 77 78 84 86 85 86 84 84 83 87 91 90 88 82 77 75 71 69 70 73 76 75 70 65 60 54 52 49 48 46 46 46 47 51 57 68 75 82 85 75 70 70 86 89 76 67 62 59 58 59 58 56 54
79 82 88 91 93 91 90 92 94 96 96 93 89 84 80 77 73 68 69 73 75 72 68 61 55 52 50 47 44 43 43 45 47 53 62 67 71 79 85 76 76 79 87 90 78 70 66 63 60 59 59 58 56 52

GFSWCAN_prec_cthk_099.txt.gz
RH
41 47 51 55 49 51 54 53 61 62 54 35 26 22 23 27 28 29 29 35 40 42 34 25 24 28 31 33 34 33 35 36 40 41 43 42 44 39 40 36 33 34 39 43 45 49 43 29 34 31 25 26 26 28
45 51 60 62 58 55 56 55 62 66 60 47 33 25 24 25 26 28 31 31 35 41 44 43 34 30 30 32 34 36 37 39 42 45 49 50 48 47 44 44 34 40 32 31 35 33 26 29 29 29 29 29 30 29
57 56 64 66 67 61 60 61 62 67 67 56 40 32 24 27 27 26 30 33 34 36 41 42 35 33 37 39 38 39 38 38 42 43 45 46 47 46 50 48 40 34 34 37 34 25 27 26 28 29 31 31 32 32
66 66 67 71 71 72 69 66 66 69 73 63 51 38 32 29 30 29 28 31 34 33 36 35 38 37 36 39 42 44 44 47 48 51 52 53 51 46 44 38 36 32 34 37 38 29 32 30 29 30 32 33 35 37
66 68 72 74 75 75 79 71 72 72 75 69 60 46 37 34 32 33 32 33 35 35 31 30 32 32 35 38 39 41 43 45 48 50 53 54 52 55 55 53 51 40 32 38 35 29 32 28 28 29 32 33 36 37
68 70 75 77 76 78 81 77 74 76 75 76 65 58 44 38 37 37 38 39 39 37 35 30 26 27 28 30 33 37 42 44 46 46 48 47 48 52 56 54 46 44 43 38 35 34 35 33 33 32 31 35 37 38
67 71 76 79 78 78 81 78 76 79 80 80 70 65 54 43 39 42 42 45 40 36 31 28 26 28 30 33 35 36 39 42 45 47 48 48 50 57 58 59 48 44 47 47 43 40 38 36 37 39 39 37 38 40
60 67 73 78 79 80 83 79 77 80 83 83 78 71 64 53 47 45 45 45 44 41 37 36 31 28 28 30 33 37 42 44 45 47 49 52 52 58 57 44 45 44 45 45 45 44 42 38 39 41 44 44 42 42
58 63 68 74 79 81 81 82 80 81 84 85 82 80 74 69 58 51 50 51 51 47 44 41 35 31 33 35 37 41 43 48 48 49 49 49 49 52 41 40 37 37 38 40 41 46 47 45 40 42 45 46 45 39
57 59 63 71 79 83 85 84 86 86 85 81 88 85 78 76 71 59 56 56 56 55 54 49 38 39 37 40 43 44 45 48 50 48 48 48 40 32 31 32 34 35 35 42 49 48 50 49 44 44 43 41 39 35
50 57 59 67 80 81 87 86 86 89 86 84 88 87 82 79 72 65 59 59 58 59 55 50 44 42 41 45 45 43 45 48 52 47 50 45 39 28 23 25 24 26 35 40 45 51 56 52 49 44 44 44 39 35
40 48 60 66 77 84 86 89 86 88 90 85 84 90 87 81 75 71 68 64 63 60 58 54 51 47 47 44 42 45 46 49 51 48 51 47 30 22 22 22 23 27 31 39 42 47 55 53 53 51 52 47 41 34
33 37 49 66 77 85 87 89 93 89 88 93 90 85 85 81 80 71 69 68 69 61 58 52 54 51 49 46 47 49 50 52 50 54 48 35 23 21 22 20 22 26 31 34 40 40 46 54 54 51 42 35 29 23
30 33 38 53 77 87 95 89 97 94 96 93 93 88 83 78 68 64 64 64 60 57 54 53 54 51 51 52 51 53 50 51 56 56 42 31 22 21 21 22 25 26 29 34 36 39 41 44 48 46 42 36 29 26
34 28 34 40 65 89 96 97 99 97 98 98 94 87 72 62 65 61 60 61 63 62 59 55 56 56 58 59 57 55 57 57 53 42 33 23 22 22 21 23 26 28 31 33 35 38 37 38 42 45 39 33 32 36
42 40 29 32 58 90 95 99 98 98 98 98 92 79 68 67 69 70 70 70 68 65 61 58 62 60 63 63 67 61 57 52 39 36 27 24 24 24 23 24 26 28 30 32 36 37 36 38 39 39 40 38 41 49
65 45 36 40 56 85 99 98 98 97 98 96 78 77 74 66 64 70 68 71 71 69 66 63 62 58 62 69 69 62 58 40 32 29 27 26 27 28 27 27 28 29 31 33 35 37 40 40 37 37 36 37 48 57
63 45 54 52 64 87 98 98 98 97 94 80 76 73 78 79 75 74 71 73 73 70 64 63 58 61 61 64 68 59 44 35 32 30 29 29 29 31 33 32 31 31 32 32 33 38 42 39 39 39 35 34 48 53
52 69 77 68 74 88 98 98 98 96 87 82 79 76 80 80 80 80 77 80 76 72 69 68 65 57 55 61 65 54 39 38 35 34 34 33 32 33 35 37 36 34 34 35 36 37 40 40 39 36 32 34 43 54
53 70 79 84 79 86 94 98 96 96 91 81 81 81 81 80 83 85 84 87 91 87 81 68 59 55 59 62 64 65 57 52 44 42 39 40 39 36 37 40 40 38 37 37 39 40 43 43 44 38 33 36 46 54
74 76 82 91 88 79 85 97 96 92 89 87 85 89 93 88 90 91 92 94 96 90 75 63 62 65 69 70 73 72 66 66 61 52 47 48 48 44 44 42 41 41 38 38 39 41 42 46 48 44 39 40 46 54
78 89 91 98 86 92 96 85 96 90 89 86 89 93 95 95 95 96 97 97 90 73 69 69 69 74 78 78 77 74 73 70 67 64 60 54 51 48 47 45 44 43 42 40 40 41 43 46 48 46 39 42 56 64
94 98 98 96 96 98 93 96 95 93 93 89 94 95 93 94 95 96 98 84 69 70 75 78 78 84 85 85 82 79 78 74 70 66 60 54 53 52 51 50 46 46 44 41 42 41 45 50 52 48 41 47 59 64
79 98 98 98 98 98 96 91 80 86 88 92 95 92 88 91 91 93 81 67 62 68 71 75 81 85 85 81 80 81 80 77 73 70 68 64 60 55 54 52 49 45 43 44 43 45 49 53 55 49 43 49 58 69
74 88 97 97 97 96 95 90 79 83 84 86 90 91 86 90 92 86 70 62 65 67 68 72 75 76 74 72 76 77 80 76 68 66 68 69 63 58 52 48 46 44 45 46 47 49 53 58 57 48 44 55 65 64
79 87 96 90 90 91 87 90 86 78 80 82 85 85 87 90 89 73 61 61 63 66 69 71 72 73 71 71 72 73 73 69 66 68 65 58 55 52 49 48 46 44 45 49 51 53 58 60 57 49 46 59 65 66
96 97 94 85 84 85 86 82 83 82 84 84 82 83 86 91 79 61 59 60 61 66 70 73 73 66 65 65 65 67 67 66 64 61 59 55 53 51 50 49 46 46 50 53 55 59 62 60 55 53 59 67 66 70
97 94 79 83 90 86 81 81 83 82 77 76 81 81 76 71 63 63 64 63 67 75 76 73 68 65 65 63 59 59 56 55 56 59 59 55 52 52 50 48 48 53 55 58 61 65 65 60 56 66 74 67 70 73
83 76 78 78 79 83 82 77 75 74 68 72 74 76 71 67 68 69 69 71 74 76 73 70 67 66 63 59 57 55 57 60 60 58 54 51 50 48 48 49 52 57 60 62 65 61 60 64 76 77 72 72 77 69
64 67 76 77 76 69 60 63 64 68 72 72 73 70 68 69 75 74 73 75 79 83 76 72 66 65 64 61 60 61 62 61 58 55 53 51 50 49 49 50 55 61 67 70 61 53 65 78 79 76 80 81 68 61
55 58 62 68 68 60 60 63 69 74 76 76 77 75 75 79 78 77 77 80 85 87 76 72 70 69 69 69 67 65 64 62 57 55 52 50 50 50 50 51 55 62 71 72 58 69 77 87 92 88 78 69 63 61
72 70 65 65 66 67 71 72 76 78 81 83 83 83 83 83 80 76 77 85 87 81 74 73 73 71 72 73 72 69 66 60 55 52 49 49 50 49 51 55 62 71 78 69 77 82 92 89 81 75 68 62 62 63
79 77 74 76 79 77 78 79 81 83 85 87 86 86 84 84 82 77 80 82 81 76 72 73 73 73 74 75 74 67 58 54 52 49 47 45 45 51 57 64 71 80 78 74 76 92 95 84 77 70 67 64 63 63

GFSWCAN_prec_cthk_102.txt.gz
RH
46 45 48 51 50 52 57 56 53 54 60 58 52 48 36 27 25 24 24 25 27 36 38 39 34 26 27 31 34 32 35 33 36 36 38 38 40 38 39 34 33 35 41 46 49 54 47 28 31 31 25 24 26 28
58 53 55 59 63 62 65 62 60 58 59 64 59 53 47 36 27 26 24 25 27 28 32 39 42 44 39 32 31 33 34 36 40 43 45 47 47 46 43 42 34 38 34 34 36 33 28 30 30 29 29 29 29 28
60 61 62 67 69 66 66 67 69 67 65 67 65 59 54 44 36 29 27 26 27 27 26 28 36 37 38 37 41 44 42 42 44 45 47 49 49 49 51 50 44 43 44 43 36 27 29 30 30 30 34 34 33 32
55 60 63 68 70 69 69 70 74 73 70 70 71 64 61 53 45 36 32 31 30 30 30 24 26 30 33 34 37 41 43 44 44 46 48 49 51 47 48 44 43 42 44 44 44 37 32 30 32 34 35 35 36 37
64 66 66 70 73 73 74 75 76 76 77 73 76 66 67 60 54 45 40 35 35 34 32 27 26 27 29 35 37 40 44 46 46 48 52 53 48 51 51 48 45 42 43 48 41 37 39 38 34 35 35 36 36 38
67 69 68 70 76 77 78 80 80 81 79 74 76 73 69 69 61 57 50 47 45 44 40 35 24 24 24 27 31 36 39 42 48 49 48 47 48 52 53 51 38 37 40 42 40 40 43 41 40 38 33 36 39 41
64 65 68 67 72 79 77 82 82 80 78 76 78 77 71 73 68 63 59 55 49 44 41 38 32 28 29 31 32 33 36 40 43 47 48 47 47 52 52 48 32 37 39 37 35 37 38 38 42 44 44 40 37 41
59 61 62 64 66 70 78 79 85 82 79 76 80 80 74 73 77 72 65 62 58 53 47 47 42 34 33 33 33 36 39 42 45 48 51 51 51 53 50 32 33 34 35 34 32 30 32 39 42 43 47 47 46 45
53 53 55 60 64 66 73 81 83 83 81 78 81 80 77 78 82 81 78 73 68 62 54 52 50 44 42 41 38 40 43 47 49 50 49 50 50 47 32 30 30 31 33 32 32 27 28 30 37 40 45 51 52 55
45 48 50 53 60 64 71 80 86 83 83 84 83 79 76 76 78 80 80 79 77 74 69 62 56 54 49 51 49 48 52 52 51 47 49 51 42 29 27 25 24 24 24 23 28 30 31 32 35 39 41 46 52 52
44 43 41 43 50 61 68 78 86 89 87 86 83 81 79 77 75 75 77 79 76 72 65 67 64 64 58 56 52 50 55 55 57 52 52 50 43 27 21 20 22 21 22 24 27 29 31 35 36 35 37 43 46 49
38 42 40 40 42 49 69 81 86 90 88 93 86 83 80 82 80 77 73 70 77 69 64 68 69 68 61 56 53 56 55 57 58 55 57 51 33 23 21 21 20 20 22 27 27 27 33 33 34 34 36 41 45 39
19 24 36 40 43 45 53 82 87 92 93 94 96 92 86 84 83 75 67 64 68 66 71 72 73 67 63 58 55 55 59 62 59 63 57 41 28 22 21 21 21 22 24 29 32 31 31 34 36 37 38 36 36 34
16 19 22 23 31 43 53 75 88 93 96 98 98 96 87 77 68 58 58 60 58 64 67 69 74 70 63 59 58 59 60 62 66 68 56 40 29 26 23 22 22 24 25 27 29 31 32 31 34 37 35 32 28 28
17 20 23 23 25 26 45 61 86 91 99 98 98 96 78 64 59 58 57 57 60 64 66 67 70 70 69 65 61 61 68 68 64 59 48 36 30 31 28 24 25 25 26 28 30 31 32 32 30 31 32 31 28 24
21 18 16 25 29 31 34 47 71 89 99 98 98 89 71 72 69 64 63 67 70 72 70 65 69 73 70 67 68 62 63 61 59 56 38 34 33 32 31 29 27 27 28 30 32 33 32 32 33 34 35 34 28 24
26 26 23 22 46 42 38 62 67 77 91 97 91 76 75 71 72 74 71 74 75 74 76 74 74 71 71 71 67 61 63 56 58 47 39 35 35 34 33 32 32 32 31 31 33 36 36 35 34 34 35 35 31 27
30 31 38 39 57 64 67 68 69 85 97 80 75 71 78 78 79 80 76 76 79 80 77 74 74 78 72 69 66 61 57 57 61 53 42 33 32 35 38 39 39 39 37 36 37 38 40 39 37 37 36 36 32 27
34 37 47 68 87 86 80 76 73 75 81 79 75 75 77 77 82 84 83 83 81 80 76 73 73 63 60 62 62 59 61 63 67 66 51 37 39 42 43 46 47 47 46 44 42 40 40 42 42 43 41 39 37 30
38 42 47 72 85 86 81 98 77 88 85 57 72 83 84 81 84 86 88 90 92 92 88 74 61 59 58 59 64 64 65 69 69 76 68 58 55 55 56 55 54 55 54 52 48 44 44 46 47 47 44 41 42 34
50 54 65 75 86 91 99 98 97 87 60 60 79 91 93 87 89 90 92 96 98 96 84 65 63 65 69 67 69 72 73 74 75 79 78 73 70 67 68 65 63 59 58 57 52 50 49 50 51 49 46 44 46 39
57 68 76 82 83 89 96 97 95 87 81 65 72 83 89 91 91 92 95 99 95 78 68 74 75 78 78 77 78 81 82 84 83 83 82 79 78 76 74 72 68 63 59 59 55 52 54 54 52 50 48 48 48 44
68 78 85 85 83 87 96 93 87 82 83 74 73 75 76 79 83 86 94 89 73 64 70 75 79 81 81 81 83 83 86 87 87 87 88 85 85 82 78 75 72 67 65 64 57 57 55 53 53 52 51 50 52 49
73 80 88 99 98 97 98 82 66 77 93 95 89 86 72 72 79 87 81 65 59 68 71 74 80 82 82 82 77 77 79 84 86 86 87 88 88 85 81 76 73 72 72 67 59 56 53 53 55 53 54 54 57 51
81 82 83 90 94 94 96 96 83 85 85 87 92 96 84 84 87 84 67 55 58 65 67 71 74 77 79 74 73 74 76 79 79 79 83 86 86 84 76 73 73 72 65 58 55 53 54 56 56 55 56 60 61 51
81 80 83 86 86 80 78 90 94 88 79 83 86 88 92 98 98 77 54 51 55 60 63 66 69 76 75 78 79 78 76 76 75 75 78 80 81 77 73 71 63 58 55 56 56 55 56 57 57 58 62 64 62 50
86 74 65 58 65 67 67 68 72 78 83 82 78 86 97 98 90 65 53 51 53 56 61 66 73 78 78 81 77 75 73 73 74 74 77 77 75 72 67 60 56 56 56 56 56 56 56 58 62 63 64 65 57 51
91 68 60 57 57 54 58 53 52 64 72 74 77 88 94 88 69 61 57 55 58 64 71 70 70 72 77 77 76 74 74 74 73 72 72 68 62 57 56 56 55 55 56 56 57 58 61 63 64 65 66 61 56 62
66 67 63 62 63 64 61 54 52 64 62 67 73 82 79 72 70 71 70 67 70 73 68 70 72 72 75 75 75 75 74 70 65 61 60 61 62 59 56 54 54 54 56 57 60 62 60 61 63 63 61 59 66 76
59 61 70 73 73 62 52 53 53 61 66 68 70 72 73 71 73 74 72 73 73 73 73 74 75 76 80 79 77 75 72 68 65 65 68 67 61 57 55 55 56 56 58 59 61 59 60 62 63 61 62 75 78 79
50 60 66 68 63 56 57 63 65 66 72 70 68 71 70 73 75 75 73 76 77 78 76 77 81 82 83 82 76 75 75 74 71 70 71 69 63 57 55 56 58 57 57 56 57 62 64 62 56 68 78 81 83 84
61 61 61 64 69 67 64 63 60 63 68 69 69 69 68 72 72 71 72 77 78 77 78 80 84 87 87 85 76 75 75 76 76 76 75 70 61 57 56 56 56 55 53 55 63 67 64 62 72 85 93 91 83 76
83 78 75 77 76 73 69 69 64 61 70 69 65 63 65 67 69 64 67 72 75 77 80 79 81 84 86 80 76 76 76 77 78 79 75 63 55 55 54 50 52 52 57 64 71 69 71 82 91 89 84 79 73 69

GFSWCAN_prec_cthk_105.txt.gz
RH
52 52 50 51 56 57 55 57 60 63 58 60 62 60 56 49 45 35 29 29 25 21 20 25 33 38 38 36 31 28 31 33 38 40 42 42 44 42 42 37 37 40 47 53 57 62 51 29 32 33 31 30 31 32
57 58 52 56 57 62 60 58 61 65 67 64 65 67 62 57 51 46 36 31 30 27 21 21 22 30 37 41 44 42 38 41 44 44 46 48 49 48 45 47 39 43 37 37 42 39 34 36 34 31 29 29 29 31
60 58 54 57 59 62 66 62 60 64 70 70 68 72 68 64 60 54 48 39 35 32 25 23 22 24 27 32 36 40 40 41 44 44 47 50 50 48 50 48 43 39 39 42 40 35 40 40 40 41 41 38 31 32
68 62 61 59 62 67 70 69 67 68 72 74 72 73 75 68 64 62 57 51 45 42 38 27 26 24 25 26 30 33 35 40 45 47 49 50 49 45 48 44 43 39 40 40 40 40 40 38 35 38 40 44 44 39
76 72 72 70 67 68 70 73 73 73 74 77 75 76 76 70 69 66 66 59 56 51 46 39 33 31 28 29 30 32 35 38 43 48 50 50 47 48 47 46 42 36 38 41 38 37 36 33 36 39 41 42 45 45
77 77 75 72 72 70 69 71 75 74 75 78 76 78 80 74 70 66 70 73 65 66 62 52 41 38 35 29 30 32 37 40 41 43 44 45 45 47 50 47 28 28 30 32 34 36 34 33 34 35 39 39 42 45
76 76 76 73 72 69 70 70 73 77 77 76 77 78 76 80 73 69 68 75 76 72 65 57 49 45 45 42 40 39 36 37 39 42 43 43 45 49 51 44 24 24 27 31 32 31 31 31 31 28 33 39 42 43
72 72 71 73 71 66 66 71 72 74 76 78 76 78 76 78 76 74 70 68 73 77 73 69 59 54 56 53 51 48 47 46 45 44 46 45 47 48 46 27 25 26 27 28 28 29 27 26 26 24 24 33 37 41
64 66 64 63 64 62 63 67 71 75 75 78 77 79 79 75 79 77 76 74 74 75 69 71 70 65 64 63 59 58 56 57 54 54 53 53 53 47 29 27 25 26 25 22 22 22 23 21 21 23 26 32 38 40
57 56 56 58 56 57 58 66 75 79 78 76 80 82 78 77 75 78 77 76 77 75 70 67 69 72 71 73 68 64 63 63 62 57 57 59 52 34 29 26 26 24 23 22 22 21 22 26 25 27 29 32 37 40
26 36 48 50 49 48 54 66 75 84 85 82 82 83 83 84 83 77 75 74 71 70 64 62 63 69 73 75 75 70 69 67 65 58 61 59 54 39 31 26 23 24 23 21 21 23 25 26 30 30 29 30 34 38
20 20 22 37 44 46 48 58 73 83 88 89 86 89 90 90 89 85 75 70 70 66 60 62 63 64 68 72 75 79 74 70 66 64 65 60 47 39 33 28 24 24 24 24 25 26 27 29 30 31 31 34 34 39
21 21 19 19 21 30 41 54 65 80 88 92 93 93 91 90 89 78 70 65 63 58 63 65 67 64 67 68 70 76 73 68 64 66 61 52 45 41 37 33 29 28 28 28 28 28 30 31 31 31 33 35 36 36
20 25 21 18 19 21 24 31 57 73 85 98 98 95 94 87 73 63 61 59 59 61 64 67 72 69 68 72 72 71 66 66 69 71 61 51 45 40 40 39 34 32 33 31 30 31 32 33 34 33 34 36 35 32
16 26 26 19 19 18 27 33 40 49 67 88 99 97 84 62 62 63 68 66 67 69 73 73 72 69 71 74 69 65 67 67 63 60 56 50 47 46 44 39 37 36 33 31 32 34 35 37 38 37 37 36 36 34
14 24 25 23 21 20 23 37 58 54 65 64 83 95 75 67 65 67 70 75 78 79 79 76 79 81 70 71 73 67 66 62 56 60 54 55 48 47 45 43 43 40 36 34 33 35 38 39 40 40 41 39 36 35
22 24 20 27 26 22 25 47 61 63 69 75 56 53 54 59 69 73 78 83 85 87 89 86 86 78 76 76 70 64 62 61 58 56 57 55 52 52 47 44 44 43 41 39 39 42 42 43 44 44 45 45 42 40
32 22 23 29 31 39 52 68 75 84 66 61 55 32 40 52 64 66 72 83 87 89 87 87 84 84 80 68 66 63 64 59 58 60 61 58 62 62 64 54 46 49 49 49 54 53 50 49 48 47 50 52 51 48
37 28 26 35 47 65 70 77 71 88 71 43 42 43 44 34 36 56 77 87 87 88 89 95 95 85 64 62 65 66 67 68 68 68 67 64 64 65 62 58 50 52 58 61 66 64 60 57 52 51 53 56 56 55
44 36 30 44 62 72 78 84 90 97 92 65 57 50 46 39 35 43 68 86 95 96 98 96 85 64 61 58 64 66 67 69 70 70 70 71 71 71 76 78 76 76 67 71 73 73 71 63 58 56 56 59 58 56
53 36 36 60 70 77 76 82 89 89 83 83 76 76 70 56 54 51 61 87 91 90 93 79 69 69 70 70 71 71 72 73 75 77 73 75 79 78 79 83 87 80 74 78 78 78 76 68 62 61 61 61 59 58
47 45 50 64 76 75 73 72 79 87 99 89 85 78 78 80 73 65 76 91 86 74 74 72 70 74 75 73 76 79 81 82 81 79 78 78 78 82 84 88 87 90 89 87 87 83 77 74 70 68 65 63 60 59
58 73 80 79 87 93 84 78 75 86 89 80 81 92 94 88 86 88 93 79 63 56 64 65 66 74 76 72 76 83 83 83 85 86 83 79 79 83 87 89 92 95 96 96 92 85 81 79 78 75 68 64 60 61
77 85 84 89 87 87 93 87 70 69 72 66 77 91 88 89 89 93 85 62 46 48 50 51 63 64 67 68 73 77 74 83 87 88 84 82 78 81 83 86 91 94 95 96 91 85 80 78 79 74 67 61 61 63
91 94 91 94 87 90 87 90 97 98 90 77 74 81 87 87 88 83 71 63 59 54 51 55 57 56 55 61 65 69 79 85 87 87 80 79 77 77 78 81 83 88 91 89 83 80 79 77 72 65 60 61 63 64
97 91 93 73 69 76 77 84 83 77 75 84 87 92 95 96 96 82 62 47 50 54 57 59 58 53 55 62 66 69 75 82 84 80 79 78 78 78 79 81 84 85 83 79 75 71 68 66 63 62 62 63 65 65
94 73 74 71 90 90 73 64 67 75 82 83 83 93 98 97 91 60 49 55 68 66 67 67 70 71 70 66 70 77 83 86 83 79 80 78 76 77 79 81 80 75 73 71 68 66 63 63 63 62 62 64 66 68
90 82 80 77 79 71 73 71 70 67 69 71 74 79 79 77 58 45 54 64 72 73 73 73 74 77 75 72 74 73 76 78 83 83 81 79 76 76 74 71 70 69 66 64 64 64 62 62 61 64 67 68 69 69
90 84 95 97 92 84 78 66 54 47 44 51 53 52 46 33 33 52 67 68 73 74 77 78 76 73 71 72 73 73 76 80 81 81 79 74 69 66 66 65 62 62 66 66 63 62 63 64 67 68 67 66 64 63
62 61 73 82 85 82 65 59 47 46 50 51 50 46 40 35 42 58 60 62 68 75 78 79 78 76 75 73 74 75 79 80 81 77 69 66 66 67 68 68 66 64 65 66 64 65 66 66 64 65 64 63 63 60
57 63 66 64 61 50 49 48 52 58 58 56 52 49 44 46 48 49 53 54 61 70 76 78 79 76 75 76 77 81 79 84 82 76 78 76 74 77 79 74 68 67 68 67 66 64 62 63 62 58 56 53 58 70
57 56 57 57 52 49 49 51 51 51 53 54 51 50 51 52 45 36 43 48 52 57 61 72 76 76 80 81 81 83 88 90 80 79 79 80 82 85 83 75 71 70 67 65 62 58 56 58 59 53 55 67 74 82
61 70 70 69 65 61 58 62 61 59 54 51 49 48 46 45 41 33 43 46 48 47 51 62 71 76 76 79 83 85 87 90 77 81 85 85 88 87 78 73 70 65 61 55 51 54 59 58 56 62 73 82 88 87

GFSWCAN_prec_cthk_108.txt.gz
RH
46 53 55 52 54 57 56 56 59 58 60 64 56 58 62 59 56 52 50 44 34 29 22 21 22 25 29 35 37 39 40 40 38 39 39 36 36 32 35 32 33 36 41 45 51 56 52 29 34 35 33 35 38 36
57 58 66 62 58 62 55 56 59 60 67 68 67 63 66 66 63 59 56 53 50 39 28 25 22 21 23 25 30 34 36 38 40 40 40 40 40 40 36 35 34 36 30 30 33 29 27 29 30 35 37 38 40 41
70 70 72 71 61 64 67 61 60 63 67 71 70 70 70 72 68 66 60 58 57 57 45 34 31 26 27 28 31 34 35 37 36 38 43 43 42 41 39 37 33 32 31 33 32 24 26 28 33 35 36 35 35 37
77 75 73 72 70 68 70 70 66 66 70 70 72 72 73 74 75 72 67 64 63 62 61 42 36 37 35 33 32 31 32 34 36 39 43 43 44 42 41 36 35 31 33 30 30 28 29 31 31 30 32 33 34 36
77 74 73 70 72 73 73 73 73 71 69 71 73 74 74 76 74 72 70 69 67 63 61 60 59 55 49 46 42 37 38 37 36 39 43 46 44 45 42 42 34 31 28 32 25 24 27 30 28 28 30 31 31 33
75 76 73 73 73 74 74 75 73 73 72 71 72 74 75 76 74 71 68 70 68 70 70 69 65 66 62 50 46 50 51 52 50 46 44 45 44 45 43 40 24 24 24 25 25 26 27 26 27 29 29 29 25 29
71 71 74 74 74 75 73 73 75 75 72 72 72 73 74 75 77 75 69 69 71 71 68 63 57 59 61 67 67 65 62 58 57 59 57 51 49 51 50 39 23 25 25 25 28 29 28 27 27 27 27 24 22 23
53 60 68 70 69 69 69 70 71 77 77 76 75 75 74 72 74 78 77 73 71 72 67 66 58 54 61 68 71 70 71 70 68 62 62 58 55 56 52 31 31 30 29 29 29 28 26 26 27 27 26 22 20 24
39 39 49 59 61 65 69 68 68 72 76 81 81 79 76 73 74 72 73 75 73 71 68 65 60 58 56 60 64 69 73 76 71 70 67 63 61 60 40 35 35 34 33 31 27 25 25 25 25 24 25 25 26 31
31 30 32 35 45 55 58 59 61 64 72 81 84 85 80 76 76 79 75 73 73 75 73 68 60 56 56 60 62 65 71 74 75 71 74 70 61 50 44 40 37 37 36 34 31 28 25 25 27 28 31 31 32 33
20 23 24 27 28 30 37 48 57 60 66 78 88 86 86 86 83 82 78 74 72 71 68 64 63 60 60 61 62 65 68 70 73 68 76 68 63 50 44 40 40 37 37 35 33 30 29 31 31 32 32 33 35 36
13 14 18 20 18 19 22 24 34 48 64 69 82 91 90 90 89 86 75 70 70 67 63 66 67 64 63 63 64 65 68 70 69 65 69 65 54 47 45 42 38 37 35 33 35 32 35 36 37 35 35 35 38 40
13 13 13 17 20 18 20 20 25 38 50 63 79 88 95 93 91 76 69 67 67 64 66 71 72 70 69 69 68 68 72 69 66 67 60 55 46 43 47 47 42 36 37 40 39 35 34 37 39 36 37 39 41 42
15 13 14 18 22 24 23 26 28 33 49 55 71 80 90 94 72 64 61 61 62 68 74 76 78 76 78 81 80 77 72 70 70 69 59 51 42 44 49 47 44 43 42 41 39 37 36 36 38 38 40 43 46 47
22 18 15 14 23 34 31 27 41 46 48 65 63 74 58 44 58 64 73 76 78 80 84 89 88 87 87 90 85 83 81 75 63 57 53 48 49 51 52 51 47 44 44 44 44 43 39 37 38 39 42 45 49 51
36 30 20 16 16 27 36 37 49 58 67 63 65 49 45 46 42 52 72 84 85 89 90 90 93 93 90 89 89 82 75 66 59 62 54 53 51 53 53 52 48 47 47 46 47 48 43 40 40 41 44 47 50 52
47 36 32 28 21 24 45 54 52 57 70 73 50 34 31 35 38 36 39 51 68 88 94 98 95 94 95 95 89 78 69 64 61 58 60 60 61 64 61 57 55 59 61 60 55 52 53 46 47 54 52 51 52 55
50 41 41 41 37 31 41 65 69 60 51 50 51 35 36 30 30 32 33 40 48 57 74 93 97 97 93 90 75 63 63 62 64 64 63 68 70 69 64 62 60 59 60 61 61 60 60 62 65 72 67 61 57 56
54 56 55 51 54 54 64 66 69 68 52 40 33 37 40 35 36 40 47 48 53 59 65 73 81 91 84 66 65 65 64 67 68 71 71 72 75 74 73 70 69 67 69 65 64 65 64 65 72 81 81 74 64 59
70 70 66 63 70 77 77 77 75 77 63 53 49 53 50 43 45 58 64 61 57 68 77 80 63 48 38 47 65 69 71 70 73 71 69 68 68 75 78 74 72 72 73 77 80 83 84 85 77 84 88 81 72 64
81 74 78 82 88 90 84 78 73 67 66 70 55 64 64 64 70 73 76 83 93 89 70 49 41 36 30 37 61 63 64 72 75 76 75 75 76 80 79 77 80 81 77 80 84 87 90 93 79 83 91 87 79 74
76 84 83 86 92 91 84 65 72 64 66 65 67 72 68 68 69 74 86 95 92 75 65 60 51 44 39 49 54 58 69 79 75 75 74 75 75 77 80 85 86 85 87 89 89 91 94 97 90 86 95 92 85 82
92 92 93 92 93 91 67 63 70 66 67 58 60 67 66 69 76 83 92 88 71 63 72 75 65 57 58 55 61 56 58 65 72 71 73 77 82 83 83 86 89 91 87 86 90 94 97 98 98 98 98 93 88 87
94 96 97 97 92 83 74 68 69 68 68 65 64 61 59 54 68 93 89 66 50 62 61 55 59 67 76 72 60 58 52 64 68 65 66 70 67 75 81 83 86 86 86 86 87 89 90 94 98 98 98 95 89 87
99 99 97 87 83 89 90 84 90 92 88 93 91 86 81 78 78 75 61 42 36 44 54 61 60 61 69 67 63 62 64 68 67 62 60 70 74 76 82 83 82 83 85 85 87 88 90 96 97 93 90 89 88 86
98 86 81 71 71 91 84 82 77 67 66 78 83 84 93 97 94 73 48 44 57 68 65 64 69 70 67 67 63 61 66 71 62 56 56 69 75 85 89 87 83 83 84 83 86 91 93 94 91 86 83 81 78 71
98 81 80 72 81 93 93 78 76 76 71 80 81 82 90 98 93 56 55 60 66 61 62 63 65 73 75 74 80 82 81 86 87 80 85 82 81 88 87 85 81 81 82 83 88 88 83 80 79 78 77 74 69 67
86 92 84 74 97 90 88 84 82 80 72 76 82 91 94 82 59 47 59 63 56 51 58 62 63 65 68 78 84 81 84 85 85 85 85 84 82 84 83 83 85 86 83 80 79 78 75 72 72 75 73 69 67 68
73 80 98 98 92 95 92 83 68 64 63 75 77 70 61 52 47 55 54 51 43 39 41 54 59 65 66 67 76 79 79 77 76 80 82 84 83 72 72 76 79 78 77 73 71 71 71 74 76 73 70 71 73 72
70 70 89 91 95 93 75 74 70 73 75 76 78 73 63 48 43 46 40 38 37 36 38 47 54 56 62 70 76 79 81 81 81 82 85 85 79 74 72 72 71 70 70 70 71 72 76 78 75 74 73 71 69 68
58 68 73 73 69 58 61 71 81 82 83 79 79 74 54 49 46 40 36 34 35 33 32 31 39 45 47 54 70 82 82 82 82 84 88 90 81 77 75 73 76 79 76 73 76 80 79 78 75 71 70 67 62 62
71 67 66 68 62 63 68 71 69 74 75 73 66 63 55 52 40 27 24 28 25 23 22 24 25 37 40 41 55 67 79 82 84 87 89 92 88 86 83 84 91 84 78 80 81 80 76 71 70 66 59 56 56 57
79 79 75 77 74 68 65 72 69 68 63 57 48 47 46 44 42 24 17 18 19 19 18 17 18 29 41 44 53 62 74 81 85 90 93 91 84 85 88 95 90 84 83 82 79 76 71 66 60 57 54 54 61 67

GFSWCAN_prec_cthk_111.txt.gz
RH
39 45 49 49 52 53 56 61 62 58 59 59 58 59 60 60 61 62 59 58 57 56 44 29 26 21 22 24 26 33 37 40 43 41 36 35 33 30 31 24 28 32 40 48 46 49 46 26 30 27 24 27 30 33
50 52 59 64 63 64 65 66 66 65 62 63 65 62 65 65 65 65 65 63 60 61 60 50 42 29 29 26 26 28 28 31 35 40 39 37 36 35 31 30 29 33 27 27 31 29 25 26 22 26 27 29 32 34
57 60 65 67 69 69 69 67 66 68 70 69 70 68 68 67 69 69 66 67 68 64 63 57 53 46 35 36 39 38 36 33 34 35 39 39 41 34 36 32 30 30 29 31 27 22 23 25 26 27 29 30 30 30
74 74 74 73 74 73 73 70 67 66 72 74 71 71 70 69 67 70 69 68 68 68 65 52 53 52 55 57 55 51 51 46 42 43 44 41 37 34 33 28 29 29 30 30 29 25 26 24 25 27 28 28 27 28
80 80 79 77 78 75 75 72 70 65 69 75 76 74 71 71 69 70 69 65 64 62 63 62 60 61 65 67 64 64 58 57 59 61 59 56 48 45 40 40 34 29 27 32 29 25 26 25 28 28 28 28 29 29
77 79 78 78 77 75 74 75 76 74 69 71 76 78 73 71 73 73 65 61 62 65 66 63 57 56 56 59 61 58 64 69 71 69 66 64 63 58 53 46 33 28 29 28 28 29 29 30 31 30 29 30 30 29
69 68 70 70 68 73 75 74 75 75 74 73 74 75 76 73 73 75 72 67 69 69 66 63 56 52 52 52 55 58 63 73 74 74 74 71 72 70 64 55 34 33 36 34 33 35 33 34 32 31 29 28 28 28
57 55 56 57 57 63 67 70 74 72 70 71 72 75 75 75 75 74 74 75 73 68 65 66 58 53 54 57 58 60 61 64 66 67 69 73 75 76 67 45 41 38 38 37 36 36 35 35 33 32 29 29 28 25
44 44 45 43 41 42 44 50 59 65 73 75 75 78 79 77 77 75 73 73 73 72 68 65 65 61 55 57 60 61 60 61 61 62 65 66 67 70 54 55 47 42 43 41 38 37 36 33 33 32 30 29 31 30
39 39 37 38 38 37 36 37 37 43 53 63 72 79 79 77 78 77 74 71 71 72 69 66 64 64 60 61 62 62 63 61 64 59 64 64 54 50 47 50 53 46 44 46 44 38 35 34 34 33 34 36 38 37
24 28 32 32 32 32 31 32 31 34 38 46 61 73 78 80 80 77 72 72 72 69 67 63 67 68 68 69 72 71 71 68 67 61 64 61 52 45 42 39 41 42 45 44 42 40 37 36 37 38 36 39 40 40
17 16 19 20 23 27 27 25 28 31 40 46 51 57 66 75 76 77 72 72 72 71 69 69 70 75 76 74 77 77 77 75 73 67 64 60 45 44 42 39 37 38 44 44 43 40 39 43 43 40 40 40 40 41
18 17 16 14 16 18 22 21 23 31 35 39 51 59 53 58 63 67 67 69 73 72 74 76 77 79 82 85 85 86 83 76 69 71 64 48 49 45 42 39 40 42 41 42 40 43 44 44 44 44 44 42 42 43
24 23 20 18 16 19 24 29 30 33 39 48 53 56 57 48 54 48 46 52 60 69 75 76 79 83 85 88 89 91 86 83 82 75 62 56 46 44 45 46 49 47 47 46 46 45 44 43 45 48 47 43 44 45
30 28 25 22 19 19 25 35 40 48 56 50 60 56 42 30 32 32 42 45 50 63 75 89 96 97 96 97 96 96 96 93 80 70 67 58 55 52 55 53 52 51 52 48 45 41 42 46 49 48 50 46 45 47
43 41 31 29 27 23 23 39 53 54 67 66 56 41 30 32 32 34 35 38 38 44 54 60 73 83 93 96 94 94 94 82 69 71 67 64 61 60 58 60 58 64 57 52 49 53 58 59 60 56 51 53 49 49
61 50 40 42 44 43 35 38 61 69 66 63 46 34 30 33 31 35 34 37 45 59 65 71 76 78 85 94 92 80 76 61 64 63 64 68 65 64 66 70 72 73 61 56 57 57 59 61 63 64 64 62 64 68
72 58 56 59 61 59 57 58 66 70 63 42 41 30 40 30 32 33 35 39 39 45 53 60 65 77 79 79 81 71 61 55 49 57 69 70 71 70 73 72 76 77 66 61 60 58 60 63 63 64 68 70 71 78
72 77 74 71 74 77 77 74 68 69 61 41 31 32 36 34 36 36 43 45 47 55 63 69 76 66 49 39 33 28 26 32 40 49 63 63 68 74 69 68 71 73 69 70 71 74 68 65 66 70 74 78 80 87
91 89 84 81 88 89 89 82 75 74 49 37 43 42 42 31 30 37 41 45 52 67 69 68 53 47 44 38 33 33 29 29 35 39 44 50 61 73 79 79 73 71 72 71 73 77 75 71 69 77 85 92 96 97
99 95 94 95 98 98 93 90 77 65 57 56 45 56 58 48 47 49 51 55 72 71 62 47 43 46 39 45 50 60 65 62 51 44 40 48 64 79 76 68 72 74 73 75 78 81 81 80 86 84 86 92 96 98
97 98 96 98 99 99 99 94 87 76 73 64 66 71 65 61 59 57 58 75 74 59 52 51 57 56 57 67 72 74 75 63 53 50 54 66 76 73 72 79 79 75 75 78 82 83 85 87 90 90 93 95 97 98
98 98 99 98 99 98 87 84 90 77 77 64 71 76 69 60 54 63 75 68 53 37 31 40 39 48 77 76 70 63 64 68 73 69 55 52 61 63 62 71 74 71 70 71 82 90 91 94 98 97 94 95 98 98
99 99 99 99 98 94 90 84 80 76 68 67 70 67 47 43 54 68 64 47 33 22 24 28 56 63 61 62 60 62 60 74 66 66 66 64 61 53 54 64 69 67 64 69 77 85 91 94 95 94 92 93 98 98
100 99 98 98 98 97 95 87 82 77 67 61 70 67 59 62 74 72 53 33 28 36 46 42 57 65 66 65 65 63 62 72 63 60 62 71 66 61 60 64 69 71 73 77 84 91 95 97 96 93 93 95 98 98
98 95 96 94 91 91 83 73 69 63 65 79 84 77 79 91 96 87 53 42 57 66 71 67 66 75 72 71 63 65 75 82 81 73 76 84 80 79 77 75 75 71 75 82 89 93 94 94 92 94 96 97 98 97
98 94 86 72 74 74 77 63 60 70 75 84 82 94 95 97 87 58 41 44 54 74 82 78 75 75 71 66 64 64 70 77 80 82 87 89 90 88 86 80 78 81 87 90 92 93 94 93 94 97 97 96 94 92
86 77 77 63 69 68 71 72 77 83 77 85 85 96 96 80 53 36 46 46 78 80 77 78 77 71 60 55 56 62 69 72 75 78 83 84 86 88 87 85 82 81 87 88 88 92 94 92 90 86 83 83 86 84
84 78 83 84 87 95 93 86 79 66 69 81 84 89 84 69 54 56 59 71 69 68 67 68 63 57 50 48 49 58 63 70 77 79 84 85 85 83 85 86 86 83 82 84 88 86 83 80 80 82 87 88 81 76
71 76 90 90 86 82 70 67 73 84 87 86 88 88 79 63 64 74 68 67 63 57 51 45 42 39 34 37 42 44 45 52 55 61 72 85 88 88 88 85 79 79 78 77 75 75 74 76 81 88 86 79 78 78
73 76 82 79 77 64 60 67 69 73 76 77 77 80 70 65 60 60 59 53 50 44 35 27 26 27 26 25 30 36 37 38 45 51 60 73 82 89 92 88 80 77 78 80 79 78 82 87 91 88 82 80 78 77
95 91 80 76 66 61 64 68 72 75 71 68 60 66 70 72 56 36 35 39 36 31 25 25 21 18 21 22 21 22 31 38 40 52 59 65 74 88 96 91 83 84 86 86 84 82 86 91 86 82 79 76 74 72
78 81 84 87 82 75 72 76 75 72 70 66 59 61 64 62 51 27 38 39 37 34 28 22 19 17 16 17 19 21 24 27 32 46 60 64 73 86 95 96 92 93 94 93 87 90 92 85 81 77 74 72 68 61

GFSWCAN_prec_cthk_114.txt.gz
RH
34 37 38 38 38 43 48 49 54 57 60 62 62 61 61 63 61 60 61 63 62 62 59 56 50 45 35 32 29 34 32 35 39 40 37 35 35 30 31 26 35 40 48 51 52 56 51 29 30 30 23 22 23 25
41 40 41 43 45 44 46 50 55 59 61 63 63 65 65 66 64 64 61 62 63 65 66 61 60 59 51 45 38 38 43 46 45 45 40 38 38 33 31 34 24 30 29 34 36 34 26 27 25 25 25 25 27 28
49 46 46 47 48 50 53 57 59 66 63 63 65 65 66 67 68 66 63 62 60 61 62 62 51 56 57 51 42 53 56 55 52 52 53 54 57 49 49 38 33 30 27 30 29 23 26 28 28 27 27 28 27 29
57 59 58 60 59 62 67 72 69 69 66 65 67 66 67 69 69 69 65 64 63 59 60 54 56 58 58 57 59 64 67 65 60 62 59 60 61 54 56 50 49 43 37 34 33 29 29 28 26 28 28 29 29 30
71 73 78 79 77 74 74 73 74 73 69 69 72 68 67 67 70 69 68 65 61 59 58 55 54 54 55 55 56 58 65 67 67 64 63 69 67 68 60 57 57 54 45 42 37 29 33 33 32 34 31 32 32 30
82 80 79 80 79 79 76 73 72 72 75 74 73 75 72 70 69 71 67 62 62 65 65 61 54 53 53 52 46 49 56 59 62 66 67 65 69 70 68 62 55 50 47 43 37 35 38 37 35 36 35 35 35 34
75 72 70 70 73 73 73 72 71 69 72 70 71 71 73 75 72 72 71 69 70 70 68 65 57 53 50 52 54 57 58 61 62 64 64 63 64 66 65 57 47 46 45 45 42 40 40 37 38 37 38 37 36 33
63 65 65 66 68 65 64 63 63 67 68 69 71 71 74 77 76 73 71 74 76 75 71 69 63 56 53 56 56 58 60 61 62 62 62 64 64 67 61 44 46 49 48 49 46 44 42 43 41 40 39 36 35 33
55 58 59 58 56 52 49 48 48 49 50 50 57 63 67 72 78 76 73 73 75 75 73 69 69 65 61 59 60 62 63 62 62 64 62 62 61 59 46 43 44 45 44 47 49 47 43 43 43 40 37 36 35 35
41 41 43 43 43 40 39 39 37 37 40 41 46 51 65 65 67 73 73 71 71 70 71 67 66 69 65 68 69 69 67 65 66 61 62 63 54 48 44 43 43 41 41 42 44 45 43 44 40 35 36 35 37 41
35 36 37 34 34 34 34 34 32 31 32 36 45 48 50 55 59 65 68 68 69 70 69 65 66 70 72 76 76 76 79 75 71 66 67 61 55 48 45 43 42 42 41 43 43 45 45 44 41 37 36 41 45 45
30 27 25 25 25 27 28 30 32 32 38 45 49 49 47 48 50 57 65 70 71 66 66 66 70 73 77 80 83 82 83 82 81 76 73 64 52 50 47 45 42 38 39 41 42 46 47 45 44 41 44 44 45 45
28 27 24 24 24 23 25 25 27 30 35 41 42 42 50 46 49 58 60 62 57 53 55 57 60 62 66 68 75 80 83 82 78 78 70 56 55 52 47 39 42 42 41 50 54 56 56 51 48 46 45 45 46 49
31 26 25 25 23 21 20 22 32 34 40 43 48 48 44 43 50 38 34 35 36 41 47 50 56 62 68 75 82 88 86 85 88 80 66 66 63 61 62 57 50 49 47 51 53 55 55 53 49 48 46 51 58 55
45 40 32 29 30 29 26 27 36 49 53 54 52 45 36 28 29 28 33 36 41 48 51 58 60 55 64 69 72 83 88 87 80 68 68 67 70 71 69 71 68 68 68 64 65 64 62 52 52 55 58 62 64 68
56 54 44 42 39 38 36 33 46 62 68 66 57 40 33 34 30 32 31 33 35 42 47 50 56 59 56 60 63 59 65 59 47 50 57 56 62 74 69 72 71 72 72 75 76 76 70 56 53 57 58 60 62 66
64 61 54 54 55 55 54 51 51 69 70 65 46 34 30 29 30 35 36 35 40 47 55 63 65 62 66 75 68 66 59 47 41 42 45 49 57 63 65 66 69 77 73 74 75 75 79 70 56 53 53 57 62 66
66 63 66 66 69 72 77 76 72 71 66 57 48 27 38 40 39 38 37 47 50 48 51 57 57 65 62 59 40 33 34 30 22 18 22 33 49 51 50 48 46 60 72 63 68 71 72 73 68 55 57 63 64 68
57 69 76 79 83 86 86 84 82 79 61 46 39 36 45 40 39 36 44 48 55 64 71 72 71 54 40 35 33 28 27 28 26 30 36 34 34 36 37 38 41 42 50 58 69 70 69 72 68 69 74 76 78 73
61 76 84 88 93 93 94 91 89 84 65 43 45 43 42 43 37 40 39 42 46 57 68 67 53 41 36 30 27 26 28 37 48 48 46 51 55 53 52 50 41 37 46 49 56 67 70 72 75 75 76 77 81 78
78 79 94 99 99 99 98 98 98 79 64 59 46 47 52 50 47 44 42 38 56 55 57 46 39 31 29 27 31 41 59 64 66 68 76 62 51 57 56 50 46 44 44 48 55 74 75 72 77 76 76 81 88 91
82 92 100 99 99 99 98 98 97 87 86 71 64 63 73 66 55 49 53 69 61 52 53 45 37 33 33 40 47 61 62 60 69 78 70 64 64 58 58 61 64 54 51 56 68 74 71 79 78 76 75 78 88 95
99 99 99 99 99 98 98 93 99 98 98 84 72 87 79 58 47 51 64 58 62 62 50 47 46 53 57 44 42 35 38 53 71 71 62 68 69 62 59 57 69 73 63 54 57 55 61 67 72 77 78 80 90 98
99 93 99 98 98 98 96 97 92 84 77 71 72 68 57 46 47 61 60 47 36 30 39 41 43 41 40 41 45 42 33 57 69 61 70 80 73 68 67 63 70 73 75 72 67 64 65 73 79 80 81 84 94 98
98 99 98 98 97 98 98 89 83 82 71 65 70 66 55 58 69 68 67 37 33 40 41 42 49 69 80 65 55 50 57 83 77 72 72 81 81 83 84 86 85 87 91 87 81 78 77 79 80 81 84 90 97 97
97 96 98 91 89 88 80 81 79 69 64 72 73 66 65 77 81 76 38 37 52 63 61 70 78 80 84 86 89 86 83 85 79 69 72 82 85 88 87 88 86 83 91 95 96 92 88 87 89 92 94 97 98 97
97 92 81 76 77 75 80 75 70 79 81 82 73 72 83 88 81 42 43 58 70 66 76 80 88 96 98 96 92 82 74 69 61 60 67 73 75 80 85 88 84 84 88 90 93 95 91 92 96 97 98 97 97 97
87 73 72 61 65 63 71 76 82 79 77 74 77 80 84 71 49 42 52 60 70 74 74 74 78 80 88 84 84 85 81 72 59 60 68 70 69 72 76 77 84 90 90 90 92 95 95 95 96 97 97 96 94 96
78 65 65 69 71 81 84 78 70 63 60 68 76 72 63 55 47 55 59 69 72 69 65 61 56 63 68 78 76 75 69 61 54 55 62 57 48 54 58 67 77 85 91 89 85 88 93 93 92 90 91 92 94 96
58 59 74 73 79 81 69 66 64 58 65 72 73 73 66 54 55 65 70 64 60 58 55 51 45 50 54 54 54 54 51 46 42 45 46 41 39 49 56 63 72 79 89 88 82 85 85 84 82 85 87 90 93 87
55 69 78 77 79 70 64 59 65 67 71 75 81 81 57 56 54 52 53 50 50 51 49 44 44 44 43 42 44 42 36 30 27 30 34 35 38 43 56 63 71 76 85 89 83 84 86 86 88 90 93 93 87 85
66 69 66 72 67 66 85 79 71 70 66 62 53 56 58 59 49 40 46 51 46 42 41 46 42 36 41 37 35 34 31 26 23 23 24 23 23 29 41 54 65 76 90 90 86 88 90 89 90 92 91 86 86 84
79 74 74 78 71 68 72 89 79 67 64 63 61 60 58 57 50 42 39 39 44 44 44 46 42 39 39 39 35 32 30 28 24 21 20 20 21 29 38 51 61 77 89 92 95 97 94 93 93 91 86 83 81 80

GFSWCAN_prec_cthk_117.txt.gz
RH
31 31 32 34 35 35 36 37 36 37 38 41 43 49 58 59 59 60 57 56 58 58 62 63 62 59 61 59 50 43 37 45 50 50 52 46 42 34 32 29 36 39 48 51 55 55 51 28 32 31 27 25 25 25
43 43 41 40 40 39 39 39 39 40 42 46 47 51 57 60 60 61 61 58 57 57 57 60 61 57 59 60 56 49 46 50 56 61 59 58 56 52 48 52 46 49 42 43 42 38 26 29 27 28 29 29 31 30
49 48 47 46 46 45 44 45 44 44 48 52 50 54 57 61 62 62 63 62 58 55 53 54 51 49 54 56 57 58 54 49 58 64 64 63 66 62 61 60 58 57 54 52 48 43 40 36 32 32 34 35 35 35
61 57 53 52 52 51 52 52 53 55 53 57 58 59 62 63 63 64 64 64 62 60 58 53 52 55 54 54 54 55 56 56 57 61 62 64 66 54 54 55 59 62 60 53 48 50 46 43 36 34 36 34 34 36
77 75 74 73 69 68 67 62 65 64 64 64 66 65 67 66 66 66 65 63 61 59 59 57 55 54 54 54 54 54 55 55 56 59 62 65 60 58 54 53 48 49 48 52 50 47 43 43 43 41 41 38 36 37
88 85 80 80 76 73 71 73 71 66 69 68 68 65 70 71 71 71 69 63 62 66 66 62 58 57 57 56 53 50 54 57 58 57 59 57 56 55 56 57 43 41 42 44 44 45 42 39 37 40 43 42 43 42
88 83 79 79 78 77 72 71 71 70 69 67 65 62 67 66 70 74 72 70 72 73 72 69 60 56 54 55 57 57 58 59 58 60 60 59 60 60 60 57 43 43 43 44 46 46 45 48 45 43 41 42 45 45
76 73 69 66 65 66 65 64 63 60 59 60 62 62 62 63 66 70 73 76 75 74 73 73 69 62 59 57 58 59 59 61 60 61 61 62 64 65 58 43 45 46 45 46 44 43 42 43 48 49 44 43 43 43
68 69 67 63 60 60 59 59 59 57 54 52 51 47 44 47 54 57 65 71 73 75 74 72 70 68 65 65 64 63 64 64 61 64 63 65 65 63 46 47 48 48 47 43 42 41 42 42 43 46 47 44 44 39
53 53 52 52 51 52 50 49 49 48 44 44 44 41 45 49 52 59 61 61 60 62 66 64 60 65 66 71 71 72 72 71 69 64 65 65 61 49 48 45 43 41 39 42 42 42 43 44 47 47 45 43 40 37
49 46 44 42 42 41 41 41 43 44 41 41 44 42 45 48 45 47 54 63 66 66 61 59 62 69 74 77 78 78 80 78 76 70 72 68 63 52 46 45 45 42 39 41 42 42 42 42 44 47 45 44 40 42
39 38 35 33 32 31 32 35 37 37 40 44 46 47 43 45 49 51 61 61 59 56 56 61 63 65 64 67 74 77 77 78 76 73 73 68 61 48 48 48 46 44 38 36 37 37 38 43 47 49 50 48 44 44
42 36 33 30 28 26 26 27 30 30 34 42 42 40 40 43 50 59 59 55 51 49 51 51 51 51 56 61 66 69 69 67 67 67 64 51 53 50 55 58 54 58 58 55 49 46 52 66 69 68 65 62 55 58
47 44 37 31 26 25 24 23 29 32 35 37 41 41 40 44 45 36 34 36 36 38 43 46 49 54 58 68 70 71 69 74 74 73 58 46 45 52 54 56 57 59 68 77 76 74 74 73 75 71 63 57 60 63
51 51 47 44 36 33 32 30 33 43 46 49 46 44 37 31 30 31 32 35 37 43 50 56 61 64 66 62 55 57 61 61 57 39 30 40 43 42 47 46 45 55 65 70 73 74 75 75 75 78 76 65 55 59
46 55 54 53 48 45 47 49 47 53 61 58 49 39 32 35 31 33 33 34 39 47 52 56 61 61 58 58 57 54 57 46 30 28 20 35 46 48 49 43 39 43 42 44 55 60 61 65 72 71 72 75 75 70
52 54 53 61 65 64 65 64 62 64 67 65 46 36 33 34 33 35 37 39 50 55 61 67 71 69 71 71 63 52 45 32 30 30 40 38 29 16 14 16 19 36 49 50 43 40 42 43 49 54 65 67 73 76
54 51 54 60 71 77 80 81 76 72 67 55 49 31 36 36 35 39 38 45 51 53 60 71 67 68 62 56 41 38 34 30 34 33 27 23 19 17 23 26 27 31 35 33 34 38 42 43 39 38 45 65 68 67
49 51 51 59 72 82 88 88 87 81 56 46 39 33 38 38 35 34 36 43 47 57 76 81 83 73 62 53 48 42 42 42 42 39 35 24 24 31 33 41 39 38 41 42 45 48 46 44 41 36 36 56 66 70
52 54 56 58 79 87 90 93 93 91 77 51 44 41 41 40 34 39 40 38 52 64 57 52 44 36 38 34 38 40 40 39 43 36 25 28 38 40 49 50 46 45 47 50 51 53 54 52 45 42 45 54 58 73
58 50 58 74 88 94 97 98 98 93 76 68 51 53 52 52 52 45 39 42 60 48 49 42 40 38 35 36 37 41 45 46 41 41 48 53 40 45 48 53 54 55 59 60 61 59 65 66 58 55 59 63 69 81
61 69 65 81 95 99 99 98 98 96 95 84 69 64 70 58 47 42 52 52 50 44 45 39 37 41 42 45 47 47 48 48 49 52 52 51 50 47 48 60 65 64 70 72 72 69 64 72 74 68 63 66 73 72
92 93 95 94 99 98 95 98 99 97 94 85 73 83 69 55 50 59 67 50 45 38 38 48 44 41 46 43 46 48 44 48 51 52 47 46 57 52 55 62 75 81 82 84 82 79 80 82 84 83 76 67 66 65
98 99 99 98 98 96 98 99 95 92 89 88 83 72 72 69 60 68 63 42 39 42 45 42 42 46 53 57 47 42 37 48 61 52 51 60 53 48 62 74 86 91 95 95 91 90 91 88 89 88 89 87 83 76
100 98 99 98 98 99 97 97 92 92 86 77 72 69 72 69 71 66 50 39 38 41 42 43 66 75 79 68 64 63 72 80 79 71 70 84 90 82 81 84 80 81 87 92 83 85 82 84 87 92 92 92 86 84
98 95 96 94 94 94 89 85 78 69 72 80 81 74 69 73 71 64 44 37 42 42 47 57 67 76 75 71 86 91 94 96 98 99 93 93 88 84 78 75 73 72 77 78 82 85 89 91 93 97 97 97 89 89
90 91 91 80 87 97 93 85 84 87 90 87 76 69 71 81 74 50 36 36 41 40 48 54 63 61 61 69 81 87 88 86 89 94 90 84 80 75 71 71 69 62 63 71 76 83 91 95 95 96 97 97 92 93
74 76 74 69 78 79 89 90 89 88 81 67 61 61 64 58 44 34 34 34 44 46 50 55 58 60 64 70 73 76 76 79 81 88 86 69 63 60 57 63 63 55 55 68 74 79 91 96 90 95 98 97 94 93
95 80 78 78 82 88 85 76 69 56 44 44 54 58 51 43 36 38 41 42 46 50 55 59 59 66 59 56 56 58 63 67 73 72 69 65 55 46 46 53 59 56 59 65 73 75 84 90 88 92 93 86 86 91
53 55 63 66 68 68 53 49 49 44 50 56 62 63 59 45 39 43 45 50 55 55 53 56 56 56 49 48 46 48 49 51 58 59 55 51 48 41 36 33 38 45 57 63 67 72 86 89 87 87 84 85 90 95
49 55 57 55 55 46 47 50 59 65 67 65 65 69 57 50 43 45 53 55 56 54 54 53 56 49 47 44 43 43 40 38 43 44 43 42 41 35 26 24 26 33 43 51 59 72 87 89 88 90 93 94 93 92
66 66 68 74 68 60 71 67 62 61 59 68 73 76 73 67 58 45 42 51 53 49 44 54 52 42 45 44 44 42 39 39 40 40 41 40 37 27 23 23 23 29 36 46 58 71 84 92 94 95 94 94 92 91
71 69 75 83 82 75 65 75 79 79 75 74 67 63 64 71 60 43 39 39 41 41 43 47 47 47 45 43 41 40 39 40 40 38 38 37 32 26 23 23 24 25 33 46 63 77 90 97 97 97 97 96 92 91